     2.11           OBSERVATION DATA    G (GPS)             RINEX VERSION / TYPE
teqc 2010Oct21 OPUS Account 20111030 16:29:14UTC            PGM / RUN BY / DATE
A 1523                                                      MARKER NAME
1180                                                        MARKER NUMBER
CSMIDDLETON NGS                                             OBSERVER / AGENCY
0220320139 TRIMBLE 5700 2.01                                REC # / TYPE / VERS
12696910 TRM41249.00 NONE                                   ANT # / TYPE
  -744907.6289 -5505785.9992  3122150.4787                  APPROX POSITION XYZ
        2.0000        0.0000        0.0000                  ANTENNA: DELTA H/E/N
     1     1                                                WAVELENGTH FACT L1/2
     5    L1    L2    C1    P1    P2                        # / TYPES OF OBSERV
    15                                                      LEAP SECONDS
  2011     9    27     0     0   30.0000000     GPS         TIME OF FIRST OBS
                                                            END OF HEADER
 11  9 27  0  0 30.0000000  0  9G29G12G02G30G10G05G25G15G26
 -18004993.32457 -14014857.71956  21845614.6254                   21845618.2504
 -24866324.75058 -19358769.60556  21943092.0474                   21943094.8754
 -30023494.45757 -23376595.96155  21791709.6724                   21791710.6684
 -12207968.55157  -9496312.06255  22586937.4144                   22586941.1604
 -14845430.85256 -11551454.86353  24296008.2114                   24296014.4144
 -31260194.65258 -24343438.22356  20444231.7344                   20444232.9494
 -22944709.83258 -17860590.83256  21544947.9694                   21544952.5124
  -4338856.53157  -3364250.02054  23827961.2584                   23827969.4734
 -11608183.32056  -9028783.23854  22921414.3364                   22921420.3284
 11  9 27  0  1  0.0000000  0  9G29G12G02G30G10G05G25G15G26
 -18104176.88347 -14092143.48846  21826740.7734                   21826744.1524
 -24808977.65647 -19314083.55945  21954004.4064                   21954007.7234
 -30002106.18047 -23359929.73045  21795779.5944                   21795780.1804
 -12246686.80147  -9526482.02045  22579569.7894                   22579573.6604
 -14758425.97346 -11483658.72343  24312564.8524                   24312570.4384
 -31240934.69548 -24328430.43447  20447896.5704                   20447897.7384
 -22938427.85948 -17855695.74246  21546143.5474                   21546148.2664
  -4457951.37947  -3457050.81244  23805298.3054                   23805306.0744
 -11720839.80947  -9116567.27044  22899976.1804                   22899981.8754
 11  9 27  0  1 30.0000000  0  9G29G12G02G30G10G05G25G15G26
 -18203178.94547 -14169287.85546  21807901.1724                   21807904.3794
 -24751304.05148 -19269143.10245  21964979.3674                   21964982.2074
 -29980608.15647 -23343177.99246  21799870.6564                   21799872.1484
 -12284806.39547  -9556185.48445  22572315.3754                   22572320.0204
 -14671346.28946 -11415804.26643  24329134.9454                   24329141.1764
 -31221202.63348 -24313054.77047  20451651.5554                   20451652.8754
 -22931599.17648 -17850374.66046  21547442.8444                   21547447.4964
  -4577055.90647  -3549859.13344  23782633.2734                   23782641.0044
 -11833275.40247  -9204179.18044  22878580.3984                   22878585.9924
 11  9 27  0  2  0.0000000  0  9G29G12G02G30G10G05G25G15G26
 -18301998.53947 -14246290.02346  21789096.0864                   21789099.3324
 -24693308.20348 -19223951.53545  21976015.8984                   21976018.9344
 -29959001.32447 -23326341.47745  21803982.2034                   21803983.1524
 -12322328.66847  -9585423.53545  22565175.7344                   22565179.1564
 -14584195.40646 -11347894.29343  24345718.9924                   24345725.4614
 -31201002.06648 -24297314.03946  20455495.3834                   20455496.5594
 -22924226.87948 -17844629.99246  21548845.9224                   21548850.4454
  -4696168.59447  -3642673.79744  23759965.9844                   23759974.2384
 -11945487.84047  -9291617.18444  22857226.8284                   22857232.3284
 11  9 27  0  2 30.0000000  0  9G29G12G02G30G10G05G25G15G26
 -16825209.09847 -13095544.88746  22070120.0394                   22070122.8014
 -23059573.30148 -17950911.35946  22286905.5944                   22286908.2504
 -28361865.01648 -22081819.65245  22107907.3054                   22107908.1954
 -10783831.19147  -8386594.23044  22857941.9924                   22857944.8364
 -12921557.10246 -10052331.83243  24662108.3204                   24662115.5394
 -29604914.28948 -23053609.26646  20759220.5704                   20759222.1884
 -21340891.46148 -16610862.10946  21850144.0784                   21850148.7974
  -3239861.30547  -2507888.47344  24037091.7894                   24037099.2814
 -10482048.39847  -8151274.52744  23135709.8284                   23135715.4024
 11  9 27  0  3  0.0000000  0  9G29G12G02G30G10G05G25G15G26
 -16923655.51247 -13172256.26646  22051386.1644                   22051388.9964
 -23000938.80148 -17905222.14146  22298063.4534                   22298066.0904
 -28340038.22348 -22064811.75845  22112061.1644                   22112061.8484
 -10820156.90247  -8414899.89545  22851028.9614                   22851032.2504
 -12834268.83646  -9984314.79343  24678718.6254                   24678725.8164
 -29583780.21548 -23037141.12146  20763242.5234                   20763243.6524
 -21332434.64148 -16604272.35946  21851753.2894                   21851758.0124
  -3358979.66447  -2600707.58244  24014424.5784                   24014431.3204
 -10593801.35247  -8238354.48444  23114443.7894                   23114449.4694
 11  9 27  0  3 30.0000000  0  9G29G12G02G30G10G05G25G15G26
 -17021912.53548 -13248820.05546  22032688.3754                   22032691.4144
 -22941990.65247 -17859288.52046  22309280.2344                   22309283.5594
 -28318102.03148 -22047718.59846  22116235.2034                   22116235.8914
 -10855884.98447  -8442739.87945  22844230.2114                   22844233.7854
 -12746915.85246  -9916247.32443  24695340.9694                   24695348.2664
 -29562183.54348 -23020312.51646  20767352.3204                   20767353.3954
 -21323438.78547 -16597262.58646  21853465.3054                   21853469.4654
  -3478097.20747  -2693526.00444  23991756.4454                   23991763.6094
 -10705319.64146  -8325251.59444  23093222.8134                   23093227.6844
 11  9 27  0  4  0.0000000  0  9G29G12G02G30G10G05G25G15G26
 -17119976.78148 -13325233.63346  22014027.2424                   22014030.1764
 -22882730.58247 -17813111.84845  22320557.5864                   22320560.4964
 -28296055.12548 -22030539.17645  22120430.2734                   22120431.4064
 -10891014.60547  -8470113.55145  22837545.5394                   22837549.4614
 -12659499.61346  -9848130.58643  24711976.8754                   24711982.9384
 -29540124.69948 -23003123.76647  20771549.7424                   20771551.0004
 -21313904.56648 -16589833.30146  21855279.8524                   21855284.3874
  -3597209.97347  -2786340.74644  23969090.1804                   23969096.2504
 -10816598.53946  -8411962.16444  23072045.8914                   23072051.8164
 11  9 27  0  4 30.0000000  0  8G29G12G02G30G05G25G15G26
 -17217847.59847 -13401496.48046  21995403.1804                   21995405.6094
 -22823162.83648 -17766695.43046  22331893.2504                   22331895.4224
 -28273898.71948 -22013274.39845  22124646.4304                   22124648.0554
 -10925547.22747  -8497022.00445  22830974.1564                   22830977.8874
 -29517607.55148 -22985577.90646  20775834.6564                   20775835.5704
 -21303835.00448 -16581986.87946  21857195.6414                   21857200.3054
  -3716316.52046  -2879150.62144  23946424.7894                   23946431.0164
 -10927635.55147  -8498484.25044  23050916.2424                   23050921.9344
 11  9 27  0  5  0.0000000  0  9G29G12G02G30G21G05G25G15G26
 -17315522.87547 -13477606.95746  21976815.9774                   21976818.3404
 -22763290.49248 -17720041.66445  22343286.1334                   22343289.5784
 -28251633.25048 -21995924.66045  22128883.4844                   22128884.9494
 -10959483.06647  -8523465.44944  22824515.6954                   22824519.3794
   1457783.84855   1145519.42252  25301455.1724                   25301461.2274
 -29494634.59448 -22967676.86347  20780206.4304                   20780207.7464
 -21293232.10948 -16573724.87946  21859213.6414                   21859218.0084
  -3835414.02046  -2971953.43044  23923759.9774                   23923766.9064
 -11038427.46546  -8584815.34444  23029833.4224                   23029838.8524
 11  9 27  0  5 30.0000000  0  9G29G12G02G30G21G05G25G15G26
 -17412998.73047 -13553562.04746  21958266.9064                   21958269.6254
 -22703114.91447 -17673151.60245  22354736.9844                   22354740.3204
 -28229256.53947 -21978488.23045  22133141.7424                   22133142.7704
 -10992820.88747  -8549442.88744  22818171.8054                   22818175.5864
   1377936.03145   1083300.63342  25286261.3134                   25286267.2074
 -29471206.19948 -22949420.93046  20784664.4144                   20784665.9574
 -21282096.12548 -16565047.48046  21861332.5314                   21861337.5004
  -3954498.13346  -3064745.85244  23901098.9454                   23901106.0554
 -11148968.65647  -8670951.06644  23008798.1414                   23008802.6414
 11  9 27  0  6  0.0000000  0  9G29G12G02G30G21G05G25G15G26
 -17510273.82047 -13629360.69146  21939756.0084                   21939758.3554
 -22642639.70748 -17626028.07045  22366245.1724                   22366248.1914
 -28206769.37148 -21960965.73045  22137420.7894                   22137421.4104
 -11025561.48847  -8574954.95745  22811941.5864                   22811945.2234
   1298112.34046   1021100.65642  25271071.0554                   25271076.0904
 -29447325.11348 -22930812.26246  20789209.1804                   20789209.9614
 -21270429.52348 -16555956.61346  21863552.6884                   21863557.4654
  -4073566.48047  -3157525.92244  23878440.7424                   23878448.2154
 -11259256.21147  -8756889.12944  22987810.3364                   22987815.6884
 11  9 27  0  6 30.0000000  0  9G29G12G02G30G21G05G25G15G26
 -17607345.38347 -13705000.72346  21921283.6414                   21921286.4384
 -22581867.50847 -17578673.12145  22377810.0864                   22377812.9224
 -28184171.18447 -21943356.73445  22141721.1564                   22141721.8954
 -11057704.77747  -8600001.59445  22805824.8594                   22805828.9414
   1218313.28546    958919.87942  25255885.9614                   25255890.7584
 -29422992.96948 -22911852.10947  20793839.1724                   20793840.5514
 -21258233.71948 -16546453.37946  21865873.7584                   21865878.0984
  -4192615.94147  -3250291.32444  23855785.7974                   23855792.9454
 -11369286.03947  -8842626.37144  22966872.4534                   22966877.1454
 11  9 27  0  7  0.0000000  0  9G29G12G02G30G21G05G25G15G26
 -17704209.70347 -13780479.27746  21902850.7584                   21902853.4654
 -22520800.16847 -17531088.18045  22389430.3524                   22389433.8164
 -28161460.35947 -21925659.96945  22146042.9454                   22146043.6484
 -11089249.56647  -8624581.85945  22799822.0084                   22799825.0204
   1138539.30946    896758.56342  25240704.7734                   25240710.9804
 -29398210.60948 -22892541.14846  20798555.1954                   20798556.2774
 -21245509.11348 -16536538.10946  21868295.0084                   21868300.1134
  -4311642.08247  -3343038.55944  23833136.0004                   23833142.8094
 -11479053.07847  -8928158.83644  22945984.5474                   22945988.7774
 11  9 27  0  7 30.0000000  0  9G29G12G02G30G21G05G25G15G26
 -17800866.83647 -13855796.37946  21884457.4774                   21884460.0554
 -22459443.12148 -17483277.49645  22401106.4774                   22401109.7384
 -28138639.34047 -21907877.33245  22150385.2894                   22150385.9844
 -11120198.68047  -8648697.98045  22793932.3914                   22793935.8834
   1058787.17646    834614.38742  25225527.9064                   25225534.2304
 -29372982.98848 -22872883.20746  20803355.5554                   20803357.2624
 -21232260.12548 -16526214.21546  21870815.8674                   21870820.6524
  -4430644.71547  -3435767.47344  23810490.0864                   23810495.9024
 -11588556.25047  -9013485.70744  22925146.8364                   22925151.3794
 11  9 27  0  8  0.0000000  0  9G29G12G02G30G21G05G25G15G26
 -17897313.04347 -13930949.11746  21866104.2894                   21866106.7154
 -22397797.52347 -17435241.96945  22412837.0944                   22412840.3014
 -28115706.24247 -21890007.35945  22154749.2344                   22154749.9964
 -11150550.66447  -8672348.78945  22788156.4064                   22788160.1914
    979058.547 6                  25210355.797
 -29347310.22348 -22852878.41046  20808241.1254                   20808242.2034
 -21218486.90648 -16515481.82446  21873437.1254                   21873441.9384
  -4549619.00047  -3528474.31644  23787850.1024                   23787855.5554
 -11697789.77747  -9098602.45344  22904359.6564                   22904363.9694
 11  9 27  0  8 30.0000000  0  9G29G12G02G30G21G05G25G15G26
 -17993547.35247 -14005936.75046  21847791.2584                   21847794.1454
 -22335866.99647 -17386984.41845  22424622.1954                   22424625.1294
 -28092661.75847 -21872050.60945  22159134.6254                   22159135.5704
 -11180306.74247  -8695535.25444  22782494.0314                   22782498.2854
    899351.820 6                  25195187.961
 -29321195.59448 -22832529.29746  20813210.6484                   20813211.2384
 -21204192.21148 -16504343.09046  21876157.3054                   21876162.4454
  -4668562.67247  -3621157.30144  23765215.9384                   23765220.2664
 -11806751.12147  -9183507.11345  22883624.9774                   22883629.6174
 11  9 27  0  9  0.0000000  0  9G29G12G02G30G21G05G25G15G26
 -18089565.90648 -14080756.26246  21829519.3594                   21829521.8594
 -22273653.66047 -17338506.49645  22436461.0234                   22436464.0204
 -28069504.41047 -21854005.90645  22163541.1484                   22163541.8554
 -11209466.35247  -8718256.93745  22776945.3444                   22776948.9264
    819667.555 5                  25180024.859
 -29294640.02048 -22811836.59846  20818263.8444                   20818264.7624
 -21189376.99648 -16492798.75446  21878976.6884                   21878981.6884
  -4787471.94147  -3713813.48044  23742587.5554                   23742592.5594
 -11915435.12947  -9268195.68044  22862942.6724                   22862947.2464
 11  9 27  0  9 30.0000000  0  9G29G12G02G30G21G05G25G15G26
 -18185366.10248 -14155405.63346  21811289.2194                   21811291.4064
 -22211160.27047 -17289810.34845  22448352.7584                   22448355.6684
 -28046233.67647 -21835872.85545  22167969.4144                   22167970.4734
 -11238029.41447  -8740513.78945  22771509.9614                   22771513.2934
    740005.42646    586214.16053  25164864.3674                   25164870.1054
 -29267645.75448 -22790802.06246  20823400.7734                   20823401.5044
 -21174042.75448 -16480849.99246  21881894.6884                   21881899.1844
  -4906343.56247  -3806440.32044  23719967.0314                   23719971.9264
 -12023838.09047  -9352665.22745  22842314.0474                   22842318.2894
 11  9 27  0 10  0.0000000  0  9G29G12G02G30G21G05G25G15G26
 -18280945.54747 -14229882.98446  21793101.2114                   21793103.4694
 -22148389.60247 -17240898.14845  22460297.7664                   22460300.8014
 -28022849.43747 -21817651.36345  22172419.0474                   22172420.3674
 -11265996.25047  -8762306.06245  22766187.8054                   22766191.3054
    660365.35246    524157.24243  25149709.8444                   25149715.7814
 -29240214.49248 -22769427.02346  20828620.6954                   20828621.2154
 -21158191.37148 -16468498.24646  21884910.9774                   21884915.8444
  -5025174.34447  -3899035.35944  23697353.6254                   23697359.3204
 -12131955.96947  -9436912.62944  22821739.6804                   22821744.4024
 11  9 27  0 10 30.0000000  0  9G29G12G02G30G21G05G25G15G26
 -18376303.80548 -14304187.98846  21774955.2194                   21774956.9964
 -22085346.68747 -17191773.80545  22472294.7584                   22472297.8714
 -27999353.40247 -21799342.76245  22176890.9454                   22176891.5084
 -11293369.41447  -8783635.70745  22760979.1414                   22760982.0044
    580744.96146    462115.56643  25134559.0164                   25134563.5634
 -29212350.82048 -22747715.03146  20833922.6414                   20833923.5434
 -21141826.92648 -16455746.72346  21888024.8444                   21888030.0784
  -5143963.46947  -3991597.92244  23674748.3364                   23674754.2194
 -12239787.20747  -9520936.70345  22801219.9384                   22801224.4224
 11  9 27  0 11  0.0000000  0  9G29G12G02G30G21G05G25G15G26
 -18471439.97748 -14378319.93746  21756850.9924                   21756853.2734
 -22022035.41447 -17142440.36345  22484342.3444                   22484345.4654
 -27975746.48847 -21780947.73845  22181382.9614                   22181383.5314
 -11320150.08647  -8804503.71145  22755882.6094                   22755885.7584
    501142.55146    400087.93043  25119410.4454                   25119415.0784
 -29184057.41048 -22725668.19546  20839306.7734                   20839307.7034
 -21124952.16448 -16442597.55146  21891235.9064                   21891241.0044
  -5262708.72747  -4084126.28144  23652151.6484                   23652157.2854
 -12347328.99247  -9604735.21545  22780755.4924                   22780759.7074
 11  9 27  0 11 30.0000000  0  9G29G12G02G30G21G05G25G15G26
 -18566352.18748 -14452277.37146  21738789.8134                   21738791.8204
 -21958459.68447 -17092900.83245  22496440.3524                   22496442.9734
 -27952029.17247 -21762466.69945  22185896.3364                   22185896.9884
 -11346339.63347  -8824911.09045  22750899.0784                   22750902.3204
    421557.10946    338073.50043  25104265.1884                   25104270.8164
 -29155337.43048 -22703288.95746  20844772.0864                   20844772.7814
 -21107569.90248 -16429052.89846  21894543.9304                   21894548.6024
  -5381407.87147  -4176618.72344  23629563.6564                   23629569.6684
 -12454578.26647  -9688305.82845  22760346.2344                   22760350.5314
 11  9 27  0 12  0.0000000  0  9G29G12G02G30G21G05G25G15G26
 -18661035.09848 -14526056.12546  21720772.2664                   21720774.6524
 -21894619.42647 -17043155.20345  22508589.0864                   22508591.4104
 -27928198.28947 -21743897.14845  22190430.7974                   22190432.1134
 -11371935.53147  -8844855.87945  22746028.0234                   22746031.3524
    341990.80546    276074.01643  25089124.2424                   25089129.6134
 -29126189.97748 -22680576.64546  20850318.7504                   20850319.3134
 -21089679.29748 -16415112.14546  21897948.4144                   21897953.1024
  -5500054.81247  -4269070.49244  23606985.6564                   23606990.9064
 -12561528.37147  -9771643.30545  22739993.6644                   22739998.5434
 11  9 27  0 12 30.0000000  0  9G29G12G02G30G21G05G25G15G26
 -18755488.00848 -14599655.68046  21702798.1884                   21702800.2304
 -21830518.70747 -16993206.60245  22520786.7814                   22520789.3404
 -27904254.52747 -21725239.62945  22194987.5234                   22194988.0204
 -11396939.84847  -8864339.69945  22741269.7504                   22741273.3914
    262442.05946    214088.21943  25073986.8594                   25073991.6914
 -29096619.02048 -22657534.31646  20855945.8444                   20855946.6994
 -21071283.74248 -16400777.92246  21901448.7894                   21901453.2734
  -5618648.34447  -4361480.64544  23584417.4694                   23584422.4694
 -12668177.10247  -9854745.97345  22719699.0084                   22719703.3444
 11  9 27  0 13  0.0000000  0  9G29G12G02G30G21G05G25G15G26
 -18849708.61348 -14673074.21146  21684868.4454                   21684870.9384
 -21766161.33247 -16943058.02345  22533033.7504                   22533036.3954
 -27880198.25447 -21706494.44145  22199564.9144                   22199565.8874
 -11421353.25847  -8883363.08245  22736624.0004                   22736627.9924
    182909.98846    152115.40243  25058852.0164                   25058857.6254
 -29066626.84448 -22634163.77346  20861653.3284                   20861654.1884
 -21052385.52748 -16386052.01246  21905044.9384                   21905049.4184
  -5737185.40246  -4453846.80144  23561860.0234                   23561865.3054
 -12774520.59047  -9937610.78545  22699463.0864                   22699466.8484
 11  9 27  0 13 30.0000000  0  9G29G12G02G30G21G05G25G15G26
 -18943694.40648 -14746309.78546  21666983.3134                   21666985.2504
 -21701550.07447 -16892711.62145  22545328.8134                   22545331.5824
 -27856029.07447 -21687661.27045  22204164.5784                   22204165.0474
 -11445176.20746  -8901926.38345  22732090.6644                   22732094.2274
    103394.41446     90155.39543  25043721.0704                   25043725.1524
 -29036215.69948 -22610466.75446  20867440.1724                   20867440.9494
 -21032986.62148 -16370935.95346  21908736.6334                   21908741.3484
  -5855662.83647  -4546166.48844  23539315.2034                   23539318.9454
 -12880555.22347 -10020234.91845  22679284.8284                   22679288.6764
 11  9 27  0 14  0.0000000  0  9G29G12G02G30G21G05G25G15G26
 -19037443.80148 -14819361.15246  21649143.5784                   21649145.5864
 -21636688.43747 -16842170.11345  22557671.6254                   22557674.0864
 -27831747.35547 -21668740.41045  22208784.9694                   22208786.1024
 -11468410.13747  -8920030.68445  22727669.1954                   22727673.1804
     23893.89846     28207.12543  25028591.5944                   25028596.5864
 -29005388.64148 -22586445.64846  20873306.4924                   20873307.2234
 -21013089.81248 -16355431.93046  21912522.7584                   21912527.3914
  -5974078.31247  -4638437.91444  23516780.7974                   23516785.2624
 -12986278.01247 -10102616.11745  22659166.3054                   22659170.2234
 11  9 27  0 14 30.0000000  0  9G29G12G02G30G21G05G25G15G26
 -19130951.43748 -14892224.12946  21631349.1954                   21631351.3324
 -21571576.72347 -16791433.74645  22570062.0634                   22570064.9024
 -27807350.05547 -21649729.48845  22213427.5164                   22213428.3134
 -11491052.50447  -8937674.03544  22723360.1334                   22723363.6174
    -55588.78546    -33727.24643  25013467.7034                   25013472.1604
 -28974144.22748 -22562099.31646  20879252.0084                   20879252.9184
 -20992694.25048 -16339539.27046  21916403.8914                   21916408.7734
  -6092426.05546  -4730656.54344  23494259.3984                   23494264.4454
 -13091682.05147 -10184748.90245  22639108.0944                   22639112.1334
 11  9 27  0 15  0.0000000  0  9G29G12G02G30G21G05G25G15G26
 -19224216.69548 -14964898.25446  21613601.7114                   21613603.6844
 -21506219.45747 -16740506.03945  22582498.8444                   22582501.9654
 -27782838.68748 -21630629.68445  22218091.9384                   22218092.7974
 -11513105.94147  -8954858.46545  22719164.1724                   22719167.1484
   -135056.07846    -95649.66043  24998344.5474                   24998349.8244
 -28942487.39548 -22537431.62946  20885275.8914                   20885276.7274
 -20971803.90648 -16323261.06246  21920379.0944                   21920384.0784
  -6210704.61747  -4822821.29344  23471751.2344                   23471756.9494
 -13196765.83247 -10266632.15645  22619111.3594                   22619114.9494
 11  9 27  0 15 30.0000000  0  9G29G12G02G30G21G05G25G15G26
 -19317238.65648 -15037382.79746  21595900.0234                   21595902.2424
 -21440620.67647 -16689390.13745  22594982.1024                   22594984.8754
 -27758213.93047 -21611441.53945  22222778.1094                   22222778.2504
 -11534572.25847  -8971585.41445  22715078.8054                   22715082.1024
   -214509.71946   -157561.44143  24983225.3054                   24983230.2344
 -28910421.16848 -22512444.92246  20891377.6334                   20891378.7704
 -20950422.03148 -16306599.85246  21924447.9064                   21924452.6644
  -6328911.88747  -4914930.47744  23449257.5634                   23449261.8634
 -13301526.16447 -10348263.36745  22599176.0944                   22599179.8954
 11  9 27  0 16  0.0000000  0  9G29G12G02G30G21G05G25G15G26
 -19410014.56648 -15109675.61746  21578245.5394                   21578247.5164
 -21374783.71147 -16638088.64545  22607510.6024                   22607513.4384
 -27733475.54747 -21592164.84845  22227485.6334                   22227486.4494
 -11555451.89547  -8987855.18745  22711105.7974                   22711108.7624
   -293949.79346   -219462.62543  24968108.3834                   24968112.5984
 -28877947.62148 -22487140.82846  20897557.3284                   20897558.4614
 -20928550.64548 -16289557.20746  21928609.6954                   21928614.4024
  -6447044.96547  -5006981.87544  23426777.0314                   23426781.7274
 -13405959.66847 -10429639.92245  22579302.8594                   22579306.0594
 11  9 27  0 16 30.0000000  0  9G29G12G02G30G21G05G25G15G26
 -19502540.83248 -15181773.92246  21560638.4224                   21560640.2814
 -21308709.72347 -16586602.45345  22620084.1254                   22620087.1454
 -27708621.50447 -21572798.02345  22232214.4694                   22232215.3874
 -11575744.20747  -9003667.32845  22707243.9774                   22707247.8674
   -373375.25446   -281352.37942  24952993.8754                   24952997.8714
 -28845067.75048 -22461520.12146  20903814.1564                   20903815.1334
 -20906190.40248 -16272133.62146  21932865.0234                   21932870.0824
  -6565098.96547  -5098971.65644  23404311.9454                   23404316.5354
 -13510060.87547 -10510757.54345  22559492.7424                   22559496.3404
 11  9 27  0 17  0.0000000  0  9G29G12G02G30G21G05G25G15G26
 -19594815.57048 -15253676.21946  21543079.0704                   21543080.8404
 -21242402.57447 -16534934.58245  22632701.8054                   22632704.6564
 -27683652.62147 -21553341.72745  22236966.2664                   22236967.2974
 -11595450.63747  -9019022.94545  22703493.4774                   22703497.1644
   -452787.10546   -343231.57043  24937882.5864                   24937886.0124
 -28811784.58648 -22435585.15646  20910147.5084                   20910148.7974
 -20883344.31648 -16254331.47346  21937212.1804                   21937216.8914
  -6683072.57447  -5190898.78544  23381862.0394                   23381866.8094
 -13613827.05147 -10591614.09045  22539746.3364                   22539750.0164
 11  9 27  0 17 30.0000000  0  9G29G12G02G30G21G05G25G15G26
 -19686836.30948 -15325380.59446  21525567.7424                   21525569.6174
 -21175865.17647 -16483087.30145  22645363.4144                   22645366.5434
 -27658568.35948 -21533795.51645  22241739.7814                   22241740.2624
 -11614572.06647  -9033922.68744  22699855.3054                   22699858.9804
   -532185.99246   -405100.67643  24922772.0004                   24922776.9884
 -28778100.27748 -22409337.62146  20916557.9384                   20916558.8244
 -20860014.67648 -16236152.52046  21941652.2034                   21941656.5084
  -6800961.80147  -5282760.17644  23359428.2894                   23359432.9144
 -13717254.16447 -10672206.44545  22520065.6724                   22520068.8324
 11  9 27  0 18  0.0000000  0  9G29G12G02G30G21G05G25G15G26
 -19778601.00048 -15396885.44546  21508105.5004                   21508107.1604
 -21109101.03547 -16431063.31645  22658068.2974                   22658071.2934
 -27633368.54748 -21514159.24645  22246534.8984                   22246535.8204
 -11633109.48447  -9048367.34045  22696327.5944                   22696331.0704
   -611572.25846   -466959.90243  24907664.8984                   24907669.5594
 -28744017.22348 -22382779.38746  20923043.6644                   20923044.6454
 -20836203.82448 -16217598.59046  21946182.9924                   21946187.2464
  -6918763.69947  -5374553.52044  23337010.7814                   23337015.5234
 -13820338.99247 -10752532.08645  22500448.3054                   22500452.3324
 11  9 27  0 18 30.0000000  0  9G29G12G02G30G21G05G25G15G26
 -19870105.86748 -15468187.82446  21490692.4454                   21490694.3554
 -21042111.64547 -16378863.84445  22670815.7974                   22670818.8984
 -27608052.00848 -21494432.01645  22251352.3134                   22251353.2734
 -11651062.48047  -9062356.61745  22692911.7584                   22692914.5984
   -690945.40646   -528808.92642  24892561.3444                   24892565.3244
 -28709536.58248 -22355911.34046  20929605.2274                   20929605.7504
 -20811912.81248 -16198670.52746  21950805.1484                   21950809.8874
  -7036474.30547  -5466275.73044  23314611.1094                   23314615.7274
 -13923076.40247 -10832587.02045  22480898.0004                   22480901.8874
 11  9 27  0 19  0.0000000  0  9G29G12G02G30G21G05G25G15G26
 -19961347.26648 -15539284.89146  21473329.7894                   21473331.6524
 -20974898.91447 -16326490.32045  22683606.1884                   22683608.9454
 -27582616.69548 -21474612.23445  22256192.8444                   22256193.4844
 -11668430.57847  -9075890.10945  22689606.2664                   22689609.6884
   -770304.80546   -590647.20343  24877459.8674                   24877463.7584
 -28674659.40248 -22328734.29746  20936241.7814                   20936243.1954
 -20787142.58648 -16179369.03146  21955519.2114                   21955523.4654
  -7154088.96547  -5557923.19544  23292229.4224                   23292233.7814
 -14025461.63347 -10912367.52345  22461414.5164                   22461417.7234
 11  9 27  0 19 30.0000000  0  9G29G12G02G30G21G05G25G15G26
 -20052325.82448 -15610177.14546  21456016.8524                   21456019.1644
 -20907468.60547 -16273947.26245  22696437.7584                   22696440.7734
 -27557065.43448 -21454702.10945  22261054.9534                   22261055.7074
 -11685217.54347  -9088970.78545  22686411.7734                   22686415.0704
   -849653.35946   -652477.06643  24862359.7734                   24862363.8594
 -28639390.64148 -22301252.13346  20942953.2194                   20942954.0004
 -20761898.23048 -16159698.09846  21960322.6174                   21960327.4264
  -7271607.58647  -5649495.82844  23269866.5234                   23269870.2584
 -14127493.42647 -10991872.64845  22441998.4694                   22442001.6484
 11  9 27  0 20  0.0000000  0  9G29G12G02G30G21G05G25G15G26
 -20143039.45348 -15680862.94146  21438754.7344                   21438756.6094
 -20839823.97747 -16221237.19545  22709310.4384                   22709313.1724
 -27531398.15248 -21434701.57445  22265939.0944                   22265940.3444
 -11701424.62547  -9101599.60245  22683327.5084                   22683331.1954
   -928992.46546   -714299.53943  24847261.7814                   24847266.5124
 -28603733.15648 -22273467.05546  20949738.6414                   20949739.3594
 -20736182.44148 -16139659.81246  21965216.0944                   21965220.8954
  -7389027.36747  -5740991.44944  23247521.6024                   23247525.9844
 -14229168.73847 -11071099.96145  22422650.4454                   22422652.9964
 11  9 27  0 20 30.0000000  0  9G29G12G02G30G21G05G25G15G26
 -20233485.17648 -15751339.97746  21421543.3204                   21421545.0784
 -20771967.79347 -16168362.27745  22722222.8834                   22722225.6764
 -27505614.12947 -21414610.06645  22270845.7974                   22270846.2974
 -11717052.40247  -9113777.00045  22680353.7034                   22680356.8014
  -1008321.40046   -776114.07043  24832165.7344                   24832170.7234
 -28567688.92248 -22245380.62146  20956597.8054                   20956598.4774
 -20709997.13748 -16119255.66446  21970199.2664                   21970203.5044
  -7506344.90647  -5832407.40244  23225196.8284                   23225200.6294
 -14330483.26647 -11150046.16845  22403370.6024                   22403373.7424
 11  9 27  0 21  0.0000000  0  9G29G12G02G30G21G05G25G15G26
 -20323660.85548 -15821606.60546  21404383.0474                   21404384.8484
 -20703902.57447 -16115324.48045  22735175.7504                   22735178.0354
 -27479713.09447 -21394427.37545  22275774.2114                   22275774.7074
 -11732101.84447  -9125503.75045  22677489.6724                   22677493.0354
  -1087640.78946   -837921.12943  24817072.2894                   24817076.1484
 -28531260.09848 -22216994.48446  20963529.7664                   20963530.4774
 -20683344.63348 -16098487.45746  21975271.0004                   21975276.0004
  -7623557.06247  -5923741.26244  23202891.6414                   23202895.4264
 -14431433.47347 -11228708.47745  22384160.3754                   22384163.4384
 11  9 27  0 21 30.0000000  0  9G29G12G02G30G21G05G25G15G26
 -20413565.01648 -15891661.65246  21387275.3134                   21387276.6294
 -20635633.07047 -16062127.48845  22748166.7664                   22748169.4574
 -27453695.54347 -21374153.91045  22280725.0164                   22280726.4344
 -11746574.92647  -9136781.40245  22674735.7344                   22674739.5514
  -1166952.56646   -899722.28943  24801979.5784                   24801982.7194
 -28494450.06248 -22188311.30546  20970534.3284                   20970535.2464
 -20656228.35548 -16077357.86346  21980430.8524                   21980435.7704
  -7740661.65647  -6014991.30945  23180607.4304                   23180611.2424
 -14532016.53147 -11307084.69545  22365019.7894                   22365023.2664
 11  9 27  0 22  0.0000000  0  9G29G12G02G30G21G05G25G15G26
 -20503195.79748 -15961503.68046  21370218.7194                   21370220.1954
 -20567162.95347 -16008774.18745  22761195.6954                   22761198.8094
 -27427562.16448 -21353790.19945  22285698.3674                   22285699.0204
 -11760473.38347  -9147611.27745  22672090.5004                   22672094.0394
  -1246257.11346   -961517.82443  24786888.1334                   24786891.3444
 -28457261.77048 -22159333.37946  20977611.1804                   20977611.8674
 -20628651.33648 -16055869.25446  21985678.5084                   21985683.4844
  -7857656.45347  -6106155.81645  23158343.7114                   23158348.0634
 -14632229.59047 -11385172.61345  22345949.8984                   22345952.8324
 11  9 27  0 22 30.0000000  0  9G29G12G02G30G21G05G25G15G26
 -20592549.20348 -16031129.57846  21353215.4774                   21353216.9654
 -20498493.38347 -15955265.45345  22774262.8134                   22774266.2814
 -27401310.91448 -21333334.62945  22290693.9924                   22290694.4024
 -11773796.48047  -9157992.82045  22669555.0474                   22669558.2624
  -1325553.13356  -1023306.67653  24771798.7664                   24771802.1454
 -28419695.78547 -22130061.14546  20984759.7814                   20984759.9804
 -20600614.13348 -16034022.05946  21991013.6174                   21991018.5234
  -7974536.46147  -6197230.84845  23136102.0944                   23136106.6294
 -14732067.30147 -11462968.05145  22326951.1484                   22326953.9454
 11  9 27  0 23  0.0000000  0  9G29G12G02G30G21G05G25G15G26
 -20681622.06248 -16100536.87146  21336265.3674                   21336266.7584
 -20429626.68447 -15901603.12545  22787368.1414                   22787371.1954
 -27374940.58647 -21312786.28945  22295711.5394                   22295712.5784
 -11786544.75047  -9167926.46144  22667129.4224                   22667132.2074
  -1404841.12946  -1085089.28143  24756710.2814                   24756714.1134
 -28381754.17247 -22100496.22346  20991979.6094                   20991980.5634
 -20572118.70348 -16011817.81646  21996436.4774                   21996441.3594
  -8091297.93447  -6288213.54745  23113882.7734                   23113886.7584
 -14831525.28547 -11540467.60545  22308024.8364                   22308027.9304
 11  9 27  0 23 30.0000000  0  9G29G12G02G30G21G05G25G15G26
 -20770411.37548 -16169723.22746  21319369.5164                   21319370.6134
 -20360564.62547 -15847788.56245  22800510.4844                   22800513.4414
 -27348450.26647 -21292144.44545  22300752.3914                   22300753.2894
 -11798718.65247  -9177412.52744  22664812.4924                   22664815.9024
  -1484120.05546  -1146864.82443  24741623.6094                   24741627.5904
 -28343438.30948 -22070639.66846  20999270.7734                   20999271.5704
 -20543166.73448 -15989257.80946  22001945.8364                   22001950.4384
  -8207937.19547  -6379101.02345  23091687.1724                   23091691.3914
 -14930599.21547 -11617667.88745  22289171.5704                   22289174.3284
 11  9 27  0 24  0.0000000  0  9G29G12G02G30G21G05G25G15G26
 -20858915.04348 -16238687.00846  21302527.5704                   21302528.5124
 -20291311.43447 -15793825.06645  22813688.8284                   22813692.4454
 -27321839.54747 -21271408.77745  22305816.3754                   22305816.7624
 -11810319.57447  -9186452.12945  22662604.9924                   22662608.6604
  -1563391.47746  -1208634.54343  24726538.2034                   24726542.6764
 -28304751.02048 -22040493.70746  21006633.1644                   21006633.3984
 -20513760.92248 -15966344.15646  22007541.7114                   22007546.2114
  -8324451.16447  -6469890.87545  23069514.3834                   23069518.7074
 -15029285.51247 -11694566.12145  22270391.9774                   22270394.6214
 11  9 27  0 24 30.0000000  0  9G29G12G02G30G21G05G25G15G26
 -20947134.32448 -16307429.19546  21285739.6564                   21285741.3094
 -20221873.57047 -15739717.67645  22826902.2034                   22826906.0864
 -27295111.87947 -21250582.00045  22310902.9614                   22310903.2974
 -11821352.23847  -9195048.93445  22660505.3054                   22660509.0824
  -1642659.35246  -1270401.52743  24711454.8134                   24711458.0314
 -28265698.07048 -22010062.82046  21014064.2664                   21014065.1334
 -20483907.36748 -15943081.62546  22013222.5704                   22013226.7544
  -8440840.29747  -6560583.48845  23047366.5234                   23047370.0594
 -15127584.50847 -11771162.57445  22251686.2194                   22251689.3674
 11  9 27  0 25  0.0000000  0 10G29G12G02G30G21G05G25G15G26G18
 -21035069.10247 -16375949.69546  21269005.9844                   21269007.6454
 -20152255.95747 -15685470.22345  22840150.1414                   22840153.7894
 -27268269.44147 -21229665.77345  22316010.7814                   22316011.5394
 -11831819.92247  -9203205.50045  22658513.3524                   22658516.3714
  -1721925.46546  -1332167.10243  24696370.3134                   24696374.2774
 -28226284.06648 -21979350.59046  21021564.3134                   21021565.3524
 -20453610.60547 -15919473.73046  22018987.7894                   22018992.3914
  -8557103.83647  -6651178.20345  23025242.0474                   23025245.8164
 -15225494.52047 -11847455.91445  22233054.1094                   22233057.5784
   1410201.35956   1107343.82853  24634549.5314                   24634556.0274
 11  9 27  0 25 30.0000000  0 10G29G12G02G30G21G05G25G15G26G18
 -21122721.83247 -16444250.41046  21252326.3984                   21252327.8134
 -20082466.86347 -15631089.14845  22853430.9224                   22853433.9454
 -27241316.80147 -21208663.68045  22321139.5314                   22321140.4384
 -11841729.10547  -9210926.87145  22656627.8444                   22656630.9454
  -1801195.75446  -1393935.93743  24681285.5004                   24681288.9804
 -28186516.54747 -21948362.89846  21029132.0164                   21029132.9884
 -20422878.50048 -15895526.60246  22024835.7344                   22024840.3954
  -8673244.17247  -6741676.93445  23003141.0004                   23003144.1564
 -15323017.16047 -11923447.40645  22214495.7894                   22214498.9494
   1298777.30946   1020520.35943  24613345.9614                   24613352.4224
 11  9 27  0 26  0.0000000  0 10G29G12G02G30G21G05G25G15G26G18
 -21210096.44947 -16512334.42646  21235699.3754                   21235700.7304
 -20012515.57847 -15576581.68745  22866741.9614                   22866745.1454
 -27214260.02747 -21187580.43445  22326287.7344                   22326288.8094
 -11851087.37147  -9218218.93745  22654847.3914                   22654849.9964
  -1880477.23846  -1455713.51643  24666198.6954                   24666202.0354
 -28146404.30147 -21917106.58246  21036765.2274                   21036765.6214
 -20391719.66847 -15871246.96546  22030765.1484                   22030769.7154
  -8789263.91847  -6832081.72345  22981063.0164                   22981066.3014
 -15420155.03547 -11999139.09045  22196011.4844                   22196014.0864
   1187515.54746    933823.35543  24592172.9774                   24592179.7154
 11  9 27  0 26 30.0000000  0 10G29G12G02G30G21G05G25G15G26G18
 -21297186.57448 -16580196.75046  21219126.6564                   21219127.7894
 -19942400.85247 -15521946.88745  22880084.7894                   22880087.7424
 -27187094.41047 -21166412.37145  22331457.2664                   22331458.2344
 -11859891.64547  -9225079.33645  22653171.3834                   22653174.5704
  -1959766.33246  -1517497.03543  24651110.2424                   24651113.3524
 -28105945.43448 -21885580.16846  21044464.3674                   21044465.1134
 -20360132.52348 -15846633.57846  22036775.7894                   22036780.6454
  -8905155.63747  -6922386.73844  22959009.7894                   22959012.8284
 -15516900.62947 -12074525.08245  22177601.7344                   22177603.7734
   1076421.45746    847257.00843  24571032.2194                   24571039.2774
 11  9 27  0 27  0.0000000  0 10G29G12G02G30G21G05G25G15G26G18
 -21383983.65647 -16647830.72746  21202609.7034                   21202610.7344
 -19872119.94547 -15467182.57445  22893458.8364                   22893461.9304
 -27159813.67647 -21145154.59845  22336648.8134                   22336649.6024
 -11868137.34047  -9231504.50045  22651602.1644                   22651605.1524
  -2039057.62546  -1579282.25443  24636021.4454                   24636024.4964
 -28065136.14148 -21853780.69146  21052229.7584                   21052230.7304
 -20328113.64547 -15821683.78546  22042868.7194                   22042873.3524
  -9020910.64847  -7012585.21145  22936981.4534                   22936985.0044
 -15613244.18747 -12149597.81245  22159267.1094                   22159270.0864
    965501.96546    760826.69543  24549924.9694                   24549931.5394
 11  9 27  0 27 30.0000000  0 10G29G12G02G30G21G05G25G15G26G18
 -21470485.90647 -16715234.97346  21186148.3984                   21186150.1024
 -19801676.73047 -15412291.78545  22906863.3914                   22906866.7664
 -27132418.35247 -21123807.54745  22341861.4774                   22341862.6764
 -11875826.55147  -9237496.00845  22650138.4694                   22650142.4024
  -2118351.26246  -1641069.26643  24620931.4694                   24620935.2934
 -28023979.74248 -21821710.73846  21060061.5634                   21060062.8244
 -20295666.34047 -15796400.14146  22049043.5394                   22049047.6214
  -9136526.55947  -7102675.32045  22914980.9774                   22914983.9694
 -15709183.01247 -12224355.16845  22141010.7114                   22141013.5274
    854758.05546    674533.21943  24528851.0084                   24528856.9264
 11  9 27  0 28  0.0000000  0 10G29G12G02G30G21G05G25G15G26G18
 -21556693.12148 -16782409.31646  21169744.0634                   21169745.3524
 -19731075.88347 -15357278.16045  22920298.7814                   22920301.8634
 -27104909.64147 -21102372.11745  22347096.4924                   22347096.9654
 -11882962.39847  -9243056.33645  22648781.2734                   22648784.5164
  -2197649.69946  -1702860.02743  24605841.3444                   24605845.6684
 -27982480.34448 -21789373.51646  21067958.6954                   21067959.5784
 -20262794.91448 -15770786.02046  22055298.3834                   22055303.1524
  -9252001.89846  -7192655.87545  22893006.4454                   22893009.9304
 -15804715.06247 -12298795.55145  22122831.7424                   22122834.0394
    744189.40246    588376.25043  24507809.7194                   24507815.8204
 11  9 27  0 28 30.0000000  0 10G29G12G02G30G21G05G25G15G26G18
 -21642597.17248 -16849347.42246  21153396.9614                   21153398.1914
 -19660315.07847 -15302139.89845  22933763.5314                   22933766.8954
 -27077281.72747 -21080843.83645  22352353.6804                   22352354.4024
 -11889540.75447  -9248182.27345  22647529.5084                   22647532.3364
  -2276948.08646  -1764650.79743  24590751.3054                   24590754.7934
 -27940635.17648 -21756766.84446  21075921.3674                   21075922.8164
 -20229496.56247 -15744839.22346  22061635.1564                   22061639.5664
  -9367327.90246  -7282520.07045  22871060.4454                   22871064.0004
 -15899831.49647 -12372912.07045  22104731.5314                   22104734.2974
    633802.49646    502360.89843  24486803.5394                   24486809.7034
 11  9 27  0 29  0.0000000  0 10G29G12G02G30G21G05G25G15G26G18
 -21728197.16448 -16916048.60246  21137107.5944                   21137108.9964
 -19589398.21947 -15246880.06245  22947258.9064                   22947262.0944
 -27049535.87947 -21059223.62145  22357633.6254                   22357634.5634
 -11895564.26247  -9252875.83245  22646382.7504                   22646385.7934
  -2356248.21546  -1826442.87943  24575661.4534                   24575664.9184
 -27898447.23848 -21723893.08246  21083949.8594                   21083950.6294
 -20195775.08647 -15718562.72346  22068051.8914                   22068056.4454
  -9482502.93747  -7372266.63745  22849143.5554                   22849146.6174
 -15994529.99247 -12446702.94945  22086710.8524                   22086712.9494
    523597.49246    416487.28543  24465831.3914                   24465837.7344
 11  9 27  0 29 30.0000000  0 10G29G12G02G30G21G05G25G15G26G18
 -21813489.27348 -16982509.87946  21120876.9304                   21120878.3674
 -19518327.72747 -15191500.49645  22960783.1484                   22960787.1094
 -27021670.34047 -21037510.16045  22362935.9844                   22362936.7584
 -11901033.23447  -9257137.28945  22645342.4224                   22645345.1724
  -2435548.66046  -1888235.22343  24560570.7974                   24560573.6134
 -27855918.54748 -21690753.80546  21092042.6644                   21092043.5004
 -20161632.01648 -15691957.70746  22074549.1724                   22074553.3484
  -9597522.60247  -7461892.09445  22827255.5474                   22827258.5904
 -16088805.76247 -12520164.42645  22068770.9454                   22068773.3834
    413576.92246    330757.34043  24444895.0784                   24444901.3874
 11  9 27  0 30  0.0000000  0 10G29G12G02G30G21G05G25G15G26G18
 -21898473.05548 -17048730.90246  21104704.9694                   21104706.3404
 -19447108.42247 -15136004.95345  22974336.0554                   22974339.1884
 -26993686.54347 -21015704.55145  22368261.3984                   22368262.5554
 -11905950.98447  -9260969.22344  22644406.2034                   22644408.9104
  -2514853.09846  -1950030.69943  24545479.5554                   24545482.0164
 -27813053.17248 -21657352.18046  21100199.5394                   21100200.6374
 -20127071.84448 -15665027.67246  22081125.7664                   22081130.2074
  -9712385.68747  -7551395.57845  22805397.8134                   22805400.1024
 -16182657.39847 -12593295.41045  22050910.9144                   22050913.3134
    303740.15246    245170.62943  24423994.2894                   24424000.5944
 11  9 27  0 30 30.0000000  0 10G29G12G02G30G21G05G25G15G26G18
 -21983143.60548 -17114707.84846  21088592.8284                   21088593.3754
 -19375740.62947 -15080393.72345  22987916.6094                   22987919.6684
 -26965581.84447 -20993804.73445  22373609.2194                   22373610.2344
 -11910316.44947  -9264370.80945  22643574.8834                   22643578.6054
  -2594158.59046  -2011827.02043  24530388.1724                   24530390.4534
 -27769850.89548 -21623688.02346  21108420.5314                   21108421.7464
 -20092094.66048 -15637772.68746  22087781.9844                   22087786.6524
  -9827086.65647  -7640772.73045  22783570.5084                   22783573.0904
 -16276078.48047 -12666090.88745  22033133.4064                   22033135.2934
    194090.92246    159730.05142  24403127.0554                   24403133.3834
 11  9 27  0 31  0.0000000  0 10G29G12G02G30G21G05G25G15G26G18
 -22067497.88348 -17180438.33246  21072540.4614                   21072541.4614
 -19304226.83247 -15024668.72345  23001525.1334                   23001528.4494
 -26937355.23847 -20971809.91045  22378980.8134                   22378981.5944
 -11914130.39147  -9267342.64144  22642849.2504                   22642852.2814
  -2673464.88346  -2073624.00043  24515296.2974                   24515299.2114
 -27726313.29748 -21589762.57846  21116705.5704                   21116706.7734
 -20056702.51647 -15610194.37146  22094516.7274                   22094521.1564
  -9941621.64147  -7730020.52745  22761774.9384                   22761777.7074
 -16369065.35947 -12738548.02045  22015438.4924                   22015441.4384
     84631.28945     74437.23442  24382297.7034                   24382303.5634
 11  9 27  0 31 30.0000000  0 10G29G12G02G30G21G05G25G15G26G18
 -22151536.46148 -17245922.82046  21056548.1174                   21056549.3524
 -19232573.10547 -14968834.65645  23015160.0864                   23015163.9734
 -26909009.11747 -20949721.96145  22384374.9064                   22384375.3674
 -11917397.48447  -9269888.34444  22642228.1334                   22642230.7384
  -2752775.30946  -2135424.17243  24500204.1484                   24500207.3014
 -27682445.99248 -21555580.20746  21125053.2974                   21125054.0004
 -20020901.09448 -15582297.12946  22101329.7194                   22101333.9414
 -10055990.28947  -7819138.70345  22740010.6644                   22740013.5824
 -16461617.12147 -12810666.10545  21997825.8754                   21997828.6054
    -24640.68046    -10709.37942  24361504.1414                   24361509.0904
 11  9 27  0 32  0.0000000  0 10G29G12G02G30G21G05G25G15G26G18
 -22235253.50848 -17311156.76246  21040617.7194                   21040619.0204
 -19160778.80547 -14912891.07445  23028822.0554                   23028825.7544
 -26880539.80147 -20927538.01645  22389792.5314                   22389792.7114
 -11920115.84047  -9272006.46545  22641710.9224                   22641713.1214
  -2832087.23446  -2197225.52343  24485111.6644                   24485114.4414
 -27638248.01248 -21521140.17646  21133463.9534                   21133464.8244
 -19984689.60247 -15554080.34846  22108220.1024                   22108224.6024
 -10170186.25847  -7908122.34445  22718280.8674                   22718283.3134
 -16553726.96547 -12882439.84445  21980298.6024                   21980300.6484
   -133720.10246    -95705.95742  24340746.6024                   24340751.4924
 11  9 27  0 32 30.0000000  0 10G29G12G02G30G21G05G25G15G26G18
 -22318649.62147 -17376140.63346  21024747.7734                   21024748.7544
 -19088850.31647 -14856842.92245  23042510.2034                   23042513.6054
 -26851949.76247 -20905259.99645  22395233.1884                   22395233.4614
 -11922289.97747  -9273700.51245  22641296.8754                   22641299.5234
  -2911403.43046  -2259030.22343  24470018.2974                   24470021.2384
 -27593724.51648 -21486446.48046  21141936.2814                   21141936.8794
 -19948073.81248 -15525548.54746  22115187.9534                   22115192.5474
 -10284209.61347  -7996971.46945  22696582.2114                   22696585.0984
 -16645394.64547 -12953869.06245  21962854.6414                   21962856.5904
   -242608.54346   -180553.79742  24320025.6484                   24320031.1334
 11  9 27  0 33  0.0000000  0 10G29G12G02G30G21G05G25G15G26G18
 -22401719.99648 -17440870.67646  21008939.8524                   21008940.8524
 -19016787.90647 -14800690.43445  23056223.0944                   23056226.7154
 -26823236.25847 -20882885.77745  22400697.2114                   22400696.9414
 -11923918.96947  -9274969.80544  22640986.6724                   22640989.1764
  -2990722.73046  -2320837.33243  24454923.9144                   24454926.7344
 -27548875.64548 -21451499.26246  21150470.7194                   21150471.9414
 -19911053.91447 -15496701.83646  22122232.9844                   22122237.2154
 -10398054.43447  -8085681.46945  22674917.9384                   22674921.5314
 -16736614.06647 -13024948.96945  21945495.7344                   21945497.9064
   -351302.70746   -265250.23442  24299341.6094                   24299347.1134
 11  9 27  0 33 30.0000000  0 10G29G12G02G30G21G05G25G15G26G18
 -22484465.57447 -17505347.64546  20993193.7734                   20993195.0004
 -18944597.85547 -14744438.46545  23069960.3444                   23069963.7464
 -26794402.15647 -20860417.58245  22406183.8984                   22406184.2154
 -11925007.58247  -9275818.00445  22640779.8754                   22640781.8714
  -3070048.12946  -2382649.18444  24439828.0394                   24439831.4574
 -27503707.06248 -21416302.91846  21159066.2114                   21159066.7424
 -19873635.72747 -15467544.78546  22129353.0704                   22129357.5514
 -10511720.71947  -8174252.37945  22653288.2814                   22653290.4414
 -16827384.68447 -13095679.16045  21928222.4064                   21928224.9844
   -459804.07446   -349796.43443  24278694.6724                   24278699.3014
 11  9 27  0 34  0.0000000  0 10G29G12G02G30G21G05G25G15G26G18
 -22566883.73047 -17569569.47346  20977509.7894                   20977511.6334
 -18872283.40247 -14688089.55545  23083720.9614                   23083724.4304
 -26765447.20347 -20837855.20745  22411693.3754                   22411693.4844
 -11925557.60947  -9276246.53944  22640674.9224                   22640677.1214
  -3149380.10246  -2444466.22743  24424732.3054                   24424735.1844
 -27458221.14548 -21380859.29746  21167721.5474                   21167722.4064
 -19835822.14847 -15438079.63346  22136548.9534                   22136553.0164
 -10625205.26247  -8262681.66445  22631692.3444                   22631695.4694
 -16917703.31247 -13166057.16045  21911035.5784                   21911037.6454
   -568111.63746   -434191.61743  24258083.2974                   24258088.9144
 11  9 27  0 34 30.0000000  0 10G29G12G02G30G21G05G25G15G26G18
 -22648970.50048 -17633533.08246  20961889.3834                   20961890.2854
 -18799845.44947 -14631644.42245  23097505.6644                   23097509.5124
 -26736369.07847 -20815196.85945  22417227.1334                   22417227.2854
 -11925568.85547  -9276255.23845  22640672.5864                   22640675.4694
  -3228717.18046  -2506287.19943  24409634.6024                   24409637.6454
 -27412418.26248 -21345168.69946  21176437.7734                   21176438.0704
 -19797614.06647 -15408307.08646  22143819.3754                   22143823.5354
 -10738503.64847  -8350965.87945  22610132.1174                   22610135.3094
 -17007564.58647 -13236078.77345  21893935.3984                   21893937.8594
   -676222.47746   -518433.52043  24237510.8134                   24237515.6214
 11  9 27  0 35  0.0000000  0 10G29G12G02G30G21G05G25G15G26G18
 -22730722.39548 -17697235.75446  20946332.3134                   20946333.1024
 -18727286.10947 -14575104.69145  23111313.6174                   23111316.5784
 -26707166.46147 -20792441.51645  22422784.3284                   22422784.5704
 -11925041.94547  -9275844.61345  22640772.6564                   22640776.2194
  -3308058.87146  -2568111.79743  24394536.3984                   24394539.2344
 -27366300.14848 -21309232.46946  21185213.4694                   21185214.3524
 -19759013.16847 -15378228.45745  22151165.0474                   22151169.6644
 -10851611.10947  -8439101.34045  22588608.8444                   22588611.1094
 -17096964.21547 -13305740.66845  21876922.9534                   21876924.7344
   -784134.31646   -602520.39543  24216975.5944                   24216980.0124
 11  9 27  0 35 30.0000000  0 10G29G12G02G30G21G05G25G15G26G18
 -22812138.85547 -17760677.05946  20930839.2894                   20930840.3244
 -18654610.35947 -14518474.25045  23125143.2344                   23125146.3554
 -26677840.61747 -20769590.15645  22428364.4224                   22428364.9614
 -11923980.46947  -9275017.46144  22640974.7974                   22640977.0944
  -3387406.80946  -2629941.25443  24379437.2814                   24379439.6174
 -27319870.79348 -21273053.70746  21194048.5784                   21194049.3284
 -19720024.16047 -15347847.39545  22158584.2424                   22158589.0204
 -10964526.55147  -8527087.17245  22567120.8204                   22567124.0514
 -17185900.64547 -13375041.62945  21859998.6414                   21860000.9414
   -891847.68046   -686452.57443  24196477.8524                   24196483.2154
 11  9 27  0 36  0.0000000  0 10G29G12G02G30G21G05G25G15G26G18
 -22893218.34847 -17823855.80146  20915410.5234                   20915411.3954
 -18581821.67247 -14461755.80545  23138994.2894                   23138997.5824
 -26648392.02347 -20746643.15245  22433968.2584                   22433968.5554
 -11922386.87547  -9273775.68044  22641278.1954                   22641280.2304
  -3466762.53946  -2691776.80143  24364336.2194                   24364338.4454
 -27273133.46948 -21236634.99246  21202942.6724                   21202943.2544
 -19680650.50847 -15317166.62145  22166076.8834                   22166081.0514
 -11077247.39847  -8614921.38745  22545671.0314                   22545673.5984
 -17274371.42647 -13443979.74645  21843162.9144                   21843165.5044
   -999362.15246   -770229.82443  24176018.9064                   24176023.2624
 11  9 27  0 36 30.0000000  0 10G29G12G02G30G21G05G25G15G26G18
 -22973956.93448 -17886768.89846  20900046.4924                   20900046.6644
 -18508921.86747 -14404950.78145  23152867.3594                   23152870.1564
 -26618818.76647 -20723599.00845  22439595.7344                   22439596.5984
 -11920261.50447  -9272119.51244  22641682.5704                   22641684.5314
  -3546125.30546  -2753617.74243  24349233.6564                   24349236.2114
 -27226089.13748 -21199977.04346  21211894.5704                   21211895.5594
 -19640893.50447 -15286187.12146  22173642.2344                   22173646.5234
 -11189769.17647  -8702600.47745  22524258.3594                   22524261.2464
 -17362371.30548 -13512550.93045  21826417.2034                   21826419.3984
  -1106675.02746   -853849.99643  24155597.6334                   24155601.9224
 11  9 27  0 37  0.0000000  0 10G29G12G02G30G21G05G25G15G26G18
 -23054352.93048 -17949415.05546  20884747.1724                   20884748.1604
 -18435914.79347 -14348062.16444  23166759.3524                   23166762.5944
 -26589121.52747 -20700458.25445  22445247.0004                   22445247.6564
 -11917606.93047  -9270050.99244  22642187.5474                   22642190.3754
  -3625495.95346  -2815464.89543  24334130.5234                   24334132.0984
 -27178741.25448 -21163082.57446  21220904.5164                   21220905.3164
 -19600756.95747 -15254911.87545  22181280.2504                   22181284.9184
 -11302089.93047  -8790122.94945  22502884.6954                   22502887.0164
 -17449898.05547 -13580753.43745  21809761.5864                   21809763.7304
  -1213786.38746   -937313.13343  24135214.3054                   24135218.1954
 11  9 27  0 37 30.0000000  0 10G29G12G02G30G21G05G25G15G26G18
 -23134403.11748 -18011791.74646  20869513.9064                   20869515.1294
 -18362802.31247 -14291091.40644  23180672.7584                   23180675.4344
 -26559298.50447 -20677219.49645  22450921.9454                   22450922.9104
 -11914423.74647  -9267570.58644  22642793.1254                   22642795.9574
  -3704873.93446  -2877317.68443  24319024.6954                   24319026.6524
 -27131090.70748 -21125952.27046  21229972.2504                   21229972.6094
 -19560242.35547 -15223342.04745  22188989.6484                   22188994.3054
 -11414205.09447  -8877485.21945  22481549.1884                   22481551.9574
 -17536947.03147 -13648583.65645  21793196.8444                   21793198.2584
  -1320693.52046  -1020617.13743  24114870.7814                   24114875.2584
 11  9 27  0 38  0.0000000  0 10G29G12G02G30G21G05G25G15G26G18
 -23214104.58648 -18073896.69946  20854347.1254                   20854348.3054
 -18289586.83247 -14234040.40644  23194605.2344                   23194608.2384
 -26529349.15647 -20653882.29745  22456621.6484                   22456622.0434
 -11910713.41447  -9264679.38744  22643499.2194                   22643502.0864
  -3784258.82846  -2939175.88343  24303918.2344                   24303921.0594
 -27083139.81648 -21088587.91846  21239096.8594                   21239097.5554
 -19519352.18047 -15191479.56645  22196770.6024                   22196775.2154
 -11526111.02047  -8964684.43445  22460254.4304                   22460256.6334
 -17623514.55947 -13716038.73045  21776723.3134                   21776725.2234
  -1427394.66046  -1103760.67243  24094565.6254                   24094570.4884
 11  9 27  0 38 30.0000000  0 10G29G12G02G30G21G05G25G15G26G18
 -23293456.89848 -18135729.58646  20839246.8834                   20839248.0984
 -18216273.37147 -14176913.05145  23208555.8674                   23208559.5354
 -26499274.74647 -20630447.65245  22462343.8754                   22462345.0514
 -11906479.68747  -9261380.37945  22644304.8284                   22644307.7894
  -3863652.96146  -3001041.27343  24288809.8914                   24288811.8244
 -27034892.97748 -21050992.96146  21248278.3204                   21248278.9224
 -19478091.16047 -15159328.12145  22204622.3674                   22204627.0664
 -11637806.51647  -9051719.71945  22438999.5394                   22439001.5864
 -17709599.07448 -13783117.43445  21760342.2974                   21760343.9694
  -1533890.50846  -1186744.23043  24074300.5164                   24074304.4104
 11  9 27  0 39  0.0000000  0 10G29G12G02G30G21G05G25G15G26G18
 -23372457.53548 -18197288.44146  20824213.7584                   20824214.7194
 -18142864.75447 -14119711.53144  23222525.6564                   23222528.0164
 -26469074.64547 -20606915.06245  22468090.4774                   22468091.3444
 -11901724.21547  -9257674.78944  22645209.7814                   22645212.7074
  -3943056.68346  -3062914.07844  24273700.2274                   24273702.4534
 -26986351.99248 -21013168.80546  21257515.0394                   21257516.0234
 -19436461.98047 -15126889.78545  22212544.4144                   22212548.6524
 -11749288.44147  -9138588.55945  22417784.9304                   22417786.8794
 -17795197.31647 -13849817.22345  21744052.6954                   21744055.0434
  -1640180.03946  -1269567.04343  24054073.9384                   24054078.9614
 11  9 27  0 39 30.0000000  0 10G29G12G02G30G21G05G25G15G26G18
 -21875682.48848 -17030970.13746  21109040.5704                   21109041.2384
 -16493947.42646 -12834840.89844  23536303.5474                   23536307.1414
 -24863330.52347 -19355685.85545  22773653.1484                   22773653.7034
 -10321030.06647  -8025965.05944  22946006.1484                   22946008.2974
  -2447048.67646  -1897193.38343  24558380.7034                   24558382.7194
 -25362102.26648 -19747519.63346  21566599.6334                   21566600.1764
 -17819049.91847 -13866568.69545  22520327.6094                   22520332.3444
 -10285130.80547  -7997686.31245  22696405.0554                   22696406.3444
 -16304884.07447 -12688534.02345  22027649.8754                   22027651.2114
   -170839.80946   -124626.37943  24333679.0004                   24333684.5474
 11  9 27  0 40  0.0000000  0 10G29G12G02G30G21G05G25G15G26G18
 -21953974.83247 -17091977.05946  21094142.0554                   21094142.8834
 -16420359.89146 -12777499.97344  23550306.9224                   23550310.3714
 -24832880.35247 -19331958.39545  22779448.3984                   22779448.3444
 -10315239.05147  -8021452.54745  22947107.7974                   22947110.3164
  -2526474.89546  -1959083.73843  24543266.3444                   24543268.5944
 -25312982.78548 -19709244.69146  21575946.4774                   21575947.3634
 -17776695.22747 -13833565.02345  22528387.4454                   22528392.1914
 -10396177.96947  -8084216.39845  22675273.2504                   22675274.7194
 -16389501.77047 -12754469.75845  22011547.7034                   22011549.0824
   -276715.75046   -207126.90243  24313532.2504                   24313535.8244
 11  9 27  0 40 30.0000000  0 10G29G12G02G30G21G05G25G15G26G18
 -22031906.73848 -17152703.12546  21079311.5314                   21079312.7704
 -16346684.40646 -12720090.50844  23564326.9924                   23564330.2974
 -24802301.98447 -19308131.05945  22785267.2894                   22785267.1724
 -10308930.46947  -8016536.74244  22948308.5864                   22948311.0044
  -2605909.98446  -2020981.00443  24528149.5474                   24528151.6414
 -25263574.92248 -19670745.03546  21585348.5634                   21585349.1174
 -17733979.38747 -13800279.94545  22536515.8984                   22536520.0824
 -10507000.50847  -8170571.43445  22654183.9304                   22654186.3444
 -16473621.82047 -12820017.71145  21995539.8364                   21995541.7194
   -382380.10946   -289462.57043  24293425.0704                   24293429.3834
 11  9 27  0 41  0.0000000  0 10G29G12G02G30G21G05G25G15G26G18
 -22109479.12548 -17213149.04346  21064550.1564                   21064550.8834
 -16272927.16046 -12662617.33644  23578362.5004                   23578365.9344
 -24771597.88747 -19284205.74245  22791110.2584                   22791109.8524
 -10302109.37147  -8011221.58244  22949606.1024                   22949609.0354
  -2685357.68446  -2082888.09043  24513030.1024                   24513033.6484
 -25213884.29748 -19632025.03946  21594804.0314                   21594805.3284
 -17690908.45347 -13766718.17245  22544712.0314                   22544716.4924
 -10617598.12947  -8256751.21545  22633138.1564                   22633139.6484
 -16557243.87547 -12885177.63745  21979627.2274                   21979628.8484
   -487835.03146   -371635.05543  24273356.9844                   24273360.3324
 11  9 27  0 41 30.0000000  0 10G29G12G02G30G21G05G25G15G26G18
 -22186689.14848 -17273312.59046  21049857.7424                   21049858.2074
 -16199090.80547 -12605082.52744  23592413.1334                   23592416.4964
 -24740767.77747 -19260182.24645  22796976.8284                   22796976.8134
 -10294777.41447  -8005508.35245  22951001.6254                   22951004.2584
  -2764817.95746  -2144804.99243  24497910.0234                   24497912.3914
 -25163913.31248 -19593086.59046  21604313.6804                   21604313.9574
 -17647484.91047 -13732881.63745  22552975.2034                   22552979.8984
 -10727967.56647  -8342753.18045  22612135.3364                   22612136.9884
 -16640364.44947 -12949946.77745  21963809.7734                   21963810.9224
   -593079.35546   -453643.39143  24253329.8134                   24253333.2664
 11  9 27  0 42  0.0000000  0 10G29G12G02G30G21G05G25G15G26G18
 -22263535.75048 -17333192.95746  21035234.4304                   21035234.9024
 -16125179.70746 -12547489.50844  23606478.5634                   23606481.4654
 -24709811.65247 -19236060.53545  22802868.0314                   22802867.8134
 -10286937.62947  -7999399.40244  22952493.2584                   22952496.5394
  -2844291.90646  -2206732.53143  24482786.3134                   24482788.6174
 -25113665.18748 -19553932.18046  21613875.5784                   21613876.2074
 -17603712.74647 -13698773.45745  22561304.7114                   22561309.3834
 -10838106.68447  -8428575.69145  22591176.1484                   22591177.9964
 -16722981.46147 -13014323.56245  21948087.8754                   21948089.7464
   -698112.84846   -535487.45743  24233342.1564                   24233345.7854
 11  9 27  0 42 30.0000000  0 10G29G12G02G30G21G05G25G15G26G18
 -22340015.52748 -17392787.47746  21020680.7664                   21020680.8444
 -16051195.67247 -12489839.60944  23620556.7814                   23620559.9844
 -24678728.25047 -19211839.66045  22808782.5944                   22808782.2934
 -10278590.95747  -7992895.45344  22954081.9384                   22954084.4964
  -2923779.04346  -2268670.32444  24467660.3674                   24467663.1454
 -25063141.32048 -19514562.91846  21623489.9454                   21623490.3014
 -17559593.87147 -13664395.10245  22569700.6334                   22569704.7854
 -10948011.48847  -8514215.60945  22570261.8834                   22570263.1484
 -16805090.71947 -13078304.67245  21932463.0084                   21932465.0554
   -802933.32846   -617165.52043  24213395.7114                   24213398.7234
 11  9 27  0 43  0.0000000  0 10G29G12G02G30G21G05G25G15G26G18
 -22416125.11748 -17452093.55146  21006196.9304                   21006197.6684
 -15977140.69146 -12432134.46145  23634649.7274                   23634652.4694
 -24647516.48047 -19187518.73845  22814722.2814                   22814721.4924
 -10269738.66447  -7985997.52044  22955765.9614                   22955768.7304
  -3003279.16846  -2330618.24643  24452531.6484                   24452533.6214
 -25012343.21148 -19474979.95746  21633156.4924                   21633157.1054
 -17515130.33647 -13629748.19145  22578161.6724                   22578165.6294
 -11057677.89547  -8599669.77745  22549392.5864                   22549394.8134
 -16886687.96147 -13141886.82845  21916935.7034                   21916936.9304
   -907538.84446   -698676.09443  24193489.6334                   24193492.7704
 11  9 27  0 43 30.0000000  0 10G29G12G02G30G21G05G25G15G26G18
 -22491861.80948 -17511109.05146  20991784.8674                   20991785.6024
 -15903016.87146 -12374375.64544  23648754.4614                   23648757.6454
 -24616175.30947 -19163096.99645  22820686.0314                   22820685.8674
 -10260382.09447  -7978706.64544  22957546.7584                   22957548.6334
  -3082791.62146  -2392575.79344  24437401.2974                   24437403.1054
 -24961272.41448 -19435184.51646  21642874.8594                   21642875.3324
 -17470324.40247 -13594834.46545  22586687.7274                   22586692.1374
 -11167101.91447  -8684935.05945  22528569.6884                   22528571.9414
 -16967769.29747 -13205066.96545  21901506.0784                   21901507.5314
  -1011928.01246   -780018.07043  24173625.4384                   24173628.5904
 11  9 27  0 44  0.0000000  0 10G29G12G02G30G21G05G25G15G26G18
 -22567224.18448 -17569832.88346  20977443.6954                   20977443.9454
 -15828828.57447 -12316566.59844  23662871.8364                   23662875.5434
 -24584705.59847 -19138575.10545  22826674.7344                   22826674.1054
 -10250524.48447  -7971025.34444  22959422.2734                   22959424.9344
  -3162317.81246  -2454544.02344  24422267.8594                   24422269.4344
 -24909932.65248 -19395179.49246  21652644.8134                   21652644.9144
 -17425180.25047 -13559657.21145  22595278.5314                   22595283.2304
 -11276281.69947  -8770010.04745  22507793.8914                   22507795.4224
 -17048333.32447 -13267844.02045  21886175.2504                   21886176.9694
  -1116100.67646   -861191.30543  24153801.1024                   24153805.3284
 11  9 27  0 44 30.0000000  0 10G29G12G02G30G21G05G25G15G26G18
 -22642210.60548 -17628263.75846  20963174.5004                   20963174.6564
 -15754579.36346 -12258710.10545  23677000.6174                   23677005.0204
 -24553107.15647 -19113952.91045  22832687.5554                   22832687.4064
 -10240168.34047  -7962955.57044  22961393.2034                   22961395.8244
  -3241858.04746  -2516523.18743  24407131.7194                   24407133.5944
 -24858326.69148 -19354967.03946  21662464.8364                   21662465.3014
 -17379701.10247 -13524218.89545  22603933.0004                   22603937.2504
 -11385214.53147  -8854892.59845  22487064.3984                   22487066.1174
 -17128376.67247 -13330215.33245  21870943.5634                   21870944.7234
  -1220055.83646   -942195.08243  24134018.8524                   24134023.4924
 11  9 27  0 45  0.0000000  0 10G29G12G02G30G21G05G25G15G26G18
 -22716818.03548 -17686399.32046  20948976.8054                   20948977.1764
 -15680271.34846 -12200807.77344  23691141.9064                   23691144.5784
 -24521379.22747 -19089229.80145  22838725.6334                   22838725.2664
 -10229315.38747  -7954498.66044  22963458.3594                   22963460.8984
  -3321412.43746  -2578513.37544  24391992.7974                   24391994.0434
 -24806456.87948 -19314548.99646  21672335.0554                   21672335.8324
 -17333889.63347 -13488521.63345  22612650.3284                   22612655.0664
 -11493896.78547  -8939579.90645  22466382.9694                   22466384.3094
 -17207896.09847 -13392178.38745  21855811.1724                   21855812.8594
  -1323792.52746  -1023028.59843  24114278.6564                   24114282.1054
 11  9 27  0 45 30.0000000  0 10G29G12G02G30G21G05G25G15G26G18
 -22791042.96548 -17744236.84046  20934852.3674                   20934852.6524
 -15605906.37547 -12142861.05544  23705292.6094                   23705296.0744
 -24489520.00847 -19064404.40645  22844787.2734                   22844787.4304
 -10217966.43047  -7945655.23444  22965617.6954                   22965620.7504
  -3400980.55946  -2640514.27744  24376851.2194                   24376852.4924
 -24754323.74648 -19273925.75846  21682255.6644                   21682256.3094
 -17287747.46147 -13452566.68745  22621430.9304                   22621435.7664
 -11602324.20347  -9024068.64545  22445749.5944                   22445751.3714
 -17286887.29747 -13453729.85245  21840779.3834                   21840781.2384
  -1427308.55546  -1103690.16843  24094579.5164                   24094583.4104
 11  9 27  0 46  0.0000000  0 10G29G12G02G30G21G05G25G15G26G18
 -22864885.45748 -17801776.36346  20920800.4694                   20920800.9734
 -15531489.54347 -12084873.96544  23719453.0474                   23719457.3954
 -24457531.27747 -19039478.09445  22850875.0004                   22850874.2734
 -10206125.64847  -7936428.59844  22967871.1644                   22967874.0744
  -3480564.51646  -2702527.54343  24361706.5234                   24361708.0784
 -24701932.07048 -19233101.05546  21692225.7034                   21692225.9384
 -17241279.62547 -13416357.98845  22630273.1174                   22630277.7274
 -11710495.80547  -9108358.03545  22425165.6564                   22425167.1724
 -17365349.23047 -13514868.89545  21825848.8674                   21825850.2504
  -1530604.89846  -1184180.55943  24074923.1094                   24074925.8164
 11  9 27  0 46 30.0000000  0 10G29G12G02G30G21G05G25G15G26G18
 -22938341.78548 -17859014.98446  20906822.2894                   20906822.5514
 -15457022.38746 -12026847.63344  23733623.8674                   23733627.5394
 -24425411.00847 -19014449.28145  22856986.9384                   22856987.0634
 -10193793.90647  -7926819.37144  22970218.6174                   22970220.3554
  -3560163.00446  -2764552.12943  24346559.4064                   24346561.2154
 -24649282.61348 -19192075.47746  21702244.7274                   21702244.8134
 -17194487.61347 -13379896.69545  22639177.6884                   22639182.2934
 -11818406.77747  -9192444.35245  22404630.5784                   22404631.5004
 -17443276.98847 -13575591.71145  21811019.3984                   21811020.5044
  -1633678.65646  -1264497.50843  24055308.5394                   24055311.8984
 11  9 27  0 47  0.0000000  0 10G29G12G02G30G21G05G25G15G26G18
 -23011410.73048 -17915951.75446  20892917.9144                   20892918.1604
 -15382508.92646 -11968785.24644  23747804.0004                   23747807.2034
 -24393160.12947 -18989318.69145  22863124.3134                   22863123.9574
 -10180974.60547  -7916830.23044  22972656.7274                   22972659.8674
  -3639777.48447  -2826589.19143  24331408.9064                   24331410.1174
 -24596378.89148 -19150851.77046  21712311.5234                   21712311.8484
 -17147375.71947 -13343186.12545  22648142.4924                   22648147.4104
 -11926055.49647  -9276326.32045  22384145.5164                   22384146.7154
 -17520669.36747 -13635897.33645  21796292.5784                   21796293.5204
  -1736530.23046  -1344641.32843  24035736.1024                   24035739.9574
 11  9 27  0 47 30.0000000  0 10G29G12G02G30G21G05G25G15G26G18
 -23084090.61748 -17972585.36746  20879087.0314                   20879087.1724
 -15307952.85546 -11910689.65244  23761991.1884                   23761995.3164
 -24360779.13347 -18964086.74245  22869286.4454                   22869286.0984
 -10167670.60547  -7906463.40644  22975189.1414                   22975191.5594
  -3719409.37146  -2888639.81243  24316255.3364                   24316257.3094
 -24543224.64848 -19109432.85246  21722426.9224                   21722427.2854
 -17099947.71547 -13306229.23445  22657168.1334                   22657172.4184
 -12033439.44947  -9360001.98045  22363710.5784                   22363712.0704
 -17597523.74647 -13695783.72745  21781666.9614                   21781668.5084
  -1839159.70346  -1424612.08243  24016206.2974                   24016209.3754
 11  9 27  0 48  0.0000000  0 10G29G12G02G30G21G05G25G15G26G18
 -23156378.89548 -18028913.82846  20865331.0164                   20865331.2664
 -15233356.99246 -11852563.05144  23776186.5084                   23776189.6214
 -24328267.32847 -18938752.83645  22875472.4144                   22875472.8324
 -10153883.99647  -7895720.52344  22977811.8834                   22977814.5004
  -3799058.26247  -2950703.68743  24301098.2424                   24301100.5124
 -24489821.52348 -19067820.00846  21732589.0164                   21732589.3364
 -17052206.31247 -13269028.13345  22666252.7814                   22666257.1414
 -12140555.29747  -9443468.73445  22343326.8524                   22343328.2584
 -17673837.14147 -13755248.59845  21767145.3524                   21767146.5004
  -1941565.36346  -1504408.46944  23996719.0554                   23996722.1644
 11  9 27  0 48 30.0000000  0 10G29G12G02G30G21G05G25G15G26G18
 -23228272.92248 -18084935.09446  20851649.9304                   20851650.2464
 -15158723.59046 -11794407.18744  23790389.0004                   23790392.3594
 -24295623.52347 -18913316.07445  22881684.1564                   22881684.5394
 -10139616.47747  -7884602.90245  22980527.7114                   22980529.3404
  -3878724.13747  -3012780.82043  24285938.4224                   24285940.0824
 -24436171.55548 -19026014.82046  21742798.4384                   21742798.7424
 -17004153.97747 -13231584.75845  22675397.2274                   22675401.3054
 -12247399.46147  -9526723.78145  22322995.0004                   22322996.5904
 -17749605.66047 -13814288.88745  21752726.8444                   21752727.7974
  -2043746.14846  -1584029.61343  23977274.3284                   23977277.6764
 11  9 27  0 49  0.0000000  0 10G29G12G02G30G21G05G25G15G26G18
 -23299770.77348 -18140647.64846  20838044.1174                   20838044.5394
 -15084055.87946 -11736224.61744  23804597.7584                   23804600.9844
 -24262847.64847 -18887776.41845  22887921.4534                   22887921.6954
 -10124870.56247  -7873112.50844  22983332.5474                   22983336.2734
  -3958407.60946  -3074871.64843  24270774.8754                   24270776.7114
 -24382277.10248 -18984019.12146  21753053.8754                   21753054.6914
 -16955793.92647 -13193901.60545  22684599.6024                   22684603.6294
 -12353969.05147  -9609764.88745  22302715.2034                   22302716.3634
 -17824826.74247 -13872902.59845  21738412.5704                   21738413.6954
  -2145701.24146  -1663474.92244  23957873.0084                   23957876.5514
 11  9 27  0 49 30.0000000  0 10G29G12G02G30G21G05G25G15G26G18
 -23370868.59448 -18196048.49646  20824514.6644                   20824514.8054
 -15009355.09446 -11678016.22344  23818812.9454                   23818815.2154
 -24229937.63747 -18862132.22344  22894183.8754                   22894184.2424
 -10109646.87147  -7861249.83244  22986229.9924                   22986232.6094
  -4038107.44546  -3136975.24643  24255608.0084                   24255609.9694
 -24328139.23848 -18941833.73446  21763355.6804                   21763356.5274
 -16907127.68047 -13155979.86745  22693860.6644                   22693864.9804
 -12460259.46147  -9692588.44145  22282488.5394                   22282489.6564
 -17899495.92647 -13931086.26645  21724203.5234                   21724205.1334
  -2247428.15246  -1742742.38743  23938514.6564                   23938517.9654
 11  9 27  0 50  0.0000000  0 10G29G12G02G30G21G05G25G15G26G18
 -23441564.16048 -18251135.89546  20811061.5474                   20811061.8364
 -14934624.39147 -11619784.55944  23833033.4844                   23833036.9304
 -24196893.54747 -18836383.56245  22900471.9614                   22900472.9924
 -10093948.02347  -7849016.92245  22989218.1174                   22989220.4454
  -4117823.86347  -3199091.73443  24240438.5394                   24240440.4304
 -24273760.23848 -18899460.46546  21773703.9534                   21773704.3794
 -16858158.44147 -13117822.02745  22703179.4534                   22703183.7734
 -12566267.55147  -9775192.00845  22262316.3834                   22262317.4804
 -17973610.44147 -13988837.72745  21710100.2504                   21710101.2854
  -2348925.94946  -1821831.35543  23919200.0864                   23919203.2624
 11  9 27  0 50 30.0000000  0 10G29G12G02G30G21G05G25G15G26G18
 -23511857.83248 -18305910.12546  20797685.3674                   20797685.5594
 -14859868.99647 -11561533.59844  23847258.7114                   23847261.5274
 -24163717.21547 -18810531.85245  22906785.0634                   22906785.9654
 -10077778.82047  -7836417.49644  22992293.8984                   22992296.6804
  -4197559.67646  -3261223.37943  24225265.6094                   24225266.2894
 -24219145.35948 -18856903.37946  21784096.9304                   21784097.1684
 -16808891.65647 -13079432.33245  22712554.4454                   22712558.8634
 -12671992.69947  -9857575.11345  22242197.2034                   22242198.4844
 -18047169.95347 -14046156.71545  21696102.0004                   21696102.7504
  -2450196.21546  -1900743.02043  23899928.4304                   23899931.5594
 11  9 27  0 51  0.0000000  0 10G29G12G02G30G21G05G25G15G26G18
 -23581746.69948 -18360368.91847  20784385.9774                   20784386.3714
 -14785091.27347 -11503265.30944  23861488.7274                   23861492.5004
 -24130407.51647 -18784576.20344  22913123.9924                   22913123.8524
 -10061140.98447  -7823452.91044  22995460.8674                   22995463.2504
  -4277314.62947  -3323369.93744  24210088.4454                   24210090.2544
 -24164296.26648 -18814163.79746  21794533.8204                   21794534.5514
 -16759329.84447 -13040812.74645  22721985.4454                   22721990.1054
 -12777431.44547  -9939735.04345  22222133.0784                   22222133.9844
 -18120170.94147 -14103040.50045  21682210.3054                   21682211.1254
  -2551237.46546  -1979476.24243  23880701.0474                   23880703.3484
 11  9 27  0 51 30.0000000  0 10G29G12G02G30G21G05G25G15G26G18
 -23651228.66448 -18414510.64146  20771163.6334                   20771164.0474
 -14710294.35247 -11444982.01644  23875722.1094                   23875726.0744
 -24096964.41447 -18758516.61344  22919487.6484                   22919487.6954
 -10044036.87147  -7810125.00044  22998715.1804                   22998717.9454
  -4357088.83246  -3385531.47744  24194908.0084                   24194909.2544
 -24109215.01648 -18771243.32446  21805015.6024                   21805016.1844
 -16709476.06647 -13001965.66845  22731472.6254                   22731477.0084
 -12882580.83247 -10021669.50445  22202123.5634                   22202124.4384
 -18192610.59847 -14159486.88745  21668425.0944                   21668426.0744
  -2652048.73446  -2058030.28543  23861517.4454                   23861519.5554
 11  9 27  0 52  0.0000000  0 10G29G12G02G30G21G05G25G15G26G18
 -23720301.23848 -18468333.35547  20758019.5314                   20758019.8284
 -14635480.69547 -11386685.70744  23889959.0784                   23889962.0864
 -24063387.12947 -18732352.46545  22925877.7734                   22925877.5354
 -10026468.61347  -7796435.40244  23002058.0394                   23002060.5864
  -4436882.25446  -3447707.99244  24179723.3914                   24179724.9104
 -24053903.64848 -18728143.53946  21815541.0004                   21815541.5944
 -16659333.12147 -12962893.25445  22741014.5474                   22741018.7544
 -12987437.62147 -10103375.96545  22182170.1174                   22182170.7934
 -18264485.73447 -14215493.38745  21654747.8914                   21654748.9654
  -2752629.27346  -2136404.50443  23842377.5864                   23842380.3554
 11  9 27  0 52 30.0000000  0 10G29G12G02G30G21G05G25G15G26G18
 -23788962.21548 -18521835.35246  20744954.0234                   20744954.0634
 -14560653.50446 -11328378.83244  23904198.2194                   23904201.3794
 -24029675.13747 -18706083.34845  22932293.1174                   22932292.9384
 -10008438.73447  -7782386.11744  23005489.6564                   23005491.8874
  -4516695.37547  -3509899.84444  24164535.7194                   24164536.6914
 -23998365.19548 -18684866.79346  21826109.3054                   21826110.2544
 -16608904.18047 -12923597.98045  22750610.7034                   22750615.2774
 -13091998.54747 -10184851.87145  22162272.3834                   22162273.1914
 -18335793.65247 -14271057.88345  21641178.5234                   21641179.3054
  -2852977.74246  -2214597.90644  23823281.4454                   23823284.4534
 11  9 27  0 53  0.0000000  0 10G29G12G02G30G21G05G25G15G26G18
 -23857210.15648 -18575015.49647  20731966.3594                   20731967.1564
 -14485816.12947 -11270064.06644  23918439.1094                   23918443.2234
 -23995828.78947 -18679709.52345  22938733.4224                   22938733.0084
  -9989950.14147  -7767979.38745  23009007.8054                   23009009.8984
  -4596528.82046  -3572107.56643  24149344.0234                   24149344.8754
 -23942602.16048 -18641415.05146  21836721.2894                   21836721.5234
 -16558192.86347 -12884082.68445  22760260.9064                   22760265.5594
 -13196261.12147 -10266095.32045  22142432.1564                   22142433.1374
 -18406532.12547 -14326178.67645  21627717.2894                   21627717.8554
  -2953094.01246  -2292610.34843  23804229.6334                   23804232.6764
 11  9 27  0 53 30.0000000  0 10G29G12G02G30G21G05G25G15G26G18
 -23925041.43048 -18627870.96947  20719058.8054                   20719059.1294
 -14410970.15247 -11211742.54344  23932681.7974                   23932685.3714
 -23961846.39847 -18653229.71945  22945199.7974                   22945200.1294
  -9971004.02047  -7753216.14544  23012613.2584                   23012615.5664
  -4676381.64847  -3634330.39843  24134147.9774                   24134148.8204
 -23886615.49648 -18597789.05546  21847374.9144                   21847375.3914
 -16507200.85947 -12844348.65645  22769964.4614                   22769968.7814
 -13300220.91047 -10347102.80945  22122648.8284                   22122649.7624
 -18476697.30947 -14380852.75046  21614365.0394                   21614366.4344
  -3052975.81246  -2370440.10243  23785222.1884                   23785225.2854
 11  9 27  0 54  0.0000000  0 10G29G12G02G30G21G05G25G15G26G18
 -23992456.11748 -18680401.81647  20706230.0704                   20706230.3984
 -14336120.36746 -11153418.10244  23946925.1254                   23946928.9694
 -23927729.48847 -18626645.08645  22951692.2974                   22951691.7504
  -9951605.01247  -7738100.02744  23016304.5634                   23016306.6254
  -4756256.20747  -3696570.16044  24118947.9924                   24118949.2974
 -23830410.32048 -18553992.78546  21858070.6884                   21858070.7854
 -16455933.52347 -12804400.11345  22779720.1484                   22779725.0004
 -13403877.22747 -10427873.84445  22102923.6414                   22102924.1024
 -18546288.41047 -14435079.49246  21601122.3134                   21601123.4964
  -3152624.78546  -2448088.46143  23766259.9224                   23766261.9734
 11  9 27  0 54 30.0000000  0 10G29G12G02G30G21G05G25G15G26G18
 -24059450.84848 -18732605.42647  20693481.2814                   20693481.4804
 -14261268.44946 -11095091.96144  23961168.9384                   23961172.4614
 -23893476.53147 -18599954.44544  22958210.4064                   22958210.2074
  -9931754.58246  -7722632.12144  23020081.5554                   23020084.1294
  -4836151.70346  -3758826.23844  24103744.2664                   24103746.3794
 -23773987.05148 -18510026.58646  21868807.2584                   21868807.8014
 -16404392.87547 -12764238.56645  22789527.4534                   22789532.2034
 -13507225.74248 -10508405.02345  22083256.9454                   22083258.0744
 -18615301.79347 -14488856.04746  21587989.2734                   21587990.3094
  -3252038.84846  -2525553.79343  23747342.2584                   23747344.4494
 11  9 27  0 55  0.0000000  0 10G29G12G02G30G21G05G25G15G26G18
 -24126023.17248 -18784479.87947  20680813.3284                   20680813.0514
 -14186417.19147 -11036766.36344  23975412.9064                   23975416.7424
 -23859086.96547 -18573157.34845  22964754.2424                   22964754.2544
  -9911454.65247  -7706813.97344  23023944.1334                   23023947.3874
  -4916067.85547  -3821098.42243  24088537.0554                   24088537.4264
 -23717348.00048 -18465892.23846  21879585.3444                   21879585.7504
 -16352581.50447 -12723866.07045  22799386.8444                   22799391.8094
 -13610263.10547 -10588693.75446  22063648.9454                   22063650.3834
 -18683734.10947 -14542179.82445  21574967.1094                   21574968.2894
  -3351216.37946  -2602834.77343  23728468.7344                   23728471.3054
 11  9 27  0 55 30.0000000  0 10G29G12G02G30G21G05G25G15G26G18
 -24192172.39547 -18836024.64847  20668225.1804                   20668225.2544
 -14111570.83246 -10978444.57844  23989655.7034                   23989659.9574
 -23824561.79347 -18546254.59444  22971324.2424                   22971324.2774
  -9890709.18747  -7690648.66044  23027892.2734                   23027894.5044
  -4996006.35947  -3883388.04344  24073325.2344                   24073326.4024
 -23660497.03548 -18421592.76246  21890403.7114                   21890404.4844
 -16300503.87947 -12683286.12145  22809297.2974                   22809301.2814
 -13712987.82047 -10668738.85945  22044101.3284                   22044102.8324
 -18751583.95747 -14595049.73845  21562055.4694                   21562056.7114
  -3450158.56646  -2679932.35943  23709640.7114                   23709642.3524
 11  9 27  0 56  0.0000000  0 10G29G12G02G30G21G05G25G15G26G18
 -24257893.12548 -18887235.53547  20655718.9774                   20655719.0354
 -14036729.15247 -10920126.41444  24003898.0864                   24003901.3164
 -23789897.72347 -18519243.58244  22977920.7344                   22977920.3324
  -9869517.76647  -7674135.85244  23031924.8914                   23031926.5594
  -5075964.40247  -3945692.89544  24058109.9694                   24058110.9964
 -23603433.38348 -18377127.55546  21901262.4614                   21901262.8714
 -16248160.33247 -12642498.95345  22819257.7814                   22819262.3404
 -13815393.88747 -10748535.66845  22024613.9774                   22024615.2154
 -18818846.14847 -14647461.71945  21549255.7194                   21549256.6024
  -3548861.48846  -2756843.54343  23690858.4224                   23690860.4264
 11  9 27  0 56 30.0000000  0 10G29G12G02G30G21G05G25G15G26G18
 -24323186.10548 -18938113.10547  20643294.0004                   20643294.1844
 -13961897.59846 -10861816.15644  24018137.5004                   24018141.7304
 -23755096.61347 -18492125.78944  22984542.9694                   22984542.4144
  -9847885.48847  -7657279.52344  23036041.5944                   23036043.8324
  -5155945.00047  -4008015.30144  24042889.3754                   24042891.2664
 -23546162.02048 -18332500.49246  21912160.9304                   21912161.3094
 -16195556.35547 -12601508.83645  22829268.1644                   22829272.3284
 -13917480.91848 -10828083.87545  22005187.5234                   22005188.3094
 -18885520.55547 -14699415.69946  21536568.0554                   21536568.9104
  -3647326.64546  -2833569.43043  23672120.1724                   23672123.2734
 11  9 27  0 57  0.0000000  0 10G29G12G02G30G21G05G25G15G26G18
 -24388050.05148 -18988656.35947  20630950.6484                   20630950.5944
 -13887079.60547 -10803516.45344  24032374.7664                   24032378.8754
 -23720159.12147 -18464901.73044  22991191.3914                   22991191.0314
  -9825815.59846  -7640082.19544  23040241.8054                   23040242.7344
  -5235949.06647  -4070356.01644  24027665.4774                   24027666.4964
 -23488685.86348 -18287713.85246  21923098.3284                   21923098.8834
 -16142695.92247 -12560318.89545  22839326.9224                   22839331.8984
 -14019246.44148 -10907381.56645  21985822.1094                   21985822.9024
 -18951605.28147 -14750910.18446  21523992.5634                   21523993.5274
  -3745554.06246  -2910110.07844  23653428.0704                   23653430.4024
 11  9 27  0 57 30.0000000  0 10G29G12G02G30G21G05G25G15G26G18
 -24452479.75448 -19038861.24647  20618690.0864                   20618690.1134
 -13812275.53947 -10745227.59844  24046609.6724                   24046613.3794
 -23685082.12947 -18437568.94544  22997866.5164                   22997865.6484
  -9803308.12147  -7622543.87144  23044523.9454                   23044526.2274
  -5315973.85247  -4132712.90244  24012437.2274                   24012437.6994
 -23431004.23447 -18242767.09846  21934074.6954                   21934075.0864
 -16089579.44947 -12518929.41845  22849435.2344                   22849439.4924
 -14120685.00048 -10986424.48446  21966519.0784                   21966519.9264
 -19017094.94147 -14801940.98045  21511530.3914                   21511530.9494
  -3843540.23446  -2986462.72744  23634782.0554                   23634784.1764
 11  9 27  0 58  0.0000000  0 10G29G12G02G30G21G05G25G15G26G18
 -24516474.89848 -19088727.50847  20606512.2344                   20606512.1884
 -13737489.55547 -10686952.82444  24060841.3754                   24060844.9774
 -23649866.32047 -18410127.99644  23004567.5634                   23004567.0354
  -9780367.03547  -7604667.67644  23048889.7424                   23048892.4534
  -5396020.84047  -4195087.08244  23997204.2894                   23997205.0944
 -23373121.54747 -18197663.68046  21945089.4064                   21945089.8284
 -16036211.33247 -12477343.87945  22859590.3594                   22859594.8954
 -14221794.85548 -11065211.25846  21947277.8834                   21947278.7934
 -19081988.42248 -14852507.21945  21499181.6024                   21499182.0824
  -3941285.82847  -3062627.93044  23616181.9144                   23616183.7114
 11  9 27  0 58 30.0000000  0 10G29G12G02G30G21G05G25G15G26G18
 -24580032.90248 -19138253.14847  20594417.2664                   20594417.3364
 -13662724.07047 -10628694.02344  24075068.3134                   24075072.4344
 -23614511.19947 -18382578.51244  23011294.9924                   23011295.2814
  -9756994.35947  -7586455.18744  23053337.5634                   23053339.9804
  -5476090.16847  -4257478.67244  23981967.9534                   23981968.8954
 -23315039.60547 -18152404.98846  21956141.9844                   21956142.1484
 -15982594.42247 -12435564.46145  22869793.4384                   22869797.9414
 -14322572.56248 -11143739.22346  21928100.8594                   21928101.6724
 -19146282.98047 -14902606.77745  21486946.3134                   21486947.0394
  -4038789.85546  -3138604.86744  23597627.4304                   23597629.3754
 11  9 27  0 59  0.0000000  0 10G29G12G02G30G21G05G25G15G26G18
 -24643151.94548 -19187436.73447  20582406.5474                   20582406.3134
 -13587982.15247 -10570453.58244  24089291.8054                   24089294.9774
 -23579016.42647 -18354920.21144  23018049.2034                   23018049.1644
  -9733193.10747  -7567908.76644  23057866.3524                   23057868.7974
  -5556182.21547  -4319887.98444  23966726.9534                   23966727.7344
 -23256760.62947 -18106992.78146  21967231.9844                   21967232.4144
 -15928732.06247 -12393593.78945  22880043.1254                   22880047.5514
 -14423015.46548 -11222006.29746  21908987.0314                   21908988.1054
 -19209976.23047 -14952237.78145  21474825.8754                   21474825.9614
  -4136051.38347  -3214392.85244  23579119.2424                   23579121.6334
 11  9 27  0 59 30.0000000  0 10G29G12G02G30G21G05G25G15G26G18
 -24705829.53948 -19236276.34447  20570479.1644                   20570479.0664
 -13513266.57847 -10512233.67243  24103509.0864                   24103512.4734
 -23543381.60947 -18327152.77744  23024830.1954                   23024830.7114
  -9708965.71147  -7549030.22344  23062477.3364                   23062479.1174
  -5636296.85547  -4382314.87144  23951481.6954                   23951482.8754
 -23198286.87947 -18061428.78946  21978359.2584                   21978359.8914
 -15874627.16447 -12351434.12545  22890339.1414                   22890343.3284
 -14523120.21548 -11300009.87946  21889937.6884                   21889938.6024
 -19273065.65647 -15001398.27346  21462820.2734                   21462820.8484
  -4233070.00847  -3289991.54344  23560656.4064                   23560658.7504
 11  9 27  1  0  0.0000000  0 10G29G12G02G30G21G05G25G15G26G18
 -24768065.28548 -19284771.65647  20558635.6414                   20558635.7854
 -13438581.50447 -10454037.51243  24117721.8054                   24117724.2664
 -23507607.87547 -18299277.11344  23031637.7894                   23031638.5124
  -9684316.14147  -7529822.75444  23067167.3524                   23067169.3984
  -5716435.82847  -4444760.73044  23936231.1024                   23936232.1414
 -23139621.89847 -18015715.79346  21989522.8204                   21989523.2154
 -15820284.34047 -12309089.06245  22900680.3444                   22900684.1054
 -14622885.44548 -11377748.89546  21870952.9454                   21870954.0984
 -19335549.81647 -15050087.13746  21450929.8834                   21450930.6604
  -4329846.30947  -3365401.40644  23542240.0004                   23542242.8984
 11  9 27  1  0 30.0000000  0 10G29G12G02G30G21G05G25G15G26G18
 -24829856.67248 -19332920.69947  20546877.3134                   20546877.1134
 -13363928.88347 -10395866.60243  24131927.8594                   24131930.2854
 -23471694.07847 -18271292.29744  23038472.5864                   23038473.4264
  -9659246.67247  -7510288.06244  23071938.3364                   23071939.9924
  -5796598.64547  -4507225.15644  23920976.4384                   23920977.4344
 -23080767.52747 -17969855.21546  22000722.3524                   22000723.1174
 -15765706.17247 -12266560.60545  22911066.3914                   22911070.1454
 -14722307.68448 -11455220.64846  21852033.4384                   21852034.0434
 -19397426.09847 -15098302.31646  21439155.2194                   21439155.4614
  -4426379.07446  -3440621.49244  23523870.5554                   23523872.8054
 11  9 27  1  1  0.0000000  0 10G29G12G02G30G21G05G25G15G26G18
 -24891201.27348 -19380721.60947  20535203.9064                   20535203.7154
 -13289311.52047 -10337723.18744  24146126.5634                   24146129.6644
 -23435639.57847 -18243197.84044  23045332.5314                   23045333.4264
  -9633759.47747  -7490427.86344  23076788.1024                   23076789.6914
  -5876784.97747  -4569707.93743  23905717.5004                   23905717.3094
 -23021725.55547 -17923848.46146  22011957.4304                   22011957.9534
 -15710895.46947 -12223850.93445  22921496.2344                   22921500.4384
 -14821383.67648 -11532422.59446  21833179.5474                   21833181.2344
 -19458691.60548 -15146041.58646  21427496.5084                   21427497.2424
  -4522667.01647  -3515650.80544  23505547.3444                   23505549.5474
 11  9 27  1  1 30.0000000  0 10G29G12G02G30G21G05G25G15G26G18
 -24952097.32048 -19428172.99247  20523615.3364                   20523615.2114
 -13214732.39147 -10279609.58244  24160318.8284                   24160322.5594
 -23399444.28947 -18214993.67644  23052221.3054                   23052221.3524
  -9607857.72347  -7470244.63744  23081717.4534                   23081718.7194
  -5956995.65247  -4632209.64544  23890453.3524                   23890454.9534
 -22962498.70747 -17877697.64846  22023228.7894                   22023228.5394
 -15655855.74647 -12180962.82445  22931969.8834                   22931973.8914
 -14920111.02048 -11609352.86746  21814392.3204                   21814393.1134
 -19519344.62948 -15193303.60246  21415954.7814                   21415955.2464
  -4618709.89847  -3590489.12944  23487270.7344                   23487272.5704
 11  9 27  1  2  0.0000000  0 10G29G12G02G30G21G05G25G15G26G18
 -25012545.22348 -19475275.18447  20512112.6644                   20512112.6414
 -13140196.35247 -10221529.58244  24174502.5314                   24174506.2304
 -23363109.96947 -18186681.18744  23059135.0554                   23059135.2424
  -9581546.39547  -7449742.25444  23086723.6484                   23086725.5904
  -6037232.80547  -4694732.03544  23875184.9454                   23875185.4844
 -22903091.80147 -17831406.51246  22034532.8834                   22034533.3794
 -15600592.45747 -12137900.51245  22942486.0554                   22942490.8754
 -15018488.69548 -11686010.67646  21795671.5164                   21795672.6134
 -19579384.80948 -15240088.06246  21404529.7274                   21404529.7704
  -4714509.22346  -3665137.69544  23469040.7194                   23469042.2384
 11  9 27  1  2 30.0000000  0 10G29G12G02G30G21G05G25G15G26G18
 -25072538.91448 -19522023.44547  20500696.2664                   20500696.0704
 -13065702.64546 -10163482.55544  24188677.9694                   24188681.9384
 -23326632.40247 -18158257.05944  23066076.7584                   23066076.7344
  -9554824.09847  -7428919.63344  23091808.8204                   23091810.6724
  -6117492.61747  -4757272.03544  23859911.9534                   23859912.9804
 -22843502.95747 -17784973.62946  22045872.6954                   22045873.1024
 -15545104.52347 -12094663.14545  22953044.9144                   22953049.0984
 -15116509.83248 -11762390.66046  21777018.9774                   21777019.7194
 -19638805.71547 -15286389.98845  21393221.8524                   21393222.3554
  -4810060.37147  -3739592.85243  23450857.0084                   23450859.8954
 11  9 27  1  3  0.0000000  0 10G29G12G02G30G21G05G25G15G26G18
 -25132079.77348 -19568418.85547  20489365.8674                   20489365.5664
 -12991257.09446 -10105473.05944  24202844.6884                   24202848.8404
 -23290014.63347 -18129723.71544  23073044.4304                   23073044.6054
  -9527696.96547  -7407781.55544  23096970.8054                   23096973.7664
  -6197778.77047  -4819832.57444  23844634.5634                   23844634.7774
 -22783737.74247 -17738403.29346  22057245.1484                   22057245.5984
 -15489398.66047 -12051255.95745  22963645.5004                   22963649.8404
 -15214174.96148 -11838493.24246  21758433.5944                   21758434.1564
 -19697608.85547 -15332210.52345  21382032.0554                   21382032.3204
  -4905366.02747  -3813856.75444  23432721.0634                   23432721.9344
 11  9 27  1  3 30.0000000  0 10G29G12G02G30G21G05G25G15G26G18
 -25191164.84448 -19614459.10247  20478122.4534                   20478122.5904
 -12916861.59846 -10047502.56643  24217000.9614                   24217005.4614
 -23253255.21147 -18101079.96545  23080040.0784                   23080039.9884
  -9500166.96947  -7386329.55544  23102209.8284                   23102212.0314
  -6278090.24647  -4882412.86744  23829351.2664                   23829351.7624
 -22723797.55947 -17691696.63346  22068651.1644                   22068652.0234
 -15433477.10547 -12007680.71145  22974287.1254                   22974291.3524
 -15311480.24647 -11914315.43046  21739916.8914                   21739917.4884
 -19755790.52348 -15377546.80946  21370960.1884                   21370961.0634
  -5000424.66047  -3887928.18444  23414631.7664                   23414633.0044
 11  9 27  1  4  0.0000000  0 10G29G12G02G30G21G05G25G15G26G18
 -25249791.30948 -19660142.00847  20466966.2114                   20466966.0274
 -12842517.78146  -9989572.40643  24231148.0634                   24231152.4884
 -23216352.88747 -18072324.86745  23087062.0944                   23087062.1524
  -9472235.77747  -7364564.93044  23107524.8524                   23107526.5864
  -6358426.68747  -4945012.57444  23814063.2274                   23814064.2624
 -22663683.60547 -17644854.55946  22080090.8674                   22080091.4224
 -15377342.06647 -11963939.10945  22984968.9064                   22984973.7114
 -15408421.91048 -11989854.26246  21721469.3134                   21721469.9184
 -19813348.03148 -15422396.71146  21360007.3984                   21360007.7114
  -5095234.70747  -3961805.88344  23396590.3524                   23396591.0744
 11  9 27  1  4 30.0000000  0 10G29G12G02G30G21G05G25G15G26G18
 -25307957.85548 -19705466.51647  20455897.1484                   20455897.0744
 -12768229.25846  -9931685.26244  24245285.7344                   24245289.3634
 -23179307.71947 -18043458.46944  23094111.7974                   23094111.1054
  -9443906.66447  -7342490.26644  23112915.7584                   23112917.3794
  -6438788.20347  -5007631.83244  23798771.2814                   23798772.1484
 -22603398.51247 -17597879.14146  22091562.2584                   22091562.5164
 -15320997.12147 -11920033.95745  22995691.0314                   22995695.7154
 -15504997.59848 -12065107.92246  21703091.7504                   21703092.2344
 -19870279.50448 -15466758.81246  21349173.5474                   21349173.7304
  -5189795.82447  -4035489.66044  23378595.5634                   23378597.0554
 11  9 27  1  5  0.0000000  0 10G29G12G02G30G21G05G25G15G26G18
 -25365661.82048 -19750430.59047  20444916.4224                   20444916.4024
 -12693997.82846  -9873842.63344  24259411.6564                   24259415.4264
 -23142118.84447 -18014480.09045  23101188.4774                   23101188.0864
  -9415181.94547  -7320107.33245  23118382.0474                   23118384.3204
  -6519174.44547  -5070270.36344  23783474.5314                   23783474.8874
 -22542943.66447 -17550771.43746  22103066.6484                   22103066.8914
 -15264444.92247 -11875967.30145  23006452.6094                   23006457.5234
 -15601203.83248 -12140073.70746  21684784.2344                   21684784.4534
 -19926582.14548 -15510630.91046  21338459.0864                   21338459.8284
  -5284107.05547  -4108978.68043  23360648.6644                   23360650.4614
 11  9 27  1  5 30.0000000  0 10G29G12G02G30G21G05G25G15G26G18
 -25422902.05147 -19795033.30147  20434024.3914                   20434023.9344
 -12619827.62947  -9816047.69944  24273525.7274                   24273529.8014
 -23104786.84047 -17985390.16845  23108292.6174                   23108292.5664
  -9386065.21547  -7297418.94144  23123922.7894                   23123924.6214
  -6599586.70347  -5132929.12944  23768172.6484                   23768172.8834
 -22482322.89147 -17503534.44946  22114602.3284                   22114602.6884
 -15207689.48047 -11831742.27345  23017252.8984                   23017257.8874
 -15697038.43447 -12214749.90246  21666547.3364                   21666547.6724
 -19982254.55547 -15554011.90245  21327865.2194                   21327865.4264
  -5378168.78947  -4182273.32044  23342748.6484                   23342750.9304
 11  9 27  1  6  0.0000000  0 10G29G12G02G30G21G05G25G15G26G18
 -25479677.28948 -19839273.69947  20423220.2194                   20423219.9384
 -12545721.44147  -9758302.66444  24287627.3204                   24287631.5004
 -23067311.44547 -17956188.51244  23115423.6174                   23115423.2424
  -9356559.77047  -7274427.64144  23129537.4534                   23129539.2974
  -6680025.28147  -5195608.43044  23752865.3204                   23752865.9064
 -22421538.53547 -17456169.98045  22126169.3284                   22126169.5704
 -15150734.38347 -11787361.68045  23028091.1094                   23028095.6644
 -15792498.73048 -12289134.43046  21648381.7504                   21648382.0664
 -20037295.20748 -15596900.62546  21317390.9924                   21317391.6294
  -5471980.73047  -4255373.31644  23324896.6644                   23324898.7304
 11  9 27  1  6 30.0000000  0 10G29G12G02G30G21G05G25G15G26G18
 -25535981.89548 -19883147.35547  20412505.7344                   20412505.7074
 -12471678.54747  -9700606.95744  24301717.7424                   24301721.0084
 -23029689.06247 -17926872.31644  23122582.8754                   23122583.1094
  -9326664.88347  -7251132.88344  23135226.0234                   23135227.2664
  -6760486.74247  -5258305.55544  23737553.8204                   23737554.2664
 -22360589.23047 -17408676.98445  22137767.2734                   22137767.7584
 -15093579.33647 -11742825.27345  23038967.4384                   23038971.4654
 -15887578.90647 -12363222.75846  21630288.3834                   21630288.6604
 -20091698.42647 -15639292.65246  21307039.0634                   21307039.3054
  -5565538.62946  -4328275.35944  23307092.9614                   23307094.8984
 11  9 27  1  7  0.0000000  0 10G29G12G02G30G21G05G25G15G26G18
 -25591817.41048 -19926655.50047  20401880.2194                   20401880.2854
 -12397704.66047  -9642964.96544  24315794.3594                   24315797.7344
 -22991922.51647 -17897443.81244  23129769.3594                   23129769.2194
  -9296386.70747  -7227539.47744  23140987.5554                   23140988.9694
  -6840974.35946  -5321023.03144  23722237.4224                   23722238.4104
 -22299480.46947 -17361059.74645  22149396.1804                   22149396.5004
 -15036230.72347 -11698138.04345  23049880.6954                   23049885.1334
 -15982279.28548 -12437015.14546  21612267.6644                   21612267.9264
 -20145465.63748 -15681189.08246  21296807.0944                   21296807.5744
  -5658845.32447  -4400981.69144  23289336.9534                   23289339.6724
 11  9 27  1  7 30.0000000  0 10G29G12G02G30G21G05G25G15G26G18
 -25647179.23448 -19969794.52347  20391345.4064                   20391345.0904
 -12323799.82047  -9585376.82844  24329858.3834                   24329861.5864
 -22954008.80147 -17867900.63344  23136984.5314                   23136983.8324
  -9265725.35947  -7203647.49244  23146822.2734                   23146824.0434
  -6921485.82847  -5383759.08244  23706916.3134                   23706917.1764
 -22238211.77747 -17313317.87945  22161055.1254                   22161054.9924
 -14978689.02747 -11653300.35945  23060830.2504                   23060834.8284
 -16076594.31248 -12510507.24646  21594319.9144                   21594319.9844
 -20198591.74248 -15722585.95745  21286697.2734                   21286697.8284
  -5751897.68447  -4473489.85544  23271630.2584                   23271631.4694
 11  9 27  1  8  0.0000000  0 10G29G12G02G30G21G05G25G15G26G18
 -25702066.37548 -20012563.66847  20380900.5864                   20380900.2154
 -12249967.95347  -9527845.55943  24343907.4694                   24343911.0234
 -22915948.26647 -17838243.02344  23144227.1724                   23144226.5164
  -9234684.48847  -7179459.78144  23152729.7734                   23152730.5084
  -7002021.98046  -5446514.38344  23691590.7814                   23691591.0864
 -22176786.32047 -17265453.84845  22172743.9224                   22172744.2074
 -14920958.21147 -11608315.29745  23071815.9924                   23071820.6094
 -16170522.03148 -12583697.55546  21576446.2424                   21576446.2074
 -20251075.80547 -15763482.53546  21276709.9224                   21276710.0394
  -5844695.53947  -4545799.71144  23253971.4694                   23253972.2624
 11  9 27  1  8 30.0000000  0 10G29G12G02G30G21G05G25G15G26G18
 -25756477.90648 -20054962.19547  20370546.2424                   20370546.0234
 -12176212.21547  -9470373.52743  24357942.8674                   24357945.3094
 -22877741.28146 -17808471.28544  23151497.2034                   23151496.7274
  -9203267.85547  -7154979.26644  23158707.3754                   23158709.3554
  -7082583.44146  -5509289.39844  23676260.1644                   23676260.7504
 -22115207.12947 -17217470.03546  22184462.4694                   22184462.5554
 -14863042.27347 -11563185.99645  23082837.1884                   23082841.7584
 -16264060.32047 -12656584.41046  21558646.0084                   21558646.0744
 -20302916.64548 -15803877.89546  21266844.9384                   21266845.8014
  -5937239.48046  -4617911.72344  23236360.7894                   23236361.3244
 11  9 27  1  9  0.0000000  0 10G29G12G02G30G21G05G25G15G26G18
 -25810408.56648 -20096986.02747  20360283.7814                   20360283.4144
 -12102532.23446  -9412960.53143  24371963.0864                   24371966.6254
 -22839384.66446 -17778582.96944  23158796.2504                   23158796.2934
  -9171475.14847  -7130205.72744  23164757.1884                   23164759.0944
  -7163167.15247  -5572081.75444  23660925.7584                   23660926.6844
 -22053473.16447 -17169365.62146  22196209.7584                   22196209.6254
 -14804941.25847 -11517912.48445  23093893.5004                   23093898.4104
 -16357203.40647 -12729163.31646  21540921.6094                   21540922.1914
 -20354108.94547 -15843767.91046  21257103.3054                   21257103.3984
  -6029525.67247  -4689822.89144  23218799.2344                   23218799.7344
 11  9 27  1  9 30.0000000  0 10G29G12G02G30G21G05G25G15G26G18
 -25863859.56648 -20138636.10247  20350112.1024                   20350111.8284
 -12028933.16446  -9355610.66842  24385968.5864                   24385971.8524
 -22800880.54746 -17748579.71144  23166123.0004                   23166122.2034
  -9139311.93747  -7105143.46544  23170877.5554                   23170880.5004
  -7243776.07847  -5634893.75444  23645586.2584                   23645586.8054
 -21991588.85247 -17121144.05146  22207985.8754                   22207985.8954
 -14746661.04347 -11472499.33245  23104984.0084                   23104988.4024
 -16449950.88748 -12801433.96146  21523272.6174                   21523272.2664
 -20404653.67247 -15883153.32045  21247484.7664                   21247484.3634
  -6121556.54347  -4761535.13344  23201286.1094                   23201287.3134
 11  9 27  1 10  0.0000000  0 10G29G12G02G30G21G05G25G15G26G18
 -25916827.09048 -20179909.44147  20340032.6334                   20340032.5084
 -11955416.13346  -9298324.76242  24399957.6954                   24399961.0274
 -22762227.04346 -17718460.05944  23173478.6254                   23173477.6484
  -9106779.62947  -7079793.60544  23177068.7274                   23177070.4534
  -7324408.80546  -5697724.30544  23630241.7424                   23630242.4804
 -21929554.99647 -17072805.95346  22219790.6094                   22219790.9384
 -14688203.25047 -11426947.82045  23116107.9694                   23116111.8794
 -16542298.93447 -12873393.36746  21505698.9924                   21505699.2234
 -20454547.44947 -15922031.50846  21237990.3204                   21237990.6994
  -6213329.73047  -4833046.53944  23183822.0864                   23183822.9844
 11  9 27  1 10 30.0000000  0 10G29G12G02G30G21G05G25G15G26G18
 -25969313.20348 -20220807.64547  20330045.2034                   20330044.8914
 -11881987.89846  -9241107.91843  24413931.5634                   24413935.2584
 -22723427.22346 -17688226.41844  23180862.3054                   23180861.2504
  -9073884.42647  -7054160.97744  23183328.7424                   23183330.2624
  -7405068.25446  -5760575.69944  23614893.6414                   23614893.3674
 -21867377.06647 -17024355.60245  22231622.4774                   22231623.0824
 -14629574.32447 -11381262.95345  23127264.6724                   23127268.7194
 -16634247.75048 -12945041.67646  21488201.7114                   21488201.7704
 -20503791.61347 -15960403.50446  21228619.2974                   21228619.5824
  -6304847.99647  -4904359.34044  23166406.9304                   23166407.2934
 11  9 27  1 11  0.0000000  0 10G29G12G02G30G21G05G25G15G26G18
 -26021311.81648 -20261325.98447  20320150.0474                   20320149.6644
 -11808646.59445  -9183958.96143  24427887.5084                   24427891.2624
 -22684476.76646 -17657875.40244  23188274.0164                   23188273.3134
  -9040625.23047  -7028244.67644  23189657.2034                   23189659.6024
  -7485750.83246  -5823445.09844  23599539.4064                   23599540.2274
 -21805053.43447 -16975791.70745  22243482.5164                   22243482.4104
 -14570773.40247 -11335444.06245  23138454.1724                   23138458.9344
 -16725790.70748 -13016373.74646  21470781.2814                   21470781.8674
 -20552380.48848 -15998264.86746  21219372.9224                   21219373.0164
  -6396107.11347  -4975470.21144  23149040.3444                   23149041.4344
 11  9 27  1 11 30.0000000  0 10G29G12G02G30G21G05G25G15G26G18
 -26072822.48048 -20301464.10547  20310347.5704                   20310347.4304
 -11735396.02746  -9126880.67243  24441827.4144                   24441831.1454
 -22645376.27346 -17627407.44544  23195715.0864                   23195714.0164
  -9007006.23447  -7002048.04344  23196054.6954                   23196056.8054
  -7566457.69546  -5886333.44544  23584181.3444                   23584181.4924
 -21742587.62947 -16927117.03945  22255369.1174                   22255370.1174
 -14511804.92647 -11289494.59445  23149675.5164                   23149680.4964
 -16816926.12148 -13087388.23846  21453438.7034                   21453438.6294
 -20600313.40648 -16035615.10546  21210251.8594                   21210252.1804
  -6487107.68447  -5046379.57444  23131723.2664                   23131724.4064
 11  9 27  1 12  0.0000000  0 10G29G12G02G30G21G05G25G15G26G18
 -26123843.83648 -20341220.95347  20300638.6094                   20300638.2304
 -11662238.87546  -9069875.16044  24455748.6644                   24455752.9224
 -22606125.59046 -17596822.46144  23203183.9924                   23203182.3134
  -8973030.42247  -6975573.39844  23202519.8914                   23202521.9414
  -7647189.23046  -5949241.02344  23568818.4384                   23568818.5314
 -21679981.60247 -16878333.11345  22267282.7194                   22267282.7544
 -14452672.12947 -11243417.11745  23160927.8134                   23160933.0744
 -16907651.48848 -13158083.21946  21436174.2504                   21436174.6804
 -20647588.39147 -16072452.69146  21201255.9224                   21201255.6054
  -6577849.27047  -5117087.17244  23114455.7734                   23114456.9304
 11  9 27  1 12 30.0000000  0 10G29G12G02G30G21G05G25G15G26G18
 -26174375.37547 -20380596.12547  20291022.8444                   20291022.4064
 -11589179.56646  -9012945.85944  24469651.6024                   24469655.6844
 -22566726.17646 -17566121.59444  23210681.2034                   23210680.5274
  -8938702.57047  -6948824.41844  23209052.8834                   23209054.7974
  -7727946.91446  -6012168.96544  23553451.5234                   23553450.9774
 -21617239.22347 -16829442.91845  22279221.8834                   22279221.7234
 -14393379.99247 -11197215.47345  23172210.9844                   23172215.4454
 -16997965.92648 -13228458.00846  21418987.9304                   21418987.9494
 -20694205.86348 -16108777.89845  21192384.6414                   21192384.4344
  -6668333.43447  -5187594.15244  23097237.5394                   23097237.7704
 11  9 27  1 13  0.0000000  0 10G29G12G02G30G21G05G25G15G26G18
 -26224414.06648 -20419587.25447  20281500.8754                   20281500.1564
 -11516218.98847  -8956093.56644  24483535.7814                   24483540.0824
 -22527176.06646 -17535303.30944  23218207.2734                   23218206.1804
  -8904023.95347  -6921802.08644  23215651.7424                   23215654.0124
  -7808729.21547  -6075116.09044  23538078.5864                   23538078.6134
 -21554360.71547 -16780446.65245  22291187.8444                   22291187.8714
 -14333929.97347 -11150890.78945  23183524.0004                   23183529.0084
 -17087864.76648 -13298508.96146  21401880.6644                   21401881.0164
 -20740162.29348 -16144588.02746  21183639.3284                   21183639.7814
  -6758557.47747  -5257898.45744  23080067.8594                   23080068.5744
 11  9 27  1 13 30.0000000  0 10G29G12G02G30G21G05G25G15G26G18
 -26273958.98048 -20458193.62547  20272072.1954                   20272071.9264
 -11443360.68047  -8899320.88744  24497400.6334                   24497404.7464
 -22487475.83246 -17504368.02344  23225762.2584                   23225761.0634
  -8868998.48847  -6894509.52344  23222316.7194                   23222318.3404
  -7889536.79347  -6138082.92644  23522701.3594                   23522701.0434
 -21491349.38347 -16731346.88745  22303178.1884                   22303178.3954
 -14274326.11347 -11104446.26245  23194866.3834                   23194870.6134
 -17177346.80148 -13368235.12546  21384852.6804                   21384852.5664
 -20785456.94948 -16179882.46946  21175019.7114                   21175019.4264
  -6848522.44147  -5328000.87144  23062948.0634                   23062948.5744
 11  9 27  1 14  0.0000000  0 10G29G12G02G30G21G05G25G15G26G18
 -26323007.71948 -20496413.36747  20262739.0314                   20262738.3484
 -11370606.61746  -8842629.49244  24511245.1024                   24511248.5554
 -22447624.54746 -17473315.03944  23233345.6724                   23233345.2584
  -8833628.56247  -6866948.52044  23229047.6484                   23229049.8674
  -7970369.47747  -6201069.33644  23507319.0784                   23507319.1644
 -21428206.96147 -16682144.96545  22315193.4774                   22315193.3364
 -14214571.01247 -11057883.86744  23206236.9774                   23206241.1454
 -17266408.15648 -13437633.48046  21367904.8284                   21367904.8364
 -20830087.75448 -16214659.63746  21166526.9304                   21166527.2664
  -6938227.02747  -5397900.39144  23045877.4064                   23045878.1914
 11  9 27  1 14 30.0000000  0 10G29G12G02G30G21G05G25G15G26G18
 -26371560.06248 -20534246.30147  20253499.6484                   20253498.9804
 -11297960.64546  -8786022.33244  24525068.7664                   24525072.6374
 -22407622.65246 -17442144.71944  23240957.9844                   23240957.7114
  -8797918.00447  -6839122.11744  23235843.3054                   23235845.2464
  -8051227.95747  -6264075.84044  23491933.0704                   23491931.9574
 -21364936.21147 -16632843.05545  22327233.4694                   22327234.0084
 -14154668.77347 -11011206.82044  23217636.3444                   23217640.4264
 -17355047.24647 -13506702.81646  21351037.4844                   21351037.0394
 -20874053.73048 -16248918.77045  21158160.3674                   21158160.3094
  -7027671.85947  -5467597.49644  23028856.6564                   23028857.3244
 11  9 27  1 15  0.0000000  0 10G29G12G02G30G21G05G25G15G26G18
 -26419612.90248 -20571690.02347  20244355.5474                   20244354.9264
 -11225423.95346  -8729500.31244  24538872.6484                   24538876.3014
 -22367468.91046 -17410856.05544  23248598.5234                   23248598.3834
  -8761868.82047  -6811031.83244  23242703.1804                   23242704.2734
  -8132111.36747  -6327101.74644  23476540.4454                   23476540.2464
 -21301538.17647 -16583441.96545  22339297.6414                   22339298.1604
 -14094621.47347 -10964416.72344  23229062.6094                   23229067.3834
 -17443260.53147 -13575440.34046  21334250.6804                   21334250.6174
 -20917352.43748 -16282657.93745  21149920.8594                   21149920.9184
  -7116855.35246  -5537090.98044  23011885.8834                   23011886.5164
 11  9 27  1 15 30.0000000  0 10G29G12G02G30G21G05G25G15G26G18
 -26467166.70748 -20608744.89547  20235306.5554                   20235305.8524
 -11153000.59046  -8673066.59444  24552654.3754                   24552657.8244
 -22327164.55547 -17379450.05145  23256268.9304                   23256268.2544
  -8725485.64847  -6782681.31244  23249626.7814                   23249628.1684
  -8213020.87946  -6390148.02044  23461143.8984                   23461143.8984
 -21238016.39547 -16533944.46145  22351385.4064                   22351385.6454
 -14034433.96547 -10917517.40244  23240516.4384                   23240521.1174
 -17531046.73048 -13643845.07446  21317545.2974                   21317545.9414
 -20959983.72748 -16315877.04346  21141808.3674                   21141808.0634
  -7205778.99647  -5606381.99244  22994964.1884                   22994964.5664
 11  9 27  1 16  0.0000000  0 10G29G12G02G30G21G05G25G15G26G18
 -26514219.59048 -20645409.42647  20226352.2504                   20226351.8284
 -11080693.85245  -8616723.73843  24566413.0164                   24566417.2974
 -22286709.55547 -17347926.67645  23263967.5784                   23263966.8164
  -8688771.77747  -6754073.12944  23256612.9454                   23256615.3484
  -8293956.89147  -6453214.95344  23445742.7424                   23445741.8714
 -21174373.34447 -16484352.45345  22363496.6094                   22363496.5514
 -13974109.57047 -10870511.42644  23251995.4304                   23252000.1254
 -17618403.66448 -13711915.32046  21300922.1094                   21300921.9574
 -21001946.57048 -16348575.28945  21133822.9064                   21133822.7034
  -7294442.52047  -5675470.28544  22978091.9304                   22978093.0944
 11  9 27  1 16 30.0000000  0 10G29G12G02G30G21G05G25G15G26G18
 -26560768.19148 -20681681.00847  20217494.5164                   20217493.7384
 -11008504.41045  -8560472.35242  24580150.8524                   24580154.5664
 -22246102.06247 -17316284.45344  23271694.8054                   23271694.0164
  -8651728.48847  -6725208.25444  23263661.4304                   23263663.6684
  -8374917.93446  -6516301.38744  23430336.0084                   23430335.7774
 -21110609.53547 -16434666.35245  22375630.5864                   22375630.2734
 -13913649.82847 -10823399.97744  23263500.2814                   23263505.0984
 -17705327.14548 -13779647.80946  21284380.9694                   21284381.3484
 -21043237.64848 -16380750.08246  21125965.1724                   21125965.3714
  -7382843.35546  -5744353.89844  22961269.1414                   22961270.4344
 11  9 27  1 17  0.0000000  0 10G29G12G02G30G21G05G25G15G26G18
 -26606812.68048 -20717559.77747  20208732.4774                   20208731.8874
 -10936436.26245  -8504315.43042  24593864.5704                   24593868.8484
 -22205342.85246 -17284524.01244  23279450.3364                   23279450.3094
  -8614360.25047  -6696090.14844  23270773.5314                   23270775.6804
  -8455905.35947  -6579408.38344  23414924.0394                   23414924.4534
 -21046728.46547 -16384888.87545  22387786.8284                   22387786.4184
 -13853059.24247 -10776186.56644  23275030.4304                   23275035.2584
 -17791815.88348 -13847041.53546  21267922.4774                   21267922.0594
 -21083856.80548 -16412401.29746  21118235.9844                   21118235.4064
  -7470982.94547  -5813033.94544  22944497.1884                   22944497.5824
 11  9 27  1 17 30.0000000  0  9G29G02G30G21G05G25G15G26G18
 -26652351.43748 -20753044.47347  20200066.6884                   20200066.0864
 -22164432.02746 -17252645.44544  23287235.1644                   23287235.6414
  -8576670.43047  -6666721.45744  23277945.3134                   23277947.5744
  -8536918.86347  -6642535.72344  23399508.2424                   23399507.4574
 -20982732.10247 -16335021.53945  22399964.9304                   22399964.5864
 -13792341.24247 -10728873.87545  23286585.2664                   23286589.6564
 -17877867.46548 -13914094.62146  21251547.3674                   21251547.1994
 -21123803.27348 -16443528.33646  21110634.1094                   21110633.9494
  -7558861.56247  -5881510.64144  22927774.0634                   22927774.6884
 11  9 27  1 18  0.0000000  0  9G29G02G30G21G05G25G15G26G18
 -26697381.44548 -20788132.74647  20191497.7114                   20191497.1564
 -22123367.44946 -17220647.04744  23295049.3524                   23295049.7114
  -8538660.33647  -6637103.22344  23285178.3364                   23285179.7274
  -8617957.01647  -6705682.25844  23384087.3134                   23384086.4694
 -20918620.89847 -16285064.73445  22412165.0004                   22412164.7774
 -13731497.37547 -10681463.10245  23298163.2194                   23298167.9494
 -17963477.58648 -13980803.70746  21235256.4454                   21235255.9804
 -21163073.72348 -16474128.61745  21103161.2194                   21103160.8834
  -7646476.91047  -5949782.19544  22911100.9144                   22911101.8284
 11  9 27  1 18 30.0000000  0  9G29G02G30G21G05G25G15G26G18
 -25166472.34848 -19595216.50847  20482820.0474                   20482819.3914
 -20506723.25046 -15960924.28544  23602687.0314                   23602687.0164
  -6924906.87947  -5379633.01244  23592264.5394                   23592267.2814
  -7123589.66447  -5541240.07844  23668456.0394                   23668455.9224
 -19278971.76247 -15007416.01645  22724179.7734                   22724179.6644
 -12095105.32047  -9406352.44144  23609558.3134                   23609562.1604
 -16473213.57848 -12819558.92646  21518844.0864                   21518844.1134
 -19626238.18448 -15276594.35546  21395611.1414                   21395611.2114
  -6158398.24247  -4790240.23844  23194273.4694                   23194273.3014
 11  9 27  1 19  0.0000000  0  9G29G02G30G21G05G25G15G26G18
 -25210462.53548 -19629494.52747  20474448.7664                   20474448.0084
 -20465333.12946 -15928672.24644  23610563.7814                   23610563.2774
  -6886247.95346  -5349509.19544  23599621.5394                   23599624.3914
  -7204659.42247  -5604411.26644  23653028.8054                   23653027.5864
 -19214619.70747 -14957271.54745  22736425.2734                   22736425.5204
 -12034001.47747  -9358739.07044  23621186.5784                   23621190.7934
 -16557915.88347 -12885560.62546  21502725.4924                   21502725.1884
 -19664134.89548 -15306124.19146  21388399.8444                   21388399.2814
  -6245468.11347  -4858086.75044  23177703.9924                   23177704.3094
 11  9 27  1 19 30.0000000  0  9G29G02G30G21G05G25G15G26G18
 -25253931.41448 -19663366.34047  20466176.9614                   20466176.4384
 -20423780.27046 -15896293.39143  23618469.9454                   23618469.5904
  -6847269.57847  -5319136.44944  23607039.4454                   23607040.8524
  -7285745.93047  -5667595.52344  23637598.0704                   23637598.1914
 -19150150.90647 -14907036.10545  22748693.4534                   22748692.8794
 -11972772.86347  -9311028.49245  23632837.1724                   23632842.0744
 -16642160.88747 -12951205.98046  21486694.2344                   21486694.4224
 -19701343.48448 -15335117.82846  21381319.0394                   21381319.0514
  -6332265.50447  -4925720.94544  23161187.5554                   23161187.7074
 11  9 27  1 20  0.0000000  0  9G29G02G30G21G05G25G15G26G18
 -25296878.65248 -19696831.66847  20458003.9924                   20458003.5704
 -20382065.53546 -15863788.38744  23626408.4774                   23626407.0044
  -6807976.38746  -5288518.39144  23614515.8524                   23614518.1254
  -7366849.66447  -5730793.18744  23622164.6564                   23622165.0664
 -19085568.50047 -14856712.12545  22760982.9534                   22760982.9534
 -11911423.97747  -9263224.19145  23644512.5234                   23644516.4264
 -16725947.54348 -13016494.19146  21470749.9844                   21470749.4224
 -19737864.03948 -15363575.35245  21374369.4144                   21374368.8014
  -6418791.43447  -4993143.61744  23144722.1724                   23144722.2274
 11  9 27  1 20 30.0000000  0  9G29G02G30G21G05G25G15G26G18
 -25339307.52048 -19729893.08247  20449930.3444                   20449929.5554
 -20340193.45346 -15831160.75443  23634376.1564                   23634375.5984
  -6768375.97346  -5257660.96144  23622052.3054                   23622053.8754
  -7447975.54747  -5794008.10244  23606727.0314                   23606726.9654
 -19020879.23847 -14806304.91045  22773292.9614                   22773292.9224
 -11849962.68447  -9215332.30545  23656207.8524                   23656211.9694
 -16809277.99247 -13081426.90246  21454892.5784                   21454892.5474
 -19773699.91048 -15391499.33645  21367550.2734                   21367549.4964
  -6505050.25447  -5060358.13344  23128306.9774                   23128307.9184
 11  9 27  1 21  0.0000000  0  9G29G02G30G21G05G25G15G26G18
 -25381215.89848 -19762548.90647  20441955.5554                   20441954.5864
 -20298163.46946 -15798410.12944  23642373.9384                   23642374.2304
  -6728471.40246  -5226566.47344  23629645.1724                   23629647.7464
  -7529122.97347  -5857239.81644  23591284.9304                   23591285.1994
 -18956084.71947 -14755815.64545  22785622.5004                   22785622.7464
 -11788391.86747  -9167355.05544  23667924.1094                   23667928.8484
 -16892149.35248 -13146001.88346  21439122.9774                   21439122.6564
 -19808849.57848 -15418888.62546  21360861.3524                   21360860.9494
  -6591041.37147  -5127364.07044  23111943.4384                   23111944.3204
 11  9 27  1 21 30.0000000  0  9G29G02G30G21G05G25G15G26G18
 -25422602.64148 -19794798.27747  20434079.9924                   20434078.9774
 -20255975.13746 -15765536.10544  23650402.7894                   23650402.4454
  -6688265.33646  -5195237.06644  23637296.6564                   23637298.5514
  -7610291.83647  -5920488.22344  23575839.0474                   23575838.2344
 -18891186.61747 -14705245.68445  22797972.0084                   22797972.1054
 -11726714.32847  -9119294.67644  23679660.9224                   23679665.2344
 -16974559.08648 -13210217.17246  21423440.9844                   21423440.0084
 -19843311.54748 -15445742.05546  21354303.3594                   21354303.0904
  -6676764.21147  -5194160.98044  23095630.5474                   23095630.9224
 11  9 27  1 22  0.0000000  0  9G29G02G30G21G05G25G15G26G18
 -25463469.46148 -19826642.50447  20426303.1174                   20426302.2154
 -20213631.29346 -15732540.88344  23658459.7974                   23658459.1564
  -6647764.03946  -5163677.66444  23645004.0634                   23645005.7114
  -7691485.13347  -5983755.68044  23560388.6564                   23560388.6524
 -18826190.10947 -14654599.04345  22810341.0634                   22810340.9574
 -11664936.42247  -9071156.07044  23691416.7424                   23691421.3914
 -17056508.05148 -13274073.41446  21407846.4694                   21407846.3324
 -19877088.05948 -15472061.35245  21347875.6884                   21347875.3874
  -6762221.74247  -5260751.13744  23079368.5234                   23079369.0744
 11  9 27  1 22 30.0000000  0  9G29G02G30G21G05G25G15G26G18
 -25503813.02348 -19858079.00847  20418626.0634                   20418625.0664
 -20171129.87946 -15699422.86343  23666547.6334                   23666546.7734
  -6606968.95346  -5131889.28144  23652766.2504                   23652768.3954
  -7772700.81247  -6047040.53544  23544934.1024                   23544933.6914
 -18761095.54747 -14603875.99645  22822727.5554                   22822727.3594
 -11603059.46947  -9022940.30544  23703192.0944                   23703196.3594
 -17137991.93748 -13337567.27046  21392340.1954                   21392339.7464
 -19910176.23048 -15497844.27746  21341579.2584                   21341578.9184
  -6847411.85247  -5327132.91444  23063157.0474                   23063157.4804
 11  9 27  1 23  0.0000000  0  9G29G02G30G21G05G25G15G26G18
 -25543631.07448 -19889106.01647  20411048.5164                   20411047.9534
 -20128469.63747 -15666181.08244  23674666.3754                   23674664.5514
  -6565882.32446  -5099873.73844  23660585.5394                   23660587.4884
  -7853937.98447  -6110342.18044  23529474.9454                   23529474.8244
 -18695904.12547 -14553077.46945  22835133.7344                   22835133.3284
 -11541085.83647  -8974649.20344  23714985.0394                   23714989.2894
 -17219007.48048 -13400696.17246  21376923.5944                   21376923.4804
 -19942574.28148 -15523089.43746  21335414.3914                   21335414.1564
  -6932333.59847  -5393305.60944  23046997.2814                   23046997.7194
 11  9 27  1 23 30.0000000  0  9G29G02G30G21G05G25G15G26G18
 -25582923.92248 -19919723.78547  20403571.5314                   20403570.8164
 -20085652.14847 -15632816.76244  23682814.4534                   23682813.3484
  -6524508.87547  -5067634.69544  23668458.8284                   23668460.5084
  -7935198.25847  -6173661.80144  23514011.1954                   23514011.0554
 -18630619.21547 -14502206.09845  22847556.4534                   22847555.9494
 -11479020.27047  -8926286.43444  23726795.7034                   23726799.8594
 -17299553.62147 -13463459.30946  21361596.2344                   21361595.4064
 -19974282.49248 -15547797.07446  21329380.0704                   21329380.1294
  -7016988.42647  -5459270.30144  23030888.2664                   23030888.7304
 11  9 27  1 24  0.0000000  0  9G29G02G30G21G05G25G15G26G18
 -25621691.75848 -19949932.44547  20396194.2504                   20396193.4304
 -20042678.73447 -15599330.92244  23690992.0474                   23690990.8444
  -6482853.30547  -5035175.84044  23676385.5004                   23676387.1884
  -8016482.75447  -6237000.26244  23498542.9224                   23498543.1954
 -18565244.52747 -14451264.77345  22859997.1564                   22859996.4614
 -11416867.28947  -8877855.58244  23738622.6644                   23738627.7934
 -17379629.55548 -13525856.04346  21346358.1644                   21346357.4804
 -20005301.68048 -15571967.81246  21323477.5004                   21323477.2504
  -7101377.69947  -5525028.07444  23014829.2664                   23014829.7234
 11  9 27  1 24 30.0000000  0  9G29G02G30G21G05G25G15G26G18
 -25659932.26648 -19979730.20347  20388917.3914                   20388916.6134
 -19999547.58647 -15565722.19544  23699199.6094                   23699198.8054
  -6440917.59846  -5002498.68044  23684364.8594                   23684368.1644
  -8097790.14547  -6300356.58644  23483070.9224                   23483070.8324
 -18499780.86747 -14400254.08245  22872454.1094                   22872454.4574
 -11354629.03547  -8829358.25444  23750466.0944                   23750470.6334
 -17459231.98848 -13587883.83646  21331210.0084                   21331209.9534
 -20035629.56248 -15595599.86346  21317706.1804                   21317705.7854
  -7185499.70747  -5590577.58644  22998821.0704                   22998821.1484
 11  9 27  1 25  0.0000000  0  9G29G02G30G21G05G25G15G26G18
 -25697644.28148 -20009116.14547  20381740.6804                   20381740.2274
 -19956258.84447 -15531990.70344  23707436.9304                   23707435.7114
  -6398705.03546  -4969605.80944  23692397.8674                   23692400.4344
  -8179120.91847  -6363731.11345  23467594.2734                   23467593.8674
 -18434229.59447 -14349175.14545  22884928.2274                   22884928.8094
 -11292308.59847  -8780796.89844  23762325.2734                   23762329.6484
 -17538358.74248 -13649540.94946  21316152.5784                   21316151.8794
 -20065265.33248 -15618692.60946  21312066.6804                   21312066.0594
  -7269354.60947  -5655918.97744  22982863.8984                   22982864.0784
 11  9 27  1 25 30.0000000  0  9G29G02G30G21G05G25G15G26G18
 -25734825.86348 -20038088.77047  20374665.1484                   20374664.6454
 -19912811.41047 -15498135.55144  23715704.3754                   23715704.6374
  -6356218.10246  -4936499.10944  23700483.3364                   23700485.8204
  -8260474.06247  -6427123.05545  23452112.6024                   23452112.9884
 -18368592.70747 -14298029.47345  22897418.6334                   22897418.4614
 -11229908.53147  -8732173.50044  23774200.1484                   23774204.7194
 -17617006.71548 -13710825.01646  21301186.8594                   21301186.0474
 -20094207.80548 -15641245.12946  21306558.9454                   21306558.3524
  -7352941.43447  -5721051.45744  22966958.0004                   22966957.7274
 11  9 27  1 26  0.0000000  0  9G29G02G30G21G05G25G15G26G18
 -25771476.23048 -20066647.45747  20367691.1414                   20367690.2704
 -19869206.01247 -15464157.32044  23724002.8674                   23724001.8954
  -6313460.81247  -4903181.77044  23708620.1644                   23708621.7034
  -8341849.96547  -6490532.73044  23436627.9844                   23436627.2194
 -18302872.73447 -14246819.06245  22909924.7974                   22909924.9924
 -11167432.68447  -8683491.05944  23786089.2424                   23786093.1764
 -17695174.35548 -13771734.78146  21286311.8364                   21286310.9264
 -20122456.52048 -15663257.06246  21301183.4534                   21301182.9144
  -7436261.06647  -5785975.74244  22951102.7664                   22951102.1684
 11  9 27  1 26 30.0000000  0  9G29G02G30G21G05G25G15G26G18
 -25807593.05948 -20094790.39547  20360818.2584                   20360817.3324
 -19825441.00846 -15430054.69944  23732330.4384                   23732330.1914
  -6270434.77047  -4869655.01244  23716807.4774                   23716809.9454
  -8423247.24647  -6553959.06644  23421137.7894                   23421137.9884
 -18237070.07047 -14195544.23445  22922446.8914                   22922447.1134
 -11104882.91047  -8634750.99644  23797991.6254                   23797995.2664
 -17772858.03548 -13832267.44546  21271529.1724                   21271528.2154
 -20150009.43448 -15684726.81246  21295939.9384                   21295939.9384
  -7519311.83247  -5850690.53945  22935298.9454                   22935298.6724
 11  9 27  1 27  0.0000000  0  9G29G02G30G21G05G25G15G26G18
 -25843174.53948 -20122516.18047  20354047.6564                   20354046.5434
 -19781515.56646 -15395827.07844  23740688.6174                   23740688.8444
  -6227142.81647  -4835921.05944  23725045.8524                   23725047.5824
  -8504665.07847  -6617401.41445  23405645.1174                   23405644.8404
 -18171186.15647 -14144206.08245  22934983.7894                   22934984.2814
 -11042261.67247  -8585955.26644  23809908.3284                   23809912.2704
 -17850054.86348 -13892420.74646  21256838.8984                   21256838.3054
 -20176865.14548 -15705653.28146  21290829.5704                   21290829.5904
  -7602092.91047  -5915195.16444  22919545.8284                   22919546.0434
 11  9 27  1 27 30.0000000  0  9G29G02G30G21G05G25G15G26G18
 -25878218.78948 -20149823.34047  20347378.5784                   20347377.5984
 -19737428.84446 -15361473.80544  23749078.4384                   23749077.6174
  -6183587.18046  -4801981.64144  23733333.4694                   23733336.2074
  -8586102.56247  -6680859.07444  23390147.5314                   23390146.9654
 -18105221.99247 -14092805.40245  22947536.0004                   22947536.1484
 -10979571.25447  -8537105.59444  23821837.4224                   23821841.8014
 -17926762.03948 -13952192.50046  21242241.7664                   21242241.2234
 -20203022.23848 -15726035.38746  21285852.2584                   21285852.0744
  -7684603.40647  -5979488.97744  22903844.2114                   22903843.9384
 11  9 27  1 28  0.0000000  0  9G29G02G30G21G05G25G15G26G18
 -25912726.83248 -20176712.68447  20340811.5554                   20340810.9574
 -19693182.52046 -15326996.15644  23757497.9614                   23757498.0474
  -6139773.11746  -4767840.83644  23741671.3054                   23741673.9924
  -8667561.46947  -6744333.46544  23374646.5704                   23374645.5394
 -18039181.62547 -14041345.35245  22960102.8524                   22960104.0704
 -10916816.93047  -8488206.17244  23833779.8674                   23833783.7624
 -18002979.14848 -14011582.38346  21227738.1644                   21227737.8204
 -20228482.03147 -15745874.13746  21281007.2734                   21281006.9774
  -7766845.44147  -6043573.56244  22888194.2814                   22888194.2814
 11  9 27  1 28 30.0000000  0  9G29G02G30G21G05G25G15G26G18
 -25946695.11348 -20203181.43047  20334347.9144                   20334347.1134
 -19648774.34846 -15292392.37544  23765948.7504                   23765949.0004
  -6095701.93046  -4733499.68744  23750057.7344                   23750060.0004
  -8749039.57447  -6807822.78944  23359141.8134                   23359141.1884
 -17973064.70347 -13989825.66845  22972684.8204                   22972685.3834
 -10853999.64547  -8439257.65644  23845733.3674                   23845738.3014
 -18078702.02348 -14070587.14546  21213328.5084                   21213327.7584
 -20253241.85548 -15765167.43746  21276295.4844                   21276294.6134
  -7848816.74647  -6107447.19944  22872595.5474                   22872595.6134
 11  9 27  1 29  0.0000000  0  9G29G02G30G21G05G25G15G26G18
 -25980126.90648 -20229232.12947  20327986.0314                   20327985.1134
 -19604208.38746 -15257665.68044  23774428.7894                   23774429.5004
  -6051380.79346  -4698963.79744  23758491.8054                   23758494.1884
  -8830540.98847  -6871330.26644  23343632.5704                   23343631.5164
 -17906877.55147 -13938251.23445  22985279.7664                   22985279.7344
 -10791126.72747  -8390265.80544  23857697.7344                   23857702.2154
 -18153932.65248 -14129208.33646  21199012.2664                   21199011.9384
 -20277305.16048 -15783918.02046  21271716.1174                   21271716.2344
  -7930521.39847  -6171113.03944  22857047.4774                   22857047.4774
 11  9 27  1 29 30.0000000  0  9G29G02G30G21G05G25G15G26G18
 -26013020.94148 -20254863.80147  20321726.3674                   20321725.9384
 -19559484.01246 -15222815.54344  23782939.8444                   23782940.0864
  -6006812.77046  -4664235.48444  23766972.6804                   23766975.4184
  -8912064.99647  -6934855.39144  23328118.3834                   23328118.8324
 -17840621.75847 -13886623.30545  22997888.0234                   22997887.7544
 -10728200.97347  -8341232.77744  23869672.4774                   23869676.3714
 -18228668.58648 -14187444.06246  21184790.6094                   21184790.3204
 -20300670.95747 -15802125.09046  21267270.0394                   21267270.0704
  -8011959.12947  -6234570.88744  22841550.1724                   22841550.2154
 11  9 27  1 30  0.0000000  0  9G29G02G30G21G05G25G15G26G18
 -26045374.13348 -20280074.04747  20315569.9304                   20315569.1484
 -19514599.51246 -15187840.62944  23791481.1414                   23791481.7584
  -5961999.05947  -4629315.73844  23775500.9844                   23775503.1094
  -8993610.15647  -6998396.98044  23312600.8834                   23312600.6644
 -17774297.00847 -13834941.66845  23010508.8444                   23010509.2504
 -10665223.56247  -8292159.50444  23881656.1174                   23881661.0004
 -18302905.73448 -14245291.11346  21170663.9144                   21170662.9734
 -20323337.17647 -15819787.02046  21262956.9844                   21262956.3284
  -8093127.74647  -6297819.02344  22826104.4844                   22826104.1094
 11  9 27  1 30 30.0000000  0  9G29G02G30G21G05G25G15G26G18
 -26077185.71548 -20304862.24247  20309516.1724                   20309515.3984
 -19469554.33246 -15152740.48444  23800052.9384                   23800053.2854
  -5916943.21946  -4594207.32444  23784074.6094                   23784077.1724
  -9075175.81647  -7061954.54744  23297079.6254                   23297079.0744
 -17707905.54347 -13783208.01645  23023143.2034                   23023142.4304
 -10602197.88747  -8243048.61744  23893650.0004                   23893654.6294
 -18376641.96948 -14302747.85246  21156632.2504                   21156631.4844
 -20345303.17248 -15836903.33245  21258776.7114                   21258776.3404
  -8174027.63347  -6360857.76244  22810709.4064                   22810709.3674
 11  9 27  1 31  0.0000000  0  9G29G02G30G21G05G25G15G26G18
 -26108453.81248 -20329226.95747  20303566.0634                   20303565.6644
 -19424347.78546 -15117514.59844  23808655.5234                   23808655.8404
  -5871647.43747  -4558911.93744  23792693.9924                   23792696.4734
  -9156760.82447  -7125527.20745  23281554.4304                   23281553.7504
 -17641448.28947 -13731423.09445  23035789.2194                   23035788.6484
 -10539126.10547  -8193901.80544  23905651.7814                   23905657.1524
 -18449874.64148 -14359812.20346  21142696.4384                   21142695.8714
 -20366567.79348 -15853473.10246  21254730.2504                   21254729.5664
  -8254657.63746  -6423686.20345  22795366.2734                   22795366.1294
 11  9 27  1 31 30.0000000  0  9G29G02G30G21G05G25G15G26G18
 -26139178.84048 -20353168.49647  20297719.3524                   20297718.6414
 -19378981.37946 -15082164.17244  23817289.1804                   23817289.3134
  -5826116.77347  -4523433.54344  23801358.2814                   23801360.8594
  -9238366.80547  -7189116.20745  23266025.1094                   23266023.8594
 -17574928.69947 -13679589.60945  23048447.5164                   23048446.9454
 -10476012.98847  -8144722.78944  23917661.4144                   23917667.2504
 -18522603.46548 -14416483.94546  21128856.8284                   21128855.6214
 -20387132.38348 -15869497.39546  21250816.5634                   21250816.1134
  -8335019.46147  -6486305.65245  22780073.8204                   22780073.5514
 11  9 27  1 32  0.0000000  0  9G29G02G30G21G05G25G15G26G18
 -26169359.14548 -20376685.57047  20291976.0004                   20291975.5004
 -19333453.64547 -15046688.01644  23825952.4304                   23825952.0594
  -5780353.47347  -4487773.85944  23810067.5234                   23810069.1454
  -9319992.48447  -7252720.56244  23250492.1094                   23250491.7424
 -17508347.79747 -13627708.33645  23061117.8754                   23061116.2304
 -10412860.62147  -8095513.23044  23929679.3834                   23929684.7304
 -18594824.93448 -14472760.34846  21115113.3594                   21115112.7504
 -20406995.21948 -15884974.87946  21247037.0704                   21247036.2194
  -8415112.22347  -6548715.46944  22764832.2814                   22764832.2074
 11  9 27  1 32 30.0000000  0  9G29G02G30G21G05G25G15G26G18
 -26198994.07448 -20399777.68047  20286336.7194                   20286335.7814
 -19287765.05546 -15011086.51644  23834646.6414                   23834646.1054
  -5734361.04747  -4451935.62144  23818819.2894                   23818821.2114
  -9401638.08647  -7316340.44544  23234955.5554                   23234954.8094
 -17441707.57047 -13575780.82045  23073798.8284                   23073797.4494
 -10349672.54747  -8046275.80144  23941703.4144                   23941709.1174
 -18666537.73048 -14528640.38346  21101466.9694                   21101465.8364
 -20426156.61748 -15899905.79346  21243390.4614                   21243389.7774
  -8494936.23447  -6610915.85245  22749642.1334                   22749641.7074
 11  9 27  1 33  0.0000000  0  9G29G02G30G21G05G25G15G26G18
 -26228080.14148 -20422442.10947  20280801.7974                   20280800.8204
 -19241913.09047 -14975357.68744  23843372.2894                   23843372.1454
  -5688140.32447  -4415919.53144  23827614.7974                   23827617.4414
  -9483300.96947  -7379973.78545  23219415.8524                   23219414.8674
 -17375007.32847 -13523806.57045  23086491.3284                   23086490.6914
 -10286449.23446  -7997010.93744  23953734.8364                   23953739.4534
 -18737737.32848 -14584120.53146  21087917.8364                   21087916.7814
 -20444613.63348 -15914287.83246  21239878.4694                   21239877.7774
  -8574489.07447  -6672904.94545  22734503.7734                   22734503.2584
 11  9 27  1 33 30.0000000  0  9G29G02G30G21G05G25G15G26G18
 -26256616.80548 -20444678.43447  20275371.6484                   20275370.5474
 -19195897.93047 -14939501.68044  23852128.6954                   23852128.1134
  -5641694.94146  -4379728.37944  23836452.4694                   23836455.6564
  -9564981.48047  -7443620.90244  23203872.5864                   23203871.2194
 -17308249.54747 -13471787.48845  23099195.2894                   23099194.2704
 -10223194.33646  -7947721.46544  23965771.1414                   23965777.0744
 -18808421.71148 -14639199.20346  21074466.6644                   21074465.9694
 -20462366.41048 -15928121.10546  21236500.4454                   21236499.5664
  -8653771.21947  -6734683.11745  22719416.9064                   22719416.5044
 11  9 27  1 34  0.0000000  0  9G29G02G30G21G05G25G15G26G18
 -26284602.09048 -20466485.12147  20270045.8914                   20270045.2384
 -19149717.84447 -14903517.16444  23860916.6564                   23860915.4734
  -5595026.76247  -4343363.59444  23845333.9924                   23845336.6954
  -9646677.44947  -7507280.00445  23188326.0634                   23188325.2664
 -17241434.49647 -13419723.75845  23111909.3754                   23111909.1724
 -10159909.41946  -7898408.62144  23977814.3984                   23977820.1214
 -18878588.13748 -14693874.27346  21061114.5474                   21061113.6724
 -20479413.19548 -15941404.25846  21233256.0474                   21233255.5704
  -8732781.24647  -6796249.22745  22704381.8054                   22704381.2854
 11  9 27  1 34 30.0000000  0  9G29G02G30G21G05G25G15G26G18
 -26312037.60948 -20487863.40247  20264825.1564                   20264824.4264
 -19103375.57447 -14867406.25043  23869734.6804                   23869733.7704
  -5548141.73447  -4306829.84044  23854256.1024                   23854257.7894
  -9728391.37147  -7570953.12544  23172776.3204                   23172775.4064
 -17174566.64847 -13367618.94145  23124633.9614                   23124633.4804
 -10096600.34846  -7849076.87144  23989862.2344                   23989866.5234
 -18948237.01248 -14748146.06246  21047860.9224                   21047860.2304
 -20495756.61748 -15954139.33246  21230146.1954                   21230145.5984
  -8811521.63347  -6857605.24245  22689397.4534                   22689397.1374
 11  9 27  1 35  0.0000000  0  9G29G02G30G21G05G25G15G26G18
 -26338921.50048 -20508811.85247  20259709.0394                   20259708.4734
 -19056870.26247 -14831168.30143  23878584.4064                   23878583.2304
  -5501042.31647  -4270129.01244  23863218.3594                   23863221.0204
  -9810122.27047  -7634639.44945  23157223.4774                   23157223.0354
 -17107647.00846 -13315473.74645  23137368.1334                   23137368.2854
 -10033269.34047  -7799728.10244  24001913.8054                   24001919.4534
 -19017365.58648 -14802012.41046  21034706.3524                   21034705.5704
 -20511395.62547 -15966325.51246  21227170.2194                   21227169.0944
  -8889991.97747  -6918750.84044  22674465.4304                   22674465.0274
 11  9 27  1 35 30.0000000  0  9G29G02G30G21G05G25G15G26G18
 -26365252.79348 -20529329.71147  20254698.6094                   20254697.4654
 -19010201.34846 -14794802.90243  23887465.3444                   23887465.2504
  -5453731.42247  -4233263.39544  23872221.3984                   23872223.4184
  -9891869.55947  -7698338.53144  23141667.3284                   23141666.5594
 -17040677.36347 -13263289.60545  23150112.2274                   23150112.3554
  -9969918.99246  -7750364.25444  24013969.2504                   24013972.9884
 -19085971.58248 -14855471.57046  21021650.5864                   21021650.1334
 -20526329.76248 -15977962.44946  21224328.2034                   21224327.8714
  -8968192.02347  -6979685.81244  22659583.7274                   22659583.6804
 11  9 27  1 36  0.0000000  0  9G29G02G30G21G05G25G15G26G18
 -26391030.63748 -20549416.31247  20249793.4064                   20249792.1994
 -18963368.42646 -14758309.69543  23896376.8984                   23896376.3524
  -5406212.09846  -4196235.36744  23881264.0634                   23881266.4304
  -9973632.77047  -7762050.02745  23126108.2814                   23126107.5744
 -16973658.50447 -13211067.09845  23162865.3444                   23162864.9734
  -9906552.19146  -7700987.58644  24026027.8524                   24026031.8324
 -19154052.91448 -14908521.88746  21008695.1414                   21008694.2544
 -20540558.59448 -15989049.80546  21221620.6484                   21221619.7504
  -9046121.45347  -7040409.93445  22644754.4454                   22644753.8554
 11  9 27  1 36 30.0000000  0  9G29G02G30G21G05G25G15G26G18
 -26416254.81248 -20569071.48047  20244993.0944                   20244992.1644
 -18916372.13346 -14721689.19543  23905319.7424                   23905319.2894
  -5358487.87546  -4159047.69543  23890345.0474                   23890348.3484
 -10055411.68447  -7825773.75045  23110545.8984                   23110545.3594
 -16906592.68747 -13158807.98845  23175627.5554                   23175627.4614
  -9843172.42647  -7651600.80944  24038087.8914                   24038092.9884
 -19221608.39848 -14961162.46946  20995840.0704                   20995839.2624
 -20554082.46548 -15999587.84846  21219046.6024                   21219046.4024
  -9123780.80147  -7100923.59044  22629976.0554                   22629975.6374
 11  9 27  1 37  0.0000000  0  9G29G02G30G21G05G25G15G26G18
 -26440924.53948 -20588294.61347  20240298.3984                   20240297.6524
 -18869212.16446 -14684941.16044  23914295.4384                   23914294.4734
  -5310562.21946  -4121703.06243  23899465.7424                   23899467.5984
 -10137206.55947  -7889509.92245  23094981.4304                   23094980.3204
 -16839482.07447 -13106513.98045  23188398.2814                   23188398.5234
  -9779782.83647  -7602206.37544  24050150.7194                   24050155.7194
 -19288636.09848 -15013391.77346  20983084.7734                   20983084.0944
 -20566901.61748 -16009576.74246  21216607.3984                   21216607.1764
  -9201170.24247  -7161226.93745  22615249.7034                   22615248.8324
 11  9 27  1 37 30.0000000  0  9G29G02G30G21G05G25G15G26G18
 -26465037.72348 -20607084.07047  20235709.9844                   20235709.0514
 -18821887.48446 -14648064.80943  23923299.6094                   23923299.2114
  -5262437.46146  -4084203.27343  23908623.0944                   23908625.8874
 -10219015.86747  -7953257.31245  23079413.0394                   23079412.0864
 -16772327.43047 -13054185.66445  23201177.1174                   23201177.6954
  -9716385.50447  -7552805.90244  24062214.6024                   24062219.5904
 -19355133.02048 -15065207.50046  20970430.7814                   20970429.5474
 -20579015.00048 -16019015.68746  21214302.1884                   21214301.7584
  -9278288.86347  -7221319.25845  22600574.2584                   22600573.9614
 11  9 27  1 38  0.0000000  0  9G29G02G30G21G05G25G15G26G18
 -26488597.10948 -20625442.00447  20231226.7584                   20231225.4844
 -18774401.21146 -14611062.53943  23932335.7274                   23932335.1564
  -5214120.04746  -4046553.37144  23917817.8054                   23917820.3444
 -10300842.50447  -8017018.22345  23063842.0864                   23063840.9924
 -16705133.69546 -13001826.88345  23213963.3914                   23213963.1994
  -9652986.64147  -7503404.24644  24074279.4144                   24074283.3714
 -19421100.51648 -15116610.68446  20957877.7734                   20957876.4844
 -20590425.79348 -16027907.16846  21212131.1484                   21212130.3054
  -9355140.03947  -7281203.18445  22585949.9304                   22585949.1024
 11  9 27  1 38 30.0000000  0  9G29G02G30G21G05G25G15G26G18
 -26511596.98848 -20643363.94947  20226850.0084                   20226849.4264
 -18726748.09446 -14573930.29743  23941403.5164                   23941404.6454
  -5165608.19546  -4008751.94544  23927049.3754                   23927051.5314
 -10382680.82047  -8080788.23045  23048268.8284                   23048268.2544
 -16637897.49647 -12949435.00845  23226759.3134                   23226758.3324
  -9589584.18047  -7453999.77344  24086344.4694                   24086349.0354
 -19486531.89548 -15167596.11346  20945426.2814                   20945425.4494
 -20601128.93748 -16036247.22746  21210094.5084                   21210093.1334
  -9431718.83247  -7340874.88745  22571376.9224                   22571376.4804
 11  9 27  1 39  0.0000000  0  9G29G02G30G21G05G25G15G26G18
 -26534041.58248 -20660853.21147  20222579.0394                   20222578.0004
 -18678932.61746 -14536671.52344  23950502.7814                   23950503.3054
  -5116909.84846  -3970805.19544  23936316.4144                   23936318.8834
 -10464535.19947  -8144570.75445  23032691.9304                   23032691.1804
 -16570625.18447 -12897014.99645  23239560.2194                   23239559.6134
  -9526185.87147  -7404598.53943  24098408.6644                   24098412.9104
 -19551430.27048 -15218166.21146  20933076.7974                   20933075.4104
 -20611129.41048 -16044039.74646  21208190.9774                   21208190.1374
  -9508029.92647  -7400337.98845  22556855.8364                   22556855.2544
 11  9 27  1 39 30.0000000  0  9G29G02G30G21G05G25G15G26G18
 -26555928.25448 -20677907.73447  20218414.0394                   20218413.0744
 -18630953.14846 -14499284.96544  23959633.4844                   23959633.7344
  -5068026.57047  -3932714.37544  23945618.5084                   23945621.3404
 -10546403.92246  -8208364.43745  23017112.7814                   23017112.0944
 -16503316.75046 -12844566.82844  23252367.9384                   23252367.9804
  -9462792.92247  -7355201.50043  24110472.4454                   24110477.3284
 -19615791.91048 -15268318.08646  20920828.7894                   20920827.9104
 -20620425.34848 -16051283.27746  21206422.2894                   21206421.1294
  -9584071.52747  -7459591.09845  22542385.6884                   22542384.8484
 11  9 27  1 40  0.0000000  0  9G29G02G30G21G05G25G15G26G18
 -26577257.13748 -20694527.60947  20214354.9384                   20214354.3204
 -18582810.42246 -14461771.18744  23968795.5164                   23968794.8594
  -5018962.22346  -3894482.43443  23954955.3204                   23954957.5864
 -10628287.22747  -8272169.49645  23001531.3834                   23001530.0514
 -16435974.55147 -12792092.37144  23265183.4064                   23265182.5084
  -9399409.07447  -7305811.54344  24122534.0634                   24122537.6374
 -19679615.82448 -15318050.94546  20908683.9614                   20908682.2894
 -20629017.81248 -16057978.64146  21204786.7664                   21204786.0394
  -9659845.02747  -7518635.30545  22527966.2424                   22527965.1884
 11  9 27  1 40 30.0000000  0  9G29G02G30G21G05G25G15G26G18
 -26598025.98848 -20710711.09847  20210402.8984                   20210401.8874
 -18534502.52046 -14424128.67644  23977988.2034                   23977987.1374
  -4969718.26646  -3856110.56243  23964325.8914                   23964329.1214
 -10710183.04747  -8335984.29745  22985946.6254                   22985945.6024
 -16368598.22347 -12739591.32444  23278004.3054                   23278003.8914
  -9336035.46547  -7256429.55944  24134593.2274                   24134598.2234
 -19742898.73448 -15367362.23446  20896640.8914                   20896639.9884
 -20636905.20748 -16064124.60946  21203285.5314                   21203285.6054
  -9735348.66447  -7577469.23045  22513598.5864                   22513597.6844
 11  9 27  1 41  0.0000000  0  9G29G02G30G21G05G25G15G26G18
 -26618236.02048 -20726459.13347  20206557.1644                   20206556.2344
 -18486031.27347 -14386358.87944  23987212.1804                   23987211.3714
  -4920300.05947  -3817602.93443  23973730.3284                   23973732.7074
 -10792092.44547  -8399809.70745  22970359.4534                   22970358.7154
 -16301191.64847 -12687066.68744  23290831.1954                   23290830.9184
  -9272677.15647  -7207059.50844  24146650.1644                   24146654.1564
 -19805640.73448 -15416252.04746  20884701.9774                   20884700.6024
 -20644089.66048 -16069722.84446  21201918.8364                   21201918.2504
  -9810584.41447  -7636094.42645  22499281.1724                   22499280.3874
 11  9 27  1 41 30.0000000  0  9G29G02G30G21G05G25G15G26G18
 -26637884.87948 -20741769.90647  20202818.0864                   20202817.0704
 -18437394.98447 -14348460.48444  23996467.4614                   23996466.9344
  -4870709.21147  -3778960.74244  23983167.1884                   23983169.4454
 -10874013.52747  -8463644.20745  22954770.9304                   22954769.6764
 -16233754.77047 -12634518.46545  23303663.4614                   23303663.9224
  -9209335.41047  -7157702.35244  24158703.7194                   24158707.2304
 -19867838.16448 -15464717.52346  20872866.0004                   20872864.7234
 -20650569.83648 -16074772.27346  21200685.4774                   21200684.6214
  -9885550.71147  -7694509.65245  22485015.7894                   22485014.8364
 11  9 27  1 42  0.0000000  0  9G29G02G30G21G05G25G15G26G18
 -26656972.34448 -20756643.21547  20199185.8524                   20199184.6764
 -18388593.75847 -14310433.54344  24005754.0784                   24005752.7544
  -4820948.91447  -3740186.54743  23992636.2974                   23992638.2584
 -10955945.97347  -8527487.55945  22939179.0234                   22939178.2664
 -16166289.34847 -12581947.99245  23316502.3674                   23316502.1804
  -9146013.28947  -7108360.51644  24170753.2034                   24170758.6454
 -19929489.98048 -15512757.84046  20861133.9384                   20861132.7074
 -20656346.03148 -16079273.16446  21199586.7114                   21199585.8054
  -9960248.07047  -7752715.32045  22470801.0004                   22470800.2704
 11  9 27  1 42 30.0000000  0  9G29G02G30G21G05G25G15G26G18
 -26675499.66448 -20771080.05547  20195660.2034                   20195659.2624
 -18339628.96946 -14272279.19944  24015071.5234                   24015070.2424
  -4771024.16846  -3701284.16444  24002136.7664                   24002139.0314
 -11037891.09447  -8591340.79745  22923585.9144                   22923584.5784
 -16098798.33247 -12529357.55945  23329345.3674                   23329345.3794
  -9082715.31247  -7059037.48444  24182798.4384                   24182802.9384
 -19990595.85548 -15560372.74246  20849505.6484                   20849504.9694
 -20661420.15648 -16083226.98046  21198620.8364                   21198620.0984
 -10034677.96947  -7810712.58245  22456637.6644                   22456636.7544
 11  9 27  1 43  0.0000000  0  9G29G02G30G21G05G25G15G26G18
 -26693463.35548 -20785077.70347  20192242.0704                   20192240.8914
 -18290497.81246 -14233995.16844  24024420.4304                   24024420.6374
  -4720935.23447  -3662253.82443  24011668.4454                   24011669.7704
 -11119846.01247  -8655201.66845  22907990.2114                   22907988.1724
 -16031280.97747 -12476746.60545  23342193.6804                   23342194.0314
  -9019441.52046  -7009733.31244  24194838.8204                   24194844.9844
 -20051151.63748 -15607559.01246  20837982.6334                   20837981.0704
 -20665789.72348 -16086631.79346  21197789.0394                   21197788.1684
 -10108837.85947  -7868499.44945  22442525.2504                   22442524.3554
 11  9 27  1 43 30.0000000  0  9G29G02G30G21G05G25G15G26G18
 -26710864.49248 -20798637.00047  20188930.3914                   20188929.1844
 -18241202.05947 -14195582.89544  24033800.6644                   24033801.2704
  -4670687.37147  -3623099.69943  24021229.9064                   24021231.8284
 -11201811.93447  -8719071.12545  22892392.2734                   22892391.3164
 -15963740.54747 -12424117.67645  23355046.2194                   23355045.9344
  -8956196.96547  -6960451.93744  24206874.2424                   24206879.1414
 -20111157.34048 -15654316.63746  20826563.7734                   20826562.5554
 -20669457.14148 -16089489.46546  21197091.0084                   21197090.5044
 -10182729.94547  -7926077.64145  22428464.0634                   22428462.7624
 11  9 27  1 44  0.0000000  0  9G29G02G30G21G05G25G15G26G18
 -26727701.77048 -20811756.92647  20185726.4774                   20185725.3094
 -18191740.75847 -14157041.63744  24043213.8914                   24043212.9104
  -4620282.78947  -3583823.38343  24030822.0004                   24030823.6334
 -11283786.94547  -8782947.66045  22876792.7894                   22876791.3364
 -15896177.62147 -12371471.22745  23367902.8444                   23367903.3874
  -8892983.40247  -6911194.69544  24218903.2114                   24218908.4534
 -20170610.28148 -15700643.54746  20815250.2504                   20815249.2624
 -20672421.73848 -16091799.49646  21196527.1254                   21196526.3444
 -10256353.38747  -7983446.48045  22414453.7814                   22414453.3794
 11  9 27  1 44 30.0000000  0  9G29G02G30G21G05G25G15G26G18
 -26743975.34448 -20824437.59447  20182629.5944                   20182628.5594
 -18142113.89146 -14118371.38343  24052656.7424                   24052656.5824
  -4569724.94147  -3544427.66043  24040442.7114                   24040444.3444
 -11365771.29347  -8846831.47345  22861191.6804                   22861190.6174
 -15828593.98447 -12318808.62145  23380763.5784                   23380763.5124
  -8829804.04347  -6861964.13744  24230926.6724                   24230931.4734
 -20229509.49648 -15746538.97346  20804041.7734                   20804040.8204
 -20674684.37548 -16093562.52746  21196096.5864                   21196095.7544
 -10329708.61747  -8040606.33245  22400494.8984                   22400494.4884
 11  9 27  1 45  0.0000000  0  9G29G02G30G21G05G25G15G26G18
 -26759685.19948 -20836679.00847  20179640.2194                   20179638.9304
 -18092321.96946 -14079572.46143  24062131.7664                   24062131.5044
  -4519017.33247  -3504915.28143  24050092.0164                   24050093.8404
 -11447764.78547  -8910722.42245  22845588.6954                   22845587.6334
 -15760991.27747 -12266131.17244  23393627.3914                   23393627.9224
  -8766662.06647  -6812762.66444  24242942.1564                   24242946.9534
 -20287853.68448 -15792001.91846  20792939.3984                   20792937.9844
 -20676245.64148 -16094779.05146  21195799.1254                   21195798.2774
 -10402796.03947  -8097557.51245  22386586.8524                   22386586.0514
 11  9 27  1 45 30.0000000  0  9G29G02G30G21G05G25G15G26G18
 -26774830.78948 -20848480.74247  20176758.1094                   20176757.1844
 -18042364.95346 -14040644.86742  24071638.1174                   24071637.3794
  -4468163.39546  -3465288.84043  24059769.1954                   24059771.4734
 -11529766.92247  -8974620.10245  22829984.5704                   22829983.5784
 -15693371.23447 -12213440.21144  23406495.7114                   23406495.0904
  -8703560.52047  -6763592.67244  24254949.9454                   24254954.9734
 -20345641.46948 -15837031.30146  20781942.5084                   20781941.4694
 -20677106.35548 -16095449.69546  21195635.3204                   21195634.9774
 -10475616.19147  -8154300.40645  22372729.6254                   22372728.9304
 11  9 27  1 46  0.0000000  0  9G29G02G30G21G05G25G15G26G18
 -26789409.21948 -20859840.53547  20173984.0864                   20173983.0164
 -17992240.90246 -14001587.08242  24081176.1804                   24081175.1054
  -4417164.25046  -3425549.30943  24069473.7424                   24069476.5514
 -11611774.94147  -9038522.37545  22814378.6174                   22814377.1294
 -15625733.62147 -12160735.55944  23419366.7504                   23419366.3594
  -8640500.29347  -6714454.91444  24266949.4224                   24266955.2464
 -20402869.19948 -15881624.27346  20771052.5474                   20771051.2704
 -20677264.82048 -16095573.13746  21195605.8444                   21195604.8554
 -10548167.25447  -8210833.62545  22358923.7814                   22358922.6024
 11  9 27  1 46 30.0000000  0  9G29G02G30G21G05G25G15G26G18
 -26803422.42248 -20870759.87947  20171317.2194                   20171316.3324
 -17941951.24646 -13962400.39542  24090745.9224                   24090745.6994
  -4366024.80946  -3385700.41043  24079205.5864                   24079208.3524
 -11693790.14547  -9102430.23045  22798771.4144                   22798770.1174
 -15558081.60547 -12108019.65244  23432240.3914                   23432240.0514
  -8577485.77747  -6665352.77744  24278941.7344                   24278946.6994
 -20459537.17248 -15925781.07446  20760268.8134                   20760267.6174
 -20676723.50848 -16095151.29346  21195708.1724                   21195707.5664
 -10620450.93447  -8267158.48845  22345168.0784                   22345167.1914
 11  9 27  1 47  0.0000000  0  9G29G02G30G21G05G25G15G26G18
 -26816866.39548 -20881235.67647  20168758.5474                   20168757.8484
 -17891492.57046 -13923082.02042  24100346.8364                   24100347.4884
  -4314744.87946  -3345742.07843  24088962.6414                   24088966.7114
 -11775808.85247  -9166340.82045  22783164.0234                   22783162.4574
 -15490413.13347 -12055290.94944  23445117.0474                   23445116.6054
  -8514516.50447  -6616285.88344  24290924.1174                   24290928.9264
 -20515640.54348 -15969497.93446  20749592.7584                   20749591.7774
 -20675479.60948 -16094181.98046  21195944.8594                   21195944.3204
 -10692464.05547  -8323272.53945  22331464.4384                   22331463.6294
 11  9 27  1 47 30.0000000  0  9G29G02G30G21G05G25G15G26G18
 -26829743.01648 -20891269.37547  20166308.2974                   20166307.3014
 -17840866.66046 -13883633.27742  24109982.7344                   24109981.5434
  -4263329.42645  -3305678.17643  24098746.9144                   24098751.5314
 -11857832.25847  -9230255.08645  22767555.0784                   22767553.7384
 -15422731.54347 -12002552.01644  23457996.1804                   23457995.6954
  -8451597.25047  -6567257.94144  24302897.0164                   24302902.9344
 -20571179.59848 -16012775.05146  20739023.9064                   20739022.4064
 -20673535.37548 -16092666.95346  21196314.8054                   21196314.0634
 -10764208.94947  -8379177.56245  22317811.7194                   22317810.4384
 11  9 27  1 48  0.0000000  0  9G29G02G30G21G05G25G15G26G18
 -26842051.51648 -20900860.38747  20163966.1954                   20163965.0234
 -17790073.17246 -13844053.96543  24119648.5864                   24119648.1994
  -4211781.44546  -3265510.96143  24108556.8054                   24108559.6994
 -11939859.14147  -9294172.05145  22751945.6024                   22751944.8714
 -15355038.08246 -11949803.82844  23470878.0394                   23470877.6884
  -8388730.41047  -6518270.84444  24314860.1954                   24314864.6524
 -20626152.71948 -16055611.19146  20728562.6564                   20728561.7584
 -20670891.23448 -16090606.53946  21196817.7034                   21196817.1094
 -10835685.39847  -8434873.39545  22304210.2344                   22304209.7344
 11  9 27  1 48 30.0000000  0  9G29G02G30G21G05G25G15G26G18
 -26853791.84048 -20910008.66847  20161732.2584                   20161730.7304
 -17739112.58246 -13804344.46143  24129346.4144                   24129345.2544
  -4160104.25446  -3225243.12943  24118390.5864                   24118393.8094
 -12021889.10947  -9358091.41445  22736336.3834                   22736334.6684
 -15287334.17646 -11897047.51644  23483761.3134                   23483761.3954
  -8325918.96946  -6469326.93443  24326812.6724                   24326817.1134
 -20680558.77048 -16098005.44946  20718209.6334                   20718208.2114
 -20667548.21947 -16088001.54346  21197453.8984                   21197453.3014
 -10906893.74647  -8490360.32845  22290660.0004                   22290659.2814
 11  9 27  1 49  0.0000000  0  9G29G02G30G21G05G25G15G26G18
 -26864967.21948 -20918716.72347  20159605.2584                   20159604.2894
 -17687988.26246 -13764507.34843  24139073.8524                   24139072.8914
  -4108304.90646  -3184880.05143  24128248.2194                   24128250.9844
 -12103925.49647  -9422015.80145  22720725.0784                   22720723.4454
 -15219625.23046 -11844287.27044  23496646.2034                   23496645.6024
  -8263169.73046  -6420431.47743  24338753.3524                   24338758.8204
 -20734400.02348 -16139959.61346  20707964.2194                   20707963.1254
 -20663510.78147 -16084855.45346  21198222.3364                   21198221.8634
 -10977838.29747  -8545641.70345  22277159.6254                   22277158.6254
 11  9 27  1 49 30.0000000  0  9G29G02G30G21G05G25G15G26G18
 -26875574.10248 -20926981.80547  20157586.8364                   20157586.1844
 -17636696.66846 -13724539.90644  24148835.0474                   24148834.0434
  -4056383.09846  -3144421.53943  24138128.0314                   24138131.2854
 -12185964.20347  -9485941.98045  22705113.9144                   22705112.4844
 -15151909.16446 -11791521.45744  23509532.2584                   23509531.3244
  -8200481.78146  -6371583.74643  24350682.9924                   24350687.7814
 -20787671.59448 -16181469.86746  20697826.8834                   20697825.5864
 -20658776.09848 -16081166.04746  21199123.2114                   21199122.7114
 -11048515.61347  -8600714.84045  22263709.7114                   22263708.7194
 11  9 27  1 50  0.0000000  0  9G29G02G30G21G05G25G15G26G18
 -26885612.48848 -20934803.89847  20155676.6804                   20155675.5864
 -17585237.85546 -13684442.13344  24158627.0164                   24158626.8714
  -4004341.94146  -3103870.09043  24148031.4064                   24148034.3164
 -12268004.82047  -9549869.66045  22689501.8834                   22689500.2304
 -15084187.24246 -11738751.07844  23522418.8364                   23522418.7274
  -8137857.96146  -6322786.07443  24362599.0944                   24362604.6214
 -20840372.21147 -16222535.21946  20687798.1414                   20687796.6334
 -20653345.13348 -16076934.09846  21200156.9534                   21200156.4844
 -11118925.89847  -8655579.90645  22250311.0704                   22250310.0824
 11  9 27  1 50 30.0000000  0  9G29G02G30G21G05G25G15G26G18
 -26895084.51648 -20942184.67247  20153874.5634                   20153873.1524
 -17533614.08646 -13644215.83244  24168450.4454                   24168449.8634
  -3952186.90646  -3063229.83643  24157956.7664                   24157959.4024
 -12350049.10247  -9613800.17245  22673888.8134                   22673888.0594
 -15016462.98446 -11685978.92244  23535306.3444                   23535306.3284
  -8075303.47346  -6274042.44943  24374503.3594                   24374509.2304
 -20892503.00848 -16263156.56646  20677877.6564                   20677876.6564
 -20647220.75447 -16072161.80546  21201321.8674                   21201321.1214
 -11189071.82047  -8710238.98045  22236962.9454                   22236961.5434
 11  9 27  1 51  0.0000000  0  9G29G02G30G21G05G25G15G26G18
 -26903987.62948 -20949122.13347  20152180.0704                   20152178.7624
 -17481823.39546 -13603859.46944  24178306.4924                   24178306.2304
  -3899919.11546  -3022501.79343  24167902.8204                   24167904.7584
 -12432094.23447  -9677731.35545  22658275.8524                   22658274.8134
 -14948736.47746 -11633205.01244  23548194.8524                   23548194.2704
  -8012818.97746  -6225353.30143  24386393.7734                   24386399.1564
 -20944060.42648 -16303331.11746  20668066.8594                   20668065.3444
 -20640402.00047 -16066848.44946  21202619.7034                   21202618.9414
 -11258951.75447  -8764690.77345  22223664.8674                   22223663.7424
 11  9 27  1 51 30.0000000  0  9G29G02G30G21G05G25G15G26G18
 -26912322.48048 -20955616.79347  20150593.8444                   20150593.0704
 -17429866.47346 -13563373.57444  24188192.8054                   24188192.9614
  -3847542.40646  -2981688.78144  24177870.0084                   24177872.8714
 -12514140.10247  -9741663.10545  22642663.2344                   22642661.9224
 -14881009.36347 -11580430.62545  23561082.7274                   23561081.9694
  -7950407.87546  -6176721.36343  24398270.3364                   24398275.4534
 -20995044.31647 -16343058.76646  20658364.3984                   20658363.5634
 -20632890.50847 -16060995.30546  21204048.8674                   21204047.9224
 -11328566.40647  -8818935.86345  22210417.7344                   22210416.3874
 11  9 27  1 52  0.0000000  0  9G29G02G30G21G05G25G15G26G18
 -26920089.06648 -20961668.65647  20149115.9924                   20149114.7934
 -17377743.23446 -13522758.04744  24198112.8364                   24198111.7154
  -3795060.02746  -2940793.43043  24187857.5474                   24187858.9804
 -12596185.96947  -9805594.85545  22627050.5864                   22627049.2624
 -14813282.90647 -11527656.72744  23573970.8204                   23573970.0434
  -7888073.00046  -6128148.85243  24410133.0784                   24410138.2234
 -21045453.20747 -16382338.36746  20648772.3984                   20648770.9884
 -20624687.08247 -16054602.98446  21205609.7814                   21205609.6024
 -11397916.29347  -8872974.63745  22197220.7894                   22197219.6994
 11  9 27  1 52 30.0000000  0  9G29G02G30G21G05G25G15G26G18
 -26927287.50048 -20967277.80147  20147746.3364                   20147745.0274
 -17325454.26646 -13482013.38344  24208062.9144                   24208062.7854
  -3742475.64546  -2899818.60244  24197863.8834                   24197865.5234
 -12678231.99247  -9869526.73445  22611437.5784                   22611436.3674
 -14745559.18746 -11474884.97344  23586857.3834                   23586857.6804
  -7825817.60547  -6079638.25044  24421979.3914                   24421984.8524
 -21095286.19947 -16421169.21946  20639289.1254                   20639288.1684
 -20615793.14847 -16047672.60945  21207302.5704                   21207301.5314
 -11467002.24247  -8926807.73845  22184074.0004                   22184072.9264
 11  9 27  1 53  0.0000000  0  8G29G30G21G05G25G15G26G18
 -26933917.71148 -20972444.17247  20146484.4384                   20146483.2034
  -3689792.09447  -2858766.53143  24207888.9304                   24207891.2234
 -12760277.12147  -9933457.88345  22595825.2034                   22595822.9964
 -14677839.20347 -11422116.12144  23599744.4924                   23599744.0434
  -7763644.13747  -6031191.48844  24433810.7974                   24433816.6764
 -21144542.19947 -16459550.45746  20629916.1094                   20629915.0634
 -20606209.39547 -16040204.71545  21209126.1174                   21209125.3014
 -11535824.28547  -8980435.19145  22170977.3594                   22170976.2934
 11  9 27  1 53 30.0000000  0  8G29G30G21G05G25G15G26G18
 -26939976.32448 -20977165.13747  20145331.6484                   20145330.3164
  -3637008.98446  -2817636.86344  24217933.3364                   24217935.7774
 -12842317.23447  -9997385.13345  22580212.8054                   22580211.7304
 -14610120.61746 -11369348.35944  23612631.2504                   23612630.1254
  -7701551.79347  -5982807.95344  24445626.5944                   24445632.6024
 -21193216.46147 -16497478.39546  20620653.6094                   20620652.2894
 -20595933.42647 -16032197.43746  21211081.9534                   21211081.2854
 -11604379.14147  -9033854.44145  22157932.0784                   22157930.7154
 11  9 27  1 54  0.0000000  0  8G29G30G21G05G25G15G26G18
 -26945456.62548 -20981435.47747  20144288.6024                   20144287.5274
  -3584123.13346  -2776427.13743  24227996.8984                   24227999.5594
 -12924345.11347 -10061302.85945  22564603.4694                   22564602.0164
 -14542398.55147 -11316577.87944  23625518.0864                   23625516.8714
  -7639536.91447  -5934484.77044  24457428.2114                   24457433.4414
 -21241301.06648 -16534946.86746  20611503.5634                   20611501.9614
 -20584959.91847 -16023646.62546  21213169.8284                   21213169.8634
 -11672660.48847  -9087060.57045  22144938.1954                   22144937.2114
 11  9 27  1 54 30.0000000  0  8G29G30G21G05G25G15G26G18
 -26950355.96948 -20985253.12147  20143356.3444                   20143355.0664
  -3531135.00046  -2735137.71143  24238080.5234                   24238083.2384
 -13006357.60547 -10125208.58645  22548997.2114                   22548995.7704
 -14474671.71947 -11263803.66844  23638405.9694                   23638405.3134
  -7577599.50447  -5886221.92644  24469214.3914                   24469219.6844
 -21288792.54747 -16571953.16046  20602466.2894                   20602464.5514
 -20573287.17647 -16014550.94945  21215390.6484                   21215390.4734
 -11740666.29748  -9140051.98845  22131997.5944                   22131996.0204
 11  9 27  1 55  0.0000000  0  8G29G30G21G05G25G15G26G18
 -26954675.67648 -20988619.10247  20142534.2664                   20142532.9774
  -3478048.79346  -2693771.88343  24248182.2894                   24248185.2274
 -13088354.96547 -10189102.52345  22533393.0234                   22533391.4414
 -14406942.55947 -11211027.65644  23651294.2424                   23651294.0904
  -7515743.48847  -5838022.55144  24480984.8984                   24480990.8284
 -21335691.17648 -16608497.50046  20593541.5314                   20593540.5084
 -20560917.42647 -16004912.14846  21217744.5394                   21217744.1254
 -11808398.36347  -9192830.10945  22119108.2194                   22119106.8244
 11  9 27  1 55 30.0000000  0  8G29G30G21G05G25G15G26G18
 -26958420.52748 -20991537.14547  20141821.7894                   20141820.4574
  -3424872.47346  -2652335.85243  24258301.8524                   24258304.0664
 -13170340.71948 -10252987.41845  22517791.7424                   22517790.3834
 -14339216.87147 -11158254.39144  23664182.0314                   23664182.1024
  -7453976.15647  -5789892.28944  24492738.6724                   24492744.8794
 -21382000.44948 -16644582.59046  20584729.5164                   20584727.8914
 -20547856.75047 -15994734.97345  21220230.8674                   21220229.5864
 -11875861.32848  -9245398.52045  22106270.3754                   22106269.1954
 11  9 27  1 56  0.0000000  0  8G29G30G21G05G25G15G26G18
 -26961590.59048 -20994007.31247  20141218.4144                   20141217.2234
  -3371609.25046  -2610832.06243  24268437.0944                   24268440.6724
 -13252314.48847 -10316862.96945  22502192.5234                   22502190.8554
 -14271496.11747 -11105484.92244  23677068.8284                   23677068.7234
  -7392300.41047  -5741833.39544  24504475.8284                   24504481.9884
 -21427719.45748 -16680207.74246  20576029.1334                   20576027.5044
 -20534106.48447 -15984020.43745  21222846.4534                   21222845.7664
 -11943055.70747  -9297757.65645  22093483.5634                   22093482.2504
 11  9 27  1 56 30.0000000  0  8G29G30G21G05G25G15G26G18
 -26964188.65648 -20996031.75447  20140723.8674                   20140722.5944
  -3318265.27046  -2569265.38343  24278588.2734                   24278590.7704
 -13334279.05947 -10380731.34845  22486595.6414                   22486593.8484
 -14203784.91846 -11052722.89844  23689953.8984                   23689952.5044
  -7330721.93047  -5693850.26244  24516194.1334                   24516199.5354
 -21472849.67248 -16715374.09846  20567441.0004                   20567439.9384
 -20519670.55947 -15972771.62545  21225593.6414                   21225592.9454
 -12009985.03147  -9349910.26245  22080747.0234                   22080745.9024
 11  9 27  1 57  0.0000000  0  8G29G30G21G05G25G15G26G18
 -26966222.60548 -20997616.62147  20140336.9694                   20140335.4304
  -3264850.85546  -2527643.77342  24288752.8284                   24288755.2344
 -13416240.44547 -10444597.24645  22470998.5474                   22470996.7894
 -14136091.10247 -10999974.43744  23702835.5784                   23702835.1174
  -7269250.55146  -5645950.59043  24527891.2194                   24527897.4454
 -21517397.76248 -16750086.83646  20558963.8594                   20558962.2974
 -20504557.44947 -15960995.15645  21228469.7274                   21228469.0204
 -12076656.75047  -9401862.13345  22068059.8524                   22068058.4344
 11  9 27  1 57 30.0000000  0  8G29G30G21G05G25G15G26G18
 -26967684.93448 -20998756.07847  20140058.8594                   20140057.6374
  -3211361.60546  -2485963.83642  24298931.5164                   24298932.6844
 -13498189.98047 -10508453.92245  22455404.0944                   22455402.7034
 -14068409.03147 -10947235.13744  23715715.2424                   23715714.1844
  -7207881.44946  -5598130.67643  24539569.8134                   24539575.2194
 -21561355.59048 -16784339.64547  20550598.7734                   20550597.4694
 -20488761.07048 -15948686.25845  21231475.3834                   21231474.7304
 -12143063.83248  -9453607.78945  22055423.1954                   22055421.6884
 11  9 27  1 58  0.0000000  0  8G29G30G21G05G25G15G26G18
 -26968576.77348 -20999450.99647  20139888.5944                   20139887.6414
  -3157801.49645  -2444228.76242  24309123.4694                   24309125.3554
 -13580128.68748 -10572302.14845  22439811.4304                   22439810.0164
 -14000740.77746 -10894506.59844  23728591.6254                   23728591.5164
  -7146618.09446  -5550393.13343  24551228.1254                   24551233.5434
 -21604722.65648 -16818132.12146  20542346.4924                   20542344.8324
 -20472283.55547 -15935846.62146  21234611.2814                   21234610.3134
 -12209207.53147  -9505148.22345  22042836.2814                   22042834.4924
 11  9 27  1 58 30.0000000  0  8G29G30G21G05G25G15G26G18
 -26968898.14848 -20999701.40647  20139827.4144                   20139826.4964
  -3104173.82045  -2402441.03942  24319327.7814                   24319330.9614
 -13662055.60548 -10636141.21145  22424221.5634                   22424219.6644
 -13933087.39546 -10841789.64844  23741465.7734                   23741465.3634
  -7085463.27046  -5502740.14543  24562864.8674                   24562870.5124
 -21647498.28548 -16851463.73846  20534206.3364                   20534204.6844
 -20455126.40248 -15922477.39846  21237876.3134                   21237875.3164
 -12275088.35247  -9556483.80945  22030299.5084                   22030297.9924
 11  9 27  1 59  0.0000000  0  7G29G30G21G05G15G26G18
 -25393227.75848 -19771906.27747  20439667.5784                   20439666.4884
  -1475061.72345  -1133003.14843  24629338.2504                   24629340.5274
 -12168545.30948  -9472366.85245  22708426.6254                   22708424.5314
 -12290030.76246  -9561485.74244  24054129.2894                   24054128.7274
 -20114258.90248 -15656731.69546  20825972.1884                   20825970.7854
 -18861869.75048 -14680978.69145  21541062.9774                   21541061.6024
 -10765282.94948  -8380011.94945  22317605.7974                   22317604.1684
 11  9 27  1 59 30.0000000  0  7G29G30G21G05G15G26G18
 -25392405.87948 -19771265.83647  20439824.0864                   20439823.0554
  -1421305.07046  -1091114.91843  24639567.8134                   24639571.2114
 -12250442.98847  -9536183.13345  22692842.2114                   22692840.3984
 -12222407.76246  -9508792.46144  24066996.9844                   24066997.0204
 -20155846.26648 -15689137.38746  20818058.3674                   20818056.5234
 -18843354.28147 -14666551.01245  21544586.2504                   21544585.1054
 -10830636.28948  -8430936.52045  22305169.2034                   22305167.4654
 11  9 27  2  0  0.0000000  0  7G29G30G21G05G15G26G18
 -25391007.94948 -19770176.52047  20440090.1644                   20440088.9654
  -1367483.65645  -1049176.20743  24649809.2974                   24649812.8794
 -12332319.85948  -9599983.19545  22677261.2734                   22677259.2544
 -12154797.11346  -9456108.78944  24079863.0784                   24079863.1914
 -20196833.20748 -15721075.22346  20810258.7114                   20810257.0514
 -18824156.86347 -14651591.94545  21548239.0474                   21548238.3484
 -10895721.62148  -8481652.25045  22292783.7974                   22292782.2234
 11  9 27  2  0 30.0000000  0  7G29G30G21G05G15G26G18
 -25389030.36348 -19768635.53147  20440466.3524                   20440465.3054
  -1313596.75846  -1007186.46943  24660064.2734                   24660067.4694
 -12414171.28147  -9663763.43045  22661685.5084                   22661683.5904
 -12087196.17646  -9403432.68744  24092727.1174                   24092727.0124
 -20237215.19548 -15752541.66846  20802574.4224                   20802572.6844
 -18804275.17647 -14636099.70345  21552022.6174                   21552022.3054
 -10960535.39848  -8532156.39545  22280450.3204                   22280448.8204
 11  9 27  2  1  0.0000000  0  7G29G30G21G05G15G26G18
 -25386475.14148 -19766644.44147  20440952.4614                   20440951.5044
  -1259649.16046   -965149.48043  24670330.1724                   24670333.2194
 -12495998.25847  -9727524.62145  22646114.3674                   22646112.0204
 -12019607.30146  -9350765.96544  24105588.7734                   24105588.7034
 -20276992.99648 -15783537.31247  20795004.7734                   20795003.1994
 -18783712.21948 -14620076.60545  21555935.4614                   21555934.8594
 -11025079.84447  -8582450.66045  22268167.7584                   22268165.9804
 11  9 27  2  1 30.0000000  0  7G29G30G21G05G15G26G18
 -25383345.49648 -19764205.73447  20441548.3134                   20441547.1334
  -1205646.64146   -923069.64544  24680606.4774                   24680609.9884
 -12577802.35547  -9791267.99245  22630547.3834                   22630545.5234
 -11952034.73046  -9298111.96144  24118447.4924                   24118446.7934
 -20316168.47748 -15814063.62146  20787549.9304                   20787548.5514
 -18762472.17247 -14603525.88346  21559976.9844                   21559977.0984
 -11089357.90247  -8632537.36745  22255935.6484                   22255934.2624
 11  9 27  2  2  0.0000000  0  7G29G30G21G05G15G26G18
 -25379645.36748 -19761322.51247  20442252.1564                   20442251.3094
  -1151595.69546   -880952.07444  24690891.8284                   24690895.4964
 -12659586.68747  -9854995.96545  22614984.5084                   22614982.3794
 -11884483.74246  -9245474.77344  24131302.1884                   24131301.5744
 -20354744.73848 -15844123.01646  20780208.9534                   20780207.6374
 -18740560.50047 -14586451.82445  21564147.3054                   21564145.8134
 -11153374.03948  -8682419.97745  22243754.0394                   22243752.5394
 11  9 27  2  2 30.0000000  0  7G29G30G21G05G15G26G18
 -25375373.99648 -19757994.15647  20443065.2894                   20443064.2114
  -1097498.79746   -838798.70744  24701186.2894                   24701189.1524
 -12741349.05947  -9918706.82845  22599425.3284                   22599423.3014
 -11816953.75846  -9192853.94144  24144152.2034                   24144151.9454
 -20392720.26648 -15873714.29746  20772982.3204                   20772981.0594
 -18717977.83247 -14568854.91845  21568444.4694                   21568443.6954
 -11217127.71548  -8732098.08245  22231621.8524                   22231620.5354
 11  9 27  2  3  0.0000000  0  7G29G30G21G05G15G26G18
 -25370534.16048 -19754222.84447  20443986.0704                   20443985.1024
  -1043360.83646   -796613.35944  24711488.9774                   24711492.2384
 -12823090.67648  -9982401.51645  22583870.6024                   22583868.1644
 -11749448.05946  -9140252.05944  24156998.3204                   24156997.9064
 -20430096.20748 -15902838.36746  20765869.8984                   20765868.4024
 -18694727.59847 -14550737.84845  21572868.5864                   21572868.1374
 -11280621.13748  -8781573.37945  22219539.3674                   22219537.9574
 11  9 27  2  3 30.0000000  0  7G29G30G21G05G15G26G18
 -25365126.77048 -19750009.29347  20445014.9454                   20445014.0514
   -989185.75046   -754399.02744  24721798.0314                   24721800.4414
 -12904811.94947 -10046080.35245  22568319.5314                   22568317.2894
 -11681969.04346  -9087670.96944  24169839.1484                   24169839.0044
 -20466873.03148 -15931495.59046  20758871.4614                   20758870.3444
 -18670812.27747 -14532102.50445  21577419.5554                   21577418.7894
 -11343855.90648  -8830847.14845  22207506.4144                   22207504.9924
 11  9 27  2  4  0.0000000  0  7G29G30G21G05G15G26G18
 -25359153.40648 -19745354.72347  20446151.8444                   20446150.7194
   -934977.42246   -712158.84044  24732113.7274                   24732116.8634
 -12986512.49647 -10109743.05545  22552772.1334                   22552770.4534
 -11614518.25446  -9035111.87544  24182674.6954                   24182674.5124
 -20503050.70348 -15959685.95346  20751987.5784                   20751985.6954
 -18646234.66047 -14512951.08645  21582096.4454                   21582095.6804
 -11406833.25848  -8879920.32045  22195522.0004                   22195520.5434
 11  9 27  2  4 30.0000000  0  7G29G30G21G05G15G26G18
 -25352614.92248 -19740259.78947  20447396.1644                   20447394.5474
   -880739.29746   -669895.41443  24742435.1174                   24742437.5664
 -13068191.76247 -10173389.17245  22537229.0634                   22537227.1334
 -11547097.41046  -8982576.07444  24195504.2504                   24195504.2544
 -20538628.93048 -15987409.20346  20745217.0554                   20745215.3054
 -18620996.36747 -14493284.86745  21586899.1884                   21586898.7154
 -11469553.89147  -8928793.48045  22183586.7274                   22183585.1374
 11  9 27  2  5  0.0000000  0  7G29G30G21G05G15G26G18
 -25345508.23848 -19734722.10247  20448748.3834                   20448747.0204
   -826471.14546   -627608.61743  24752761.9224                   24752764.4844
 -13149845.84047 -10237015.65245  22521690.6484                   22521688.4964
 -11479704.32046  -8930061.94544  24208328.4614                   24208328.6024
 -20573604.14548 -16014662.58246  20738561.2664                   20738559.8134
 -18595096.14147 -14473102.85545  21591827.7344                   21591827.1054
 -11532015.22347  -8977464.56645  22171700.5784                   22171698.8674
 11  9 27  2  5 30.0000000  0  7G29G30G21G05G15G26G18
 -25337837.27048 -19728744.71547  20450208.0474                   20450206.8914
   -772179.34046   -585303.37943  24763093.2034                   24763096.1484
 -13231476.68047 -10300624.02045  22506156.8284                   22506154.5554
 -11412343.37946  -8877572.85244  24221146.7894                   24221146.4884
 -20607978.87148 -16041448.06246  20732020.0704                   20732018.2814
 -18568538.96147 -14452408.92245  21596881.6724                   21596880.6134
 -11594220.85247  -9025936.41445  22159863.2114                   22159861.5474
 11  9 27  2  6  0.0000000  0  7G29G30G21G05G15G26G18
 -25329601.52048 -19722327.25847  20451775.2504                   20451773.8954
   -717865.44546   -542980.94143  24773428.3134                   24773431.1764
 -13313082.24247 -10364212.70345  22490627.9144                   22490625.6294
 -11345014.30546  -8825108.60544  24233958.7194                   24233959.5434
 -20641751.20748 -16067764.13346  20725593.4924                   20725591.5984
 -18541325.16047 -14431203.35545  21602060.1804                   21602059.5824
 -11656170.11747  -9074208.51245  22148074.4844                   22148072.9494
 11  9 27  2  6 30.0000000  0  7G29G30G21G05G15G26G18
 -25320798.34048 -19715467.63747  20453450.8984                   20453449.3634
   -663529.55146   -500641.34043  24783768.3284                   24783771.2624
 -13394658.49247 -10427778.54345  22475104.4304                   22475102.1914
 -11277715.19146  -8772667.71944  24246765.2194                   24246766.0864
 -20674918.03147 -16093608.37946  20719281.5704                   20719280.2304
 -18513453.76247 -14409485.36345  21607363.9454                   21607363.3914
 -11717860.51247  -9122278.88745  22136335.2894                   22136333.5864
 11  9 27  2  7  0.0000000  0  7G29G30G21G05G15G26G18
 -25311431.94948 -19708169.14147  20455232.8054                   20455231.4414
   -609178.18746   -458289.71543  24794110.8054                   24794114.4924
 -13476207.99247 -10491323.54345  22459585.7504                   22459583.4804
 -11210450.35946  -8720253.54744  24259565.9304                   24259565.6954
 -20707482.38348 -16118983.16846  20713085.0554                   20713083.3524
 -18484929.87147 -14387258.93445  21612791.7344                   21612790.4694
 -11779296.03947  -9170150.66445  22124644.4774                   22124642.6994
 11  9 27  2  7 30.0000000  0  7G29G30G21G05G15G26G18
 -25301501.45348 -19700431.08247  20457122.4614                   20457121.1024
   -554813.21546   -415927.48043  24804456.6724                   24804459.9304
 -13557728.49247 -10554845.92645  22444072.9224                   22444071.1334
 -11143219.97746  -8667866.17644  24272358.9774                   24272358.8244
 -20739442.41848 -16143887.05546  20707003.0164                   20707001.7664
 -18455754.54347 -14364524.89145  21618343.5394                   21618342.6024
 -11840476.35247  -9217823.58645  22113002.0394                   22113000.4774
 11  9 27  2  8  0.0000000  0  7G29G30G21G05G15G26G18
 -25291010.12948 -19692256.03547  20459118.9844                   20459117.6804
   -500439.68746   -373558.65243  24814803.9224                   24814807.2584
 -13639221.45347 -10618346.86745  22428565.2894                   22428563.5784
 -11076027.12146  -8615508.04344  24285145.6954                   24285144.6094
 -20770799.80948 -16168321.34847  20701036.1644                   20701034.1374
 -18425931.35547 -14341286.02745  21624018.3054                   21624017.9654
 -11901403.49248  -9265299.21545  22101408.3054                   22101405.9574
 11  9 27  2  8 30.0000000  0  7G29G30G21G05G15G26G18
 -25279955.77748 -19683642.25047  20461222.5704                   20461221.0594
   -446057.94546   -331183.31243  24825152.5784                   24825156.3404
 -13720683.03148 -10681823.35245  22413063.7584                   22413061.3054
 -11008870.12946  -8563177.87544  24297925.4534                   24297924.4264
 -20801551.44147 -16192283.63747  20695184.3444                   20695182.7464
 -18395459.69147 -14317541.85945  21629817.2664                   21629816.3914
 -11962075.70747  -9312576.21545  22089862.4064                   22089860.3444
 11  9 27  2  9  0.0000000  0  7G29G30G21G05G15G26G18
 -25268340.11748 -19674591.09047  20463433.0004                   20463431.7464
   -391672.09446   -288804.76643  24835501.4384                   24835504.4574
 -13802113.46147 -10745275.56645  22397567.8914                   22397565.5204
 -10941751.10246  -8510877.27344  24310697.7344                   24310696.5164
 -20831698.38348 -16215774.72346  20689447.3444                   20689445.5474
 -18364342.60547 -14293294.76645  21635738.8524                   21635737.5044
 -12022494.67647  -9359655.87545  22078364.7504                   22078363.1024
 11  9 27  2  9 30.0000000  0  7G29G30G21G05G15G26G18
 -25256163.75448 -19665103.01647  20465750.2114                   20465748.7304
   -337284.91046   -246425.20742  24845851.5704                   24845853.9144
 -13883511.19148 -10808702.29745  22382078.7114                   22382076.4064
 -10874670.71546  -8458606.80144  24323462.0784                   24323460.9264
 -20861240.20748 -16238794.29746  20683825.5084                   20683824.1094
 -18332582.10947 -14268546.30945  21641782.9694                   21641781.5944
 -12082660.66048  -9406538.40645  22066915.8834                   22066913.6724
 11  9 27  2 10  0.0000000  0  7G29G30G21G05G15G26G18
 -25243428.02048 -19655179.05547  20468173.4534                   20468172.2854
   -282900.00046   -204047.43742  24856199.6954                   24856202.1374
 -13964876.24247 -10872103.55945  22366595.1094                   22366592.8324
 -10807630.70746  -8406367.80144  24336219.7274                   24336218.2734
 -20890176.89848 -16261342.33646  20678319.2114                   20678317.6994
 -18300180.58647 -14243298.34045  21647948.1174                   21647947.0164
 -12142574.94147  -9453224.79745  22055514.4534                   22055512.4224
 11  9 27  2 10 30.0000000  0  6G29G21G05G15G26G18
 -25230131.41048 -19644818.05947  20470703.8444                   20470702.8014
 -14046204.94147 -10935476.50045  22351118.5084                   22351116.2194
 -10740629.84846  -8354159.32043  24348969.5474                   24348968.5664
 -20918505.71548 -16283416.71546  20672928.4304                   20672927.0704
 -18267137.57047 -14217550.52345  21654236.5084                   21654235.2854
 -12202235.55948  -9499713.53545  22044161.2664                   22044159.5124
 11  9 27  2 11  0.0000000  0  6G29G21G05G15G26G18
 -25216275.01648 -19634020.87547  20473340.8054                   20473339.7304
 -14127496.80548 -10998820.73045  22335649.2734                   22335646.8134
 -10673669.41446  -8301982.31643  24361711.0084                   24361709.8914
 -20946227.61748 -16305018.15247  20667653.0004                   20667651.1254
 -18233455.56247 -14191304.78145  21660645.5164                   21660645.1564
 -12261643.16047  -9546005.10945  22032856.6564                   22032854.7464
 11  9 27  2 11 30.0000000  0  6G29G21G05G15G26G18
 -25201852.52748 -19622782.57447  20476085.1884                   20476083.8014
 -14208743.49648 -11062129.75845  22320188.6334                   22320186.3284
 -10606743.84046  -8249832.44143  24374446.6954                   24374444.4614
 -20973334.61748 -16326140.47346  20662494.9614                   20662493.2234
 -18199130.18047 -14164557.71145  21667177.7584                   21667176.5474
 -12320792.25848  -9592095.25845  22021600.6724                   22021598.8204
 11  9 27  2 12  0.0000000  0  6G29G21G05G15G26G18
 -25186864.23848 -19611103.39147  20478937.3834                   20478936.0314
 -14289943.83647 -11125402.68045  22304736.2584                   22304734.1954
 -10539852.60246  -8197709.34443  24387175.4694                   24387174.4774
 -20999825.56648 -16346782.74647  20657453.6174                   20657451.8324
 -18164162.14847 -14137309.86745  21673831.3594                   21673830.6914
 -12379682.13348  -9637983.41445  22010394.3594                   22010392.2384
 11  9 27  2 12 30.0000000  0  6G29G21G05G15G26G18
 -25171311.04748 -19598984.02747  20481897.0084                   20481895.7424
 -14371095.94548 -11188638.01245  22289293.8674                   22289291.0904
 -10472996.64546  -8145613.75443  24399898.4844                   24399897.3484
 -21025700.75448 -16366945.21546  20652529.7894                   20652528.3714
 -18128553.55547 -14109562.89845  21680607.6414                   21680607.1644
 -12438313.20348  -9683669.89845  21999237.1024                   21999235.6374
 11  9 27  2 13  0.0000000  0  6G29G21G05G15G26G18
 -25155196.60948 -19586427.31647  20484963.3444                   20484962.3594
 -14452202.24247 -11251837.65245  22273859.6174                   22273857.2974
 -10406180.22346  -8093548.97343  24412613.1414                   24412612.2304
 -21050962.96148 -16386630.02046  20647722.5394                   20647720.7194
 -18092309.56247 -14081320.80945  21687504.6884                   21687504.3634
 -12496689.17648  -9729157.60545  21988128.4774                   21988126.8954
 11  9 27  2 13 30.0000000  0  6G29G21G05G15G26G18
 -25138524.30948 -19573435.91047  20488136.1094                   20488134.8364
 -14533263.53547 -11315002.21545  22258434.0394                   22258431.5274
 -10339406.34446  -8041517.38744  24425319.5004                   24425319.2704
 -21075614.46548 -16405838.95746  20643031.6334                   20643029.8594
 -18055435.03547 -14052587.40245  21694521.5864                   21694520.4734
 -12554813.10948  -9774448.91045  21977067.6174                   21977065.8094
 11  9 27  2 14  0.0000000  0  6G29G21G05G15G26G18
 -25121295.98448 -19560011.25047  20491414.7814                   20491413.6954
 -14614280.41047 -11378132.18045  22243017.1024                   22243015.3134
 -10272677.02046  -7989520.46944  24438017.4774                   24438017.1954
 -21099656.16848 -16424572.72346  20638456.5314                   20638454.8244
 -18017933.01247 -14023365.02045  21701658.0864                   21701657.4024
 -12612686.72348  -9819545.18045  21966054.8444                   21966052.5944
 11  9 27  2 14 30.0000000  0  6G29G21G05G15G26G18
 -25103513.02348 -19546154.39847  20494798.5704                   20494797.5864
 -14695251.65647 -11441226.57845  22227608.9304                   22227606.3484
 -10205993.60546  -7937559.30544  24450707.6804                   24450707.1374
 -21123088.44148 -16442831.60547  20633997.2734                   20633995.6174
 -17979806.01247 -13993655.65645  21708913.3204                   21708912.3594
 -12670310.76248  -9864446.96545  21955089.6094                   21955087.3244
 11  9 27  2 15  0.0000000  0  6G29G21G05G15G26G18
 -25085176.62148 -19531866.29347  20498288.1024                   20498286.3404
 -14776176.35947 -11504284.72345  22212209.1414                   22212206.8284
 -10139357.18446  -7885634.83243  24463387.4844                   24463386.7774
 -21145911.47748 -16460615.76647  20629654.4224                   20629652.4064
 -17941056.43447 -13963461.16845  21716287.2974                   21716286.3164
 -12727685.97748  -9909154.85545  21944171.2424                   21944168.9344
 11  9 27  2 15 30.0000000  0  6G29G21G05G15G26G18
 -25066288.94948 -19517148.62947  20501881.8984                   20501880.7814
 -14857054.72347 -11567306.74646  22196818.6414                   22196816.3444
 -10072769.77746  -7833748.52744  24476059.0784                   24476057.6454
 -21168126.14847 -16477925.87547  20625426.9614                   20625425.4184
 -17901687.71547 -13932784.22345  21723779.1564                   21723777.9924
 -12784814.28548  -9953670.36345  21933300.0634                   21933298.0474
 11  9 27  2 16  0.0000000  0  6G29G21G05G15G26G18
 -25046848.85548 -19502000.50847  20505581.2424                   20505580.3134
 -14937883.37147 -11630290.03545  22181437.4384                   22181434.7154
 -10006230.18746  -7781899.47744  24488721.0784                   24488719.8284
 -21189730.48848 -16494760.39847  20621315.8674                   20621314.0664
 -17861700.13747 -13901625.07045  21731388.2814                   21731387.2704
 -12841694.19148  -9997992.31645  21922475.9384                   21922474.1294
 11  9 27  2 16 30.0000000  0  6G29G21G05G15G26G18
 -25026860.89148 -19486425.47347  20509385.1024                   20509384.0274
 -15018664.77347 -11693236.53145  22166065.1724                   22166062.4614
  -9939742.59847  -7730090.91844  24501372.7344                   24501372.3054
 -21210728.25047 -16511122.25847  20617319.9774                   20617318.2504
 -17821099.45747 -13869988.16845  21739114.6174                   21739113.3874
 -12898329.81648 -10042123.91445  21911698.5314                   21911696.2274
 11  9 27  2 17  0.0000000  0  6G29G21G05G15G26G18
 -25006324.00448 -19470422.70347  20513293.1094                   20513291.7974
 -15099395.50448 -11756143.53545  22150702.5704                   22150700.2814
  -9873305.93447  -7678322.05544  24514015.9454                   24514014.7624
 -21231117.49648 -16527009.94546  20613440.2584                   20613438.3554
 -17779885.99647 -13837873.75845  21746956.9924                   21746955.7504
 -12954719.89148 -10086064.19145  21900967.8054                   21900965.8674
 11  9 27  2 17 30.0000000  0  6G29G21G05G15G26G18
 -24985242.10948 -19453995.25447  20517304.7344                   20517303.4574
 -15180077.52347 -11819012.58246  22135348.9774                   22135346.5634
  -9806923.88347  -7626595.73444  24526647.2734                   24526646.5514
 -21250901.02747 -16542425.65646  20609675.7194                   20609673.8444
 -17738064.83647 -13805285.82845  21754915.2974                   21754913.7464
 -13010867.83648 -10129815.78545  21890283.1414                   21890281.3954
 11  9 27  2 18  0.0000000  0  7G29G22G21G05G15G26G18
 -24963616.20748 -19437143.91047  20521420.0704                   20521419.0314
   6165864.12156   4815480.03954  24690531.2664                   24690531.5474
 -15260708.94147 -11881842.20346  22120005.7974                   22120002.9304
  -9740596.88346  -7574912.31644  24539269.4454                   24539268.5164
 -21270078.50448 -16557369.10246  20606026.1484                   20606024.0554
 -17695638.10947 -13772226.04345  21762988.5164                   21762987.7074
 -13066773.44948 -10173378.53546  21879644.5784                   21879642.6454
 11  9 27  2 18 30.0000000  0  7G29G22G21G05G15G26G18
 -24941452.93748 -19419873.82047  20525637.6484                   20525636.2344
   6073972.04346   4743875.98443  24673043.8594                   24673045.0904
 -15341294.18748 -11944635.85245  22104671.1254                   22104668.2504
  -9674331.35246  -7523276.83244  24551878.4844                   24551878.0234
 -21288655.39148 -16571844.57846  20602490.9694                   20602489.1994
 -17652613.74647 -13738700.55945  21771175.7424                   21771174.9694
 -13122443.52748 -10216757.77745  21869050.8524                   21869048.7664
 11  9 27  2 19  0.0000000  0  7G29G22G21G05G15G26G18
 -24918759.37548 -19402190.53147  20529956.1334                   20529954.8164
   5982233.14847   4672391.32043  24655586.6094                   24655586.7624
 -15421838.61747 -12007397.68746  22089343.3204                   22089340.8054
  -9608134.17246  -7471694.57043  24564475.4224                   24564474.7974
 -21306638.53548 -16585857.39546  20599068.8284                   20599067.3094
 -17609000.29747 -13704716.04745  21779475.5864                   21779474.1094
 -13177884.80948 -10259958.72346  21858500.8444                   21858498.5904
 11  9 27  2 19 30.0000000  0  7G29G22G21G05G15G26G18
 -24895531.61748 -19384090.99247  20534376.4694                   20534375.1604
   5890652.47346   4601029.94143  24638159.4224                   24638159.5164
 -15502335.35247 -12070122.35945  22074025.0554                   22074022.5594
  -9542001.04346  -7420162.27043  24577060.7274                   24577059.7344
 -21324022.97748 -16599403.68747  20595760.9144                   20595759.0434
 -17564794.99247 -13670270.34845  21787887.0394                   21787886.0234
 -13233092.57048 -10302977.70346  21847995.0554                   21847992.8594
 11  9 27  2 20  0.0000000  0  7G29G22G21G05G15G26G18
 -24871769.38348 -19365574.96947  20538898.1644                   20538896.8754
   5799231.64146   4529793.06644  24620762.9384                   24620762.7544
 -15582781.98448 -12132808.00046  22058716.6024                   22058714.1454
  -9475931.55946  -7368679.52343  24589633.5394                   24589631.8834
 -21340807.41048 -16612482.44546  20592566.5944                   20592564.7664
 -17519999.16847 -13635364.50845  21796411.9774                   21796410.6564
 -13288066.21548 -10345814.26646  21837533.7664                   21837531.9064
 11  9 27  2 20 30.0000000  0  7G29G22G21G05G15G26G18
 -24847473.06248 -19346642.77347  20543521.4224                   20543520.2734
   5707971.84446   4458681.69543  24603395.9614                   24603394.9534
 -15663176.21148 -12195452.80946  22043418.4534                   22043415.7974
  -9409925.16446  -7317245.97343  24602193.0234                   24602192.4144
 -21356990.91448 -16625092.94147  20589486.9924                   20589485.1174
 -17474613.93047 -13599999.37145  21805048.2814                   21805047.0634
 -13342805.49648 -10388468.20745  21827117.3984                   21827115.1054
 11  9 27  2 21  0.0000000  0  7G29G22G21G05G15G26G18
 -24822641.38348 -19327293.41847  20548246.6884                   20548245.5314
   5616875.56646   4387697.70743  24586061.3134                   24586060.0984
 -15743514.36348 -12258053.91845  22028130.4144                   22028127.9884
  -9343979.97346  -7265860.12943  24614743.1024                   24614741.8914
 -21372571.37148 -16637233.53147  20586522.2114                   20586520.7274
 -17428639.31247 -13564174.99645  21813796.6334                   21813796.0314
 -13397308.60948 -10430938.10945  21816745.7734                   21816743.7894
 11  9 27  2 21 30.0000000  0  7G29G22G21G05G15G26G18
 -24797275.96948 -19307528.16047  20553073.5084                   20553072.3094
   5525942.68846   4316841.08243  24568756.9844                   24568757.5044
 -15823795.64148 -12320610.71146  22012853.3524                   22012850.8834
  -9278097.65246  -7214523.25043  24627279.0864                   24627278.8914
 -21387549.69148 -16648904.92246  20583671.8134                   20583670.1214
 -17382078.46147 -13527893.80945  21822656.8204                   21822655.9224
 -13451576.44148 -10473224.68745  21806419.1804                   21806416.6564
 11  9 27  2 22  0.0000000  0  7G29G22G21G05G15G26G18
 -24771376.06248 -19287346.41847  20558002.5164                   20558000.8914
   5435175.57846   4246113.56343  24551484.4224                   24551483.9224
 -15904016.43748 -12383120.37546  21997587.7894                   21997585.0744
  -9212276.55546  -7163234.06643  24639805.5474                   24639804.1414
 -21401924.07848 -16660105.71547  20580936.3754                   20580934.8404
 -17334931.73047 -13491156.11345  21831628.7504                   21831627.6844
 -13505607.21948 -10515326.54745  21796136.8134                   21796134.8714
 11  9 27  2 22 30.0000000  0  7G29G22G21G05G15G26G18
 -24744943.84048 -19266749.89147  20563031.8444                   20563030.8014
   5344572.84446   4175514.19943  24534243.2894                   24534242.6644
 -15984176.59848 -12445582.78946  21982334.3134                   21982331.2704
  -9146518.37546  -7111993.89143  24652317.9774                   24652317.4734
 -21415695.42648 -16670836.61747  20578315.6954                   20578314.0784
 -17287202.53147 -13453964.52045  21840711.4774                   21840709.9614
 -13559403.15248 -10557245.41046  21785899.9924                   21785897.6844
 11  9 27  2 23  0.0000000  0  7G29G22G21G05G15G26G18
 -24717980.74248 -19245739.68747  20568162.8284                   20568161.4534
   5254134.52746   4105042.88343  24517033.7584                   24517033.1024
 -16064274.92648 -12507997.02345  21967091.6724                   21967089.0554
  -9080823.98846  -7060803.46143  24664819.4064                   24664817.6684
 -21428864.82048 -16681098.46146  20575810.1954                   20575808.0664
 -17238893.86747 -13416321.41845  21849904.3204                   21849903.1414
 -13612964.87148 -10598981.77046  21775707.1804                   21775705.4184
 11  9 27  2 23 30.0000000  0  7G29G22G21G05G15G26G18
 -24690488.17648 -19224316.92646  20573394.5234                   20573393.6564
   5163860.52046   4034699.64143  24499854.6094                   24499854.0474
 -16144310.09848 -12570362.04746  21951861.2664                   21951859.0394
  -9015194.50046  -7009663.57443  24677308.1724                   24677307.0554
 -21441432.52048 -16690891.45347  20573418.2274                   20573416.3674
 -17190008.28147 -13378228.75445  21859206.6724                   21859205.5204
 -13666293.43048 -10640536.43746  21765559.5004                   21765557.1454
 11  9 27  2 24  0.0000000  0  7G29G22G21G05G15G26G18
 -24662467.59448 -19202482.71947  20578726.6484                   20578725.5594
   5073751.37146   3964484.83243  24482708.5864                   24482706.6804
 -16224281.03148 -12632677.02046  21936643.4144                   21936640.8054
  -8949630.36346  -6958574.63343  24689785.1724                   24689783.9064
 -21453399.10248 -16700216.03546  20571141.2424                   20571139.4574
 -17140548.34447 -13339688.53145  21868618.3444                   21868617.4534
 -13719389.38348 -10681909.85946  21755455.5634                   21755453.0904
 11  9 27  2 24 30.0000000  0  7G29G22G21G05G15G26G18
 -24633920.84048 -19180238.50447  20584159.0004                   20584157.7464
   4983806.66846   3894398.16443  24465591.1254                   24465589.7774
 -16304186.72348 -12694941.14546  21921437.9454                   21921435.0944
  -8884132.43046  -6907537.27043  24702248.7114                   24702247.4344
 -21464765.13348 -16709072.66846  20568978.1804                   20568976.1954
 -17090516.96547 -13300703.07045  21878139.5084                   21878138.0744
 -13772253.70748 -10723102.80145  21745395.6094                   21745393.9184
 11  9 27  2 25  0.0000000  0  7G29G22G21G05G15G26G18
 -24604847.76248 -19157584.16047  20589691.4924                   20589690.3794
   4894027.75046   3824440.65243  24448507.0474                   24448505.4224
 -16384024.36748 -12757152.26246  21906245.1724                   21906242.6484
  -8818700.05947  -6856550.96143  24714699.9614                   24714698.9734
 -21475529.93048 -16717460.79346  20566929.8204                   20566927.5984
 -17039915.52347 -13261273.36745  21887768.4774                   21887767.1884
 -13824885.30948 -10764114.39145  21735380.0784                   21735378.2194
 11  9 27  2 25 30.0000000  0  7G29G22G21G05G15G26G18
 -24575248.78548 -19134520.01247  20595324.0474                   20595322.5634
   4804415.94547   3754613.43444  24431455.4304                   24431453.0084
 -16463791.26247 -12819308.25446  21891065.9064                   21891063.5434
  -8753332.95747  -6805615.54344  24727139.3524                   24727137.9964
 -21485692.76648 -16725379.86746  20564995.7344                   20564993.7304
 -16988745.60947 -13221400.72345  21897505.7504                   21897505.2464
 -13877284.23448 -10804944.69146  21725409.1804                   21725406.9344
 11  9 27  2 26  0.0000000  0  7G29G22G21G05G15G26G18
 -24545127.27048 -19111048.71547  20601055.7894                   20601054.4574
   4714968.93047   3684914.56644  24414433.3204                   24414433.0784
 -16543488.59047 -12881410.03546  21875900.0394                   21875897.6764
  -8688033.98847  -6754733.19143  24739565.3054                   24739563.6684
 -21495256.25848 -16732831.91847  20563175.8054                   20563174.0664
 -16937011.84847 -13181088.70745  21907349.7344                   21907349.7774
 -13929453.53548 -10845596.04746  21715481.3984                   21715479.4774
 11  9 27  2 26 30.0000000  0  7G29G22G21G05G15G26G18
 -24514483.80148 -19087170.68747  20606887.0554                   20606885.7814
   4625687.72347   3615344.95744  24397443.9924                   24397442.3284
 -16623113.99248 -12943455.77346  21860747.5234                   21860745.0944
  -8622802.64846  -6703903.56243  24751978.1564                   24751977.1764
 -21504220.18748 -16739816.77746  20561469.8834                   20561468.2034
 -16884716.30947 -13140338.95345  21917301.8914                   21917301.2464
 -13981392.69948 -10886068.08246  21705597.7734                   21705595.7814
 11  9 27  2 27  0.0000000  0  7G29G22G21G05G15G26G18
 -24483320.44148 -19062887.55947  20612817.4844                   20612816.0904
   4536571.79346   3545904.12544  24380485.6484                   24380484.4844
 -16702666.59448 -13005444.77346  21845609.4924                   21845606.6134
  -8557640.46146  -6653127.82044  24764377.8834                   24764376.9264
 -21512585.64848 -16746335.28546  20559878.3134                   20559876.2194
 -16831862.24247 -13099153.97745  21927359.8914                   21927359.0664
 -14033103.11748 -10926361.87146  21695757.4384                   21695755.2464
 11  9 27  2 27 30.0000000  0  6G29G22G21G15G26G18
 -24451638.05148 -19038199.99647  20618846.4614                   20618845.1914
   4447622.28146   3476593.02044  24363558.7344                   24363557.4184
 -16782143.83648 -13067375.05946  21830485.2274                   21830482.5634
 -21520352.39548 -16752387.28146  20558400.1564                   20558398.0944
 -16778451.27747 -13057535.05545  21937523.6334                   21937522.9144
 -14084584.43448 -10966477.13745  21685961.1024                   21685959.0594
 11  9 27  2 28  0.0000000  0  6G29G22G21G15G26G18
 -24419437.35548 -19013108.54747  20624974.0394                   20624972.9494
   4358839.64146   3407411.94543  24346663.5164                   24346662.3324
 -16861543.91447 -13129245.21546  21815375.9614                   21815373.2344
 -21527520.27748 -16757972.61747  20557036.1094                   20557034.1884
 -16724485.92247 -13015484.12945  21947793.1804                   21947792.3244
 -14135836.49248 -11006413.76246  21676208.0314                   21676205.4344
 11  9 27  2 28 30.0000000  0  6G29G22G21G15G26G18
 -24386711.86348 -18987608.17247  20631201.2814                   20631200.2584
   4270231.68846   3338367.02743  24329801.4614                   24329799.9534
 -16940857.66847 -13191048.10246  21800283.0474                   21800280.5594
 -21534082.12148 -16763085.72747  20555787.5554                   20555785.5634
 -16669960.60547 -12972996.86745  21958168.5634                   21958168.0664
 -14186852.56647 -11046166.50846  21666499.7194                   21666497.5474
 11  9 27  2 29  0.0000000  0  6G29G22G21G15G26G18
 -24353458.18448 -18961696.22747  20637529.4774                   20637528.2584
   4181803.66846   3269462.32044  24312974.2664                   24312973.3674
 -17020078.51647 -13252778.58646  21785207.9844                   21785204.8444
 -21540033.90648 -16767723.45346  20554654.8524                   20554652.6994
 -16614873.21547 -12930071.64145  21968651.5314                   21968650.8094
 -14237628.18448 -11085731.87546  21656837.4614                   21656835.1844
 11  9 27  2 29 30.0000000  0  6G29G22G21G15G26G18
 -24319682.48848 -18935377.51246  20643956.8364                   20643955.2194
   4093551.73846   3200694.82043  24296179.2894                   24296179.4144
 -17099209.16447 -13314438.80146  21770149.9064                   21770147.0354
 -21545380.34048 -16771889.49247  20553637.4304                   20553635.3364
 -16559230.74247 -12886713.87545  21979239.8524                   21979239.0314
 -14288168.52747 -11125113.92246  21647220.2034                   21647218.2304
 11  9 27  2 30  0.0000000  0  6G29G22G21G15G26G18
 -24285387.96548 -18908654.51246  20650482.8204                   20650481.7734
   4005473.05546   3132062.36343  24279419.2894                   24279418.7194
 -17178250.30547 -13376029.25846  21755108.7664                   21755105.4734
 -21550123.96148 -16775585.80547  20552734.9454                   20552733.0514
 -16503038.18747 -12842927.48445  21989932.6644                   21989932.2504
 -14338476.00047 -11164314.49246  21637646.5784                   21637644.6524
 11  9 27  2 30 30.0000000  0  6G29G22G21G15G26G18
 -24250578.21148 -18881530.03947  20657106.5704                   20657105.8634
   3917566.11346   3063563.71943  24262691.1094                   24262689.4654
 -17257202.69547 -13437550.56646  21740084.5864                   21740081.6414
 -21554267.77348 -16778814.72746  20551946.3594                   20551944.0784
 -16446300.27047 -12798716.12945  22000729.6804                   22000728.8014
 -14388553.55547 -11203335.92246  21628117.4304                   21628115.2504
 11  9 27  2 31  0.0000000  0  6G29G22G21G15G26G18
 -24215254.60548 -18854005.16446  20663828.7344                   20663827.2974
   3829831.18047   2995199.09043  24245995.9304                   24245993.6684
 -17336063.98047 -13499000.89546  21725077.9844                   21725075.0744
 -21557812.08248 -16781576.51647  20551271.9384                   20551269.6254
 -16389019.47347 -12754081.74645  22011629.8204                   22011629.5004
 -14438401.38347 -11242178.34046  21618631.7274                   21618629.2384
 11  9 27  2 31 30.0000000  0  6G29G22G21G15G26G18
 -24179420.98048 -18826082.86746  20670647.5554                   20670646.3244
   3742266.35947   2926967.02043  24229332.7114                   24229329.5434
 -17414834.75847 -13560380.68446  21710088.1094                   21710085.0234
 -21560759.60548 -16783873.27046  20550711.1414                   20550709.0354
 -16331200.52747 -12709028.02745  22022632.7664                   22022632.4144
 -14488022.19947 -11280843.86346  21609189.0784                   21609186.7384
 11  9 27  2 32  0.0000000  0  6G29G22G21G15G26G18
 -24143078.74648 -18797764.24646  20677563.4144                   20677562.1174
   3654871.53547   2858867.41043  24212701.7034                   24212698.1884
 -17493513.43747 -13621688.70346  21695116.0394                   21695113.4414
 -21563111.44148 -16785705.85247  20550263.2194                   20550261.3204
 -16272846.68447 -12663557.50845  22033736.8674                   22033736.3324
 -14537416.83248 -11319333.12946  21599789.6094                   21599787.3364
 11  9 27  2 32 30.0000000  0  6G29G22G21G15G26G18
 -24106230.08248 -18769051.02046  20684575.4144                   20684573.9964
   3567646.38747   2790899.98443  24196102.9224                   24196101.0084
 -17572099.19147 -13682924.32446  21680161.5634                   21680158.7074
 -21564868.64548 -16787075.09847  20549928.8834                   20549927.0784
 -16213960.90247 -12617672.48445  22044942.4774                   22044941.3364
 -14586586.44947 -11357647.07046  21590432.8364                   21590430.5234
 11  9 27  2 33  0.0000000  0  6G29G22G21G15G26G18
 -24068876.72748 -18739944.51646  20691683.5084                   20691682.3284
   3480590.85247   2723064.70744  24179536.6804                   24179534.0824
 -17650590.85548 -13744086.62146  21665224.9304                   21665222.2734
 -21566032.13748 -16787981.69146  20549707.5634                   20549705.2774
 -16154546.18747 -12571375.30945  22056248.8054                   22056247.7734
 -14635531.84847 -11395786.29746  21581118.6644                   21581116.4924
 11  9 27  2 33 30.0000000  0  6G29G22G21G15G26G18
 -24031022.48848 -18710447.71946  20698887.2584                   20698885.6764
   3393702.61747   2655359.82044  24163002.5314                   24163000.0904
 -17728989.25848 -13805176.25446  21650306.4774                   21650304.0164
 -21566605.05548 -16788428.11347  20549598.1564                   20549596.5664
 -16094607.68747 -12524669.99645  22067654.6174                   22067653.7154
 -14684256.08248 -11433753.18446  21571846.6954                   21571844.5594
 11  9 27  2 34  0.0000000  0  7G29G22G09G21G15G26G18
 -23992668.93748 -18680561.83646  20706185.4224                   20706184.2304
   3306981.92647   2587785.50044  24146499.3054                   24146497.9574
   6148772.29356   4803351.00453  24772039.3754                   24772040.1804
 -17807291.47348 -13866190.93746  21635405.9844                   21635403.0204
 -21566587.86748 -16788414.70346  20549601.8444                   20549600.0004
 -16034147.77747 -12477558.36345  22079160.0084                   22079159.1844
 -14732759.39548 -11471547.91446  21562616.8984                   21562614.7384
 11  9 27  2 34 30.0000000  0  7G29G22G09G21G15G26G18
 -23953827.15648 -18650295.52346  20713576.5554                   20713575.3984
   3220419.43447   2520334.42244  24130027.2194                   24130025.9184
   6045093.86746   4722562.73843  24752309.4844                   24752311.0474
 -17885505.91448 -13927137.22346  21620522.8054                   21620519.7274
 -21565991.01648 -16787949.60947  20549715.4384                   20549713.1884
 -15973179.03947 -12430050.27345  22090761.5314                   22090761.3134
 -14781051.55148 -11509178.12546  21553426.8524                   21553425.1094
 11  9 27  2 35  0.0000000  0  7G29G22G09G21G15G26G18
 -23914499.53148 -18619650.63346  20721060.5944                   20721059.2934
   3134014.42247   2453006.03144  24113585.0084                   24113582.9144
   5941314.59446   4641695.87143  24732560.6884                   24732561.3364
 -17963631.66048 -13988014.40246  21605655.4144                   21605652.5434
 -21564816.01648 -16787034.00846  20549938.8914                   20549937.1684
 -15911704.76647 -12382148.25045  22102459.8444                   22102459.2974
 -14829134.30548 -11546645.15646  21544277.2034                   21544274.6844
 11  9 27  2 35 30.0000000  0  7G29G22G09G21G15G26G18
 -23874686.50847 -18588627.50446  20728636.6724                   20728635.3014
   3047768.23846   2385801.42244  24097172.1414                   24097170.6454
   5837438.46546   4560753.57043  24712792.7034                   24712795.4964
 -18041665.86747 -14048820.23846  21590805.6484                   21590803.2234
 -21563062.49248 -16785667.60946  20550272.4844                   20550270.5744
 -15849726.84447 -12333853.77745  22114254.5394                   22114253.1994
 -14877006.90647 -11583948.43446  21535167.5864                   21535164.7154
 11  9 27  2 36  0.0000000  0  7G29G22G09G21G15G26G18
 -23834387.05147 -18557225.34446  20736305.3134                   20736304.1254
   2961683.59046   2318722.67244  24080790.4454                   24080789.1254
   5733471.36746   4479740.30943  24693008.8444                   24693010.0124
 -18119604.12148 -14109551.32046  21575974.7894                   21575972.0784
 -21560728.67248 -16783849.02747  20550716.2894                   20550714.5784
 -15787245.50847 -12285167.04344  22126143.7894                   22126143.0634
 -14924667.38348 -11621086.43046  21526097.9304                   21526095.7344
 11  9 27  2 36 30.0000000  0  7G29G22G09G21G15G26G18
 -23793600.41047 -18525443.57446  20744066.9924                   20744065.6094
   2875763.13746   2251771.81344  24064441.0394                   24064439.3794
   5629418.62546   4398660.40643  24673208.1484                   24673209.6454
 -18197442.21147 -14170204.34446  21561162.7274                   21561160.0044
 -21557813.07448 -16781577.12546  20551271.4144                   20551269.4534
 -15724260.98047 -12236088.18745  22138129.8594                   22138128.9804
 -14972113.85247 -11658057.65646  21517068.8204                   21517066.5514
 11  9 27  2 37  0.0000000  0  7G29G22G09G21G15G26G18
 -23752327.89147 -18493283.18446  20751920.7664                   20751919.5514
   2790007.45346   2184949.34444  24048121.2814                   24048119.8674
   5525284.08646   4317516.71143  24653392.3914                   24653393.9614
 -18275177.70747 -14230777.43046  21546369.8284                   21546366.9774
 -21554315.86748 -16778852.00847  20551936.9144                   20551934.8204
 -15660775.44147 -12186618.94545  22150210.5164                   22150209.8594
 -15019346.59447 -11694862.34846  21508080.9614                   21508078.5204
 11  9 27  2 37 30.0000000  0  7G29G22G09G21G15G26G18
 -23710568.90647 -18460743.73846  20759867.4064                   20759866.4924
   2704418.80946   2118257.04344  24031834.0784                   24031832.1414
   5421073.10947   4236313.42243  24633561.7504                   24633563.0354
 -18352806.41848 -14291267.30146  21531597.8364                   21531594.8754
 -21550235.90648 -16775672.80947  20552713.4144                   20552711.2274
 -15596789.49647 -12136759.77345  22162386.7504                   22162385.8014
 -15066363.69147 -11731498.99646  21499133.8524                   21499130.9144
 11  9 27  2 38  0.0000000  0  7G29G22G09G21G15G26G18
 -23668327.12147 -18427828.08246  20767905.5394                   20767904.4064
   2618995.09046   2051693.26244  24015579.0944                   24015576.7114
   5316786.05946   4155050.87943  24613715.9774                   24613717.2624
 -18430329.31247 -14351674.72746  21516845.3594                   21516842.7664
 -21545576.47348 -16772042.06647  20553600.1334                   20553598.0984
 -15532308.52747 -12086514.89845  22174657.0314                   22174656.4804
 -15113168.08247 -11767969.90246  21490227.3054                   21490225.1764
 11  9 27  2 38 30.0000000  0  7G29G22G09G21G15G26G18
 -23625602.60947 -18394536.26646  20776036.0164                   20776034.6374
   2533738.23046   1985259.44944  23999354.9304                   23999352.7544
   5212428.05546   4073733.07443  24593857.0084                   24593858.3244
 -18507743.01647 -14411997.06246  21502114.3674                   21502111.1334
 -21540336.55148 -16767958.99247  20554597.1334                   20554595.2774
 -15467333.58247 -12035885.06645  22187021.0474                   22187020.5634
 -15159758.40247 -11804274.00446  21481361.1094                   21481358.9494
 11  9 27  2 39  0.0000000  0  7G29G22G09G21G15G26G18
 -23582397.25047 -18360869.75846  20784257.4144                   20784256.5434
   2448648.26246   1918955.68044  23983162.3984                   23983160.3794
   5108002.00846   3992362.23043  24573986.0474                   24573986.6524
 -18585045.12547 -14472232.44546  21487404.1724                   21487401.2734
 -21534517.32048 -16763424.51246  20555704.4384                   20555702.5554
 -15401867.30947 -11984872.40645  22199479.1094                   22199478.2544
 -15206135.38747 -11840411.87546  21472536.0394                   21472533.2194
 11  9 27  2 39 30.0000000  0  7G29G22G09G21G15G26G18
 -23538712.15647 -18326829.43746  20792570.9924                   20792569.4534
   2363726.11346   1852782.69143  23967002.3754                   23967000.3914
   5003511.83646   3910941.44543  24554102.0784                   24554102.7274
 -18662233.29347 -14532379.03946  21472715.6414                   21472712.8524
 -21528119.01248 -16758438.80946  20556921.8984                   20556920.1254
 -15335911.82847 -11933478.54345  22212030.1484                   22212029.3404
 -15252299.08247 -11876383.53946  21463751.1094                   21463748.7194
 11  9 27  2 40  0.0000000  0  7G29G22G09G21G15G26G18
 -23494549.80947 -18292417.23046  20800974.2974                   20800972.8954
   2278970.76246   1786739.68443  23950873.0164                   23950871.6764
   4898959.80946   3829472.45343  24534206.1884                   24534207.4884
 -18739306.35947 -14592435.94146  21458049.3134                   21458046.4494
 -21521143.09048 -16753003.01246  20558249.7424                   20558247.5864
 -15269471.11347 -11881706.58244  22224673.1024                   22224672.3714
 -15298250.58247 -11912189.85946  21455007.1414                   21455004.6454
 11  9 27  2 40 30.0000000  0  7G29G22G09G21G15G26G18
 -23449913.45348 -18257635.66846  20809468.4924                   20809467.5944
   2194381.14546   1720825.80144  23934777.7424                   23934775.2774
   4794347.93446   3747956.80943  24514298.4454                   24514301.1644
 -18816263.89547 -14652402.82446  21443404.5864                   21443402.0234
 -21513592.30948 -16747119.27046  20559686.1954                   20559684.2504
 -15202549.39847 -11829559.80144  22237408.0234                   22237407.2774
 -15343991.75847 -11947832.28946  21446302.6484                   21446300.7894
 11  9 27  2 41  0.0000000  0  7G29G22G09G21G15G26G18
 -23404804.87548 -18222486.14146  20818052.4534                   20818051.4304
   2109957.21947   1655041.05544  23918711.9224                   23918709.0124
   4689679.00445   3666396.71143  24494381.6254                   24494382.9304
 -18893104.46947 -14712278.56646  21428782.2344                   21428779.2384
 -21505467.62948 -16740788.34046  20561232.2114                   20561230.1414
 -15135149.51246 -11777040.43444  22250233.8284                   22250233.0084
 -15389523.05147 -11983311.16846  21437638.4774                   21437635.7734
 11  9 27  2 41 30.0000000  0  7G29G22G09G21G15G26G18
 -23359226.28547 -18186970.38346  20826725.4064                   20826724.2584
   2025698.80147   1589385.30544  23902676.9224                   23902675.4534
   4584955.97346   3584794.46143  24474452.8914                   24474454.7304
 -18969826.45747 -14772061.89546  21414182.6884                   21414180.0004
 -21496770.51648 -16734011.35246  20562886.9534                   20562885.1134
 -15067274.79747 -11724151.04344  22263149.7344                   22263148.9344
 -15434846.21947 -12018627.88346  21429013.7194                   21429011.3404
 11  9 27  2 42  0.0000000  0  7G29G22G09G21G15G26G18
 -21737759.37547 -16923489.69146  21135280.5944                   21135279.7464
   3517030.06647   2751461.72744  24186468.4384                   24186466.8404
   6055606.59046   4730756.12543  24754308.0944                   24754309.4454
 -17471003.69147 -13604148.02346  21699399.3754                   21699396.3674
 -19912080.86348 -15499188.24246  20864443.6954                   20864441.6764
 -13423508.90247 -10443294.48844  22575948.1954                   22575946.9774
 -13904538.73047 -10826180.45746  21720221.2504                   21720219.0314
 11  9 27  2 42 30.0000000  0  7G29G22G09G21G15G26G18
 -21691245.77348 -16887245.34846  21144131.7504                   21144130.8364
   3433102.61747   2686063.81344  24170498.2504                   24170495.3634
   5950784.55145   4649076.69543  24734360.6954                   24734362.1294
 -17547482.51647 -13663741.88346  21684845.2664                   21684842.6094
 -19902242.36748 -15491521.87146  20866315.9454                   20866314.2774
 -13354693.44547 -10389672.05944  22589043.0004                   22589042.2544
 -13949446.92247 -10861173.80946  21711675.9774                   21711673.3284
 11  9 27  2 43  0.0000000  0  7G29G22G09G21G15G26G18
 -21644267.98047 -16850639.29346  21153071.6254                   21153070.4024
   3349340.73447   2620794.92244  24154557.7274                   24154555.6604
   5845917.96545   4567362.65643  24714406.1024                   24714407.2034
 -17623836.69147 -13723238.61746  21670315.7194                   21670313.1174
 -19891834.98448 -15483412.21546  20868296.1024                   20868294.4574
 -13285411.73047 -10335686.30944  22602227.1094                   22602225.9734
 -13994148.12947 -10896005.88346  21703169.2194                   21703167.2154
 11  9 27  2 43 30.0000000  0  7G29G22G09G21G15G26G18
 -21596829.32448 -16813674.12146  21162099.0314                   21162097.8554
   3265742.68447   2555653.72744  24138649.5864                   24138647.0594
   5741007.91046   4485614.67643  24694442.0004                   24694442.7304
 -17700066.84847 -13782638.70346  21655809.7974                   21655806.7464
 -19880861.37547 -15474861.34846  20870384.4454                   20870382.6374
 -13215668.62146 -10281340.97744  22615498.9384                   22615497.6764
 -14038644.74247 -10930678.53146  21694701.9614                   21694699.3984
 11  9 27  2 44  0.0000000  0  7G29G22G09G21G15G26G18
 -21548930.20348 -16776350.15246  21171213.5944                   21171212.5904
   3182310.18447   2490641.49644  24122773.4384                   24122770.0204
   5636059.60246   4403836.94143  24674471.4774                   24674472.1454
 -17776169.16847 -13841939.18046  21641328.1024                   21641325.4924
 -19869321.21948 -15465869.00846  20872580.5634                   20872578.8164
 -13145465.31247 -10226637.13744  22628858.4144                   22628857.0864
 -14082935.96147 -10965191.13746  21686273.4924                   21686270.9144
 11  9 27  2 44 30.0000000  0  8G29G22G09G06G21G15G26G18
 -21500575.16448 -16738670.92646  21180415.2504                   21180414.3094
   3099040.57047   2425756.19544  24106928.0164                   24106924.8134
   5531073.52746   4322029.69143  24654492.3914                   24654493.0354
   7723469.73456   6030477.50453  24953512.7114                   24953513.0234
 -17852143.79747 -13901140.16446  21626870.6174                   21626867.3794
 -19857218.36748 -15456438.21146  20874883.2504                   20874881.5744
 -13074807.64846 -10171579.23444  22642303.5634                   22642302.8914
 -14127024.47748 -10999545.78946  21677883.6954                   21677881.2344
 11  9 27  2 45  0.0000000  0  8G29G22G09G06G21G15G26G18
 -21451771.06248 -16700641.76646  21189702.5474                   21189701.2034
   3015928.66047   2360993.80944  24091111.9144                   24091108.7814
   5426047.15646   4240191.07843  24634506.8754                   24634507.1994
   7619738.29746   5949647.93443  24933772.9304                   24933772.9964
 -17927995.11347 -13960245.05546  21612436.3444                   21612433.4384
 -19844559.92647 -15446574.48046  20877292.3364                   20877290.7584
 -13003704.13346 -10116173.90644  22655833.9304                   22655833.4414
 -14170917.39147 -11033748.03146  21669531.3054                   21669528.6174
 11  9 27  2 45 30.0000000  0  8G29G22G09G06G21G15G26G18
 -21402522.70748 -16662266.43746  21199074.2814                   21199072.8204
   2932971.84847   2296352.29344  24075325.1024                   24075322.5904
   5320981.68046   4158321.96143  24614512.6644                   24614513.6804
   7516263.34846   5869018.23043  24914082.2734                   24914081.5044
 -18003722.72347 -14019253.55146  21598025.7504                   21598022.6524
 -19831348.85947 -15436280.13346  20879806.5164                   20879804.3484
 -12932159.84446 -10060425.12544  22669448.8444                   22669447.7934
 -14214616.91048 -11067799.57046  21661215.2504                   21661212.6024
 11  9 27  2 46  0.0000000  0  8G29G22G09G06G21G15G26G18
 -21352830.93048 -16623545.59446  21208530.2974                   21208529.2544
   2850171.38747   2231832.56344  24059569.2344                   24059566.2504
   5215881.49246   4076425.84843  24594512.8594                   24594513.8674
   7413048.50046   5788591.19543  24894440.6724                   24894440.5824
 -18079324.35947 -14078163.89546  21583639.0234                   21583636.5744
 -19817585.46148 -15425555.40246  20882425.6644                   20882423.7304
 -12860176.68747 -10004334.37144  22683147.3914                   22683145.8714
 -14258122.76647 -11101700.20746  21652936.6254                   21652933.9104
 11  9 27  2 46 30.0000000  0  8G29G22G09G06G21G15G26G18
 -21302695.52048 -16584479.06246  21218070.5784                   21218069.4024
   2767529.37147   2167436.33244  24043842.8834                   24043839.8204
   5110751.74646   3994506.64143  24574508.1024                   24574508.3444
   7310098.15246   5708370.21543  24874849.5474                   24874849.9534
 -18154795.53548 -14136972.57446  21569277.4064                   21569274.4384
 -19803269.00048 -15414399.70346  20885150.2584                   20885147.8754
 -12787755.70347  -9947902.42644  22696928.1024                   22696927.4734
 -14301433.22748 -11135448.58646  21644694.6644                   21644692.1524
 11  9 27  2 47  0.0000000  0  8G29G22G09G06G21G15G26G18
 -21252117.43448 -16545067.57446  21227695.1414                   21227694.1334
   2685046.75046   2103164.29344  24028146.1484                   24028143.9804
   5005596.82446   3912567.84443  24554497.0314                   24554498.0234
   7207416.06645   5628358.29743  24855310.5164                   24855310.1524
 -18230133.14147 -14195677.17646  21554941.3984                   21554938.3554
 -19788399.91047 -15402813.39146  20887979.3284                   20887977.1844
 -12714898.85946  -9891130.87144  22710792.3834                   22710791.6684
 -14344547.60547 -11169044.18046  21636490.5784                   21636488.0474
 11  9 27  2 47 30.0000000  0  8G29G22G09G06G21G15G26G18
 -21201097.34848 -16505311.68446  21237403.9534                   21237402.9454
   2602724.96147   2039017.55144  24012480.7344                   24012478.6914
   4900421.29746   3830612.99643  24534483.5944                   24534483.8754
   7105005.89146   5548558.27043  24835822.4224                   24835822.9304
 -18305334.10947 -14254275.31246  21540630.6954                   21540628.2504
 -19772977.73847 -15390796.09046  20890914.1174                   20890912.1484
 -12641607.65246  -9834020.82844  22724738.7814                   22724738.1094
 -14387465.52748 -11202486.68446  21628323.3134                   21628320.6564
 11  9 27  2 48  0.0000000  0  8G29G22G09G06G21G15G26G18
 -21149638.34848 -16465213.79346  21247195.9774                   21247195.4064
   2520562.99647   1974995.37544  23996846.0474                   23996843.0004
   4795227.51646   3748643.92643  24514465.1954                   24514465.9384
   7002869.11346   5468971.27043  24816385.8284                   24816387.2704
 -18380397.19547 -14312766.00046  21526346.8134                   21526344.1414
 -19757005.30947 -15378350.03946  20893953.3984                   20893951.9104
 -12567886.37146  -9776575.66044  22738767.8054                   22738766.5514
 -14430188.50447 -11235777.28946  21620193.5004                   21620190.8634
 11  9 27  2 48 30.0000000  0  8G29G22G09G06G21G15G26G18
 -21097740.62148 -16424774.01246  21257072.2584                   21257071.1134
   2438562.55947   1911099.04344  23981242.0234                   23981239.1414
   4690020.40246   3666664.45743  24494444.8524                   24494445.6644
   6901009.98046   5389600.61743  24797003.0944                   24797003.2274
 -18455319.26248 -14371146.81646  21512089.9774                   21512086.8794
 -19740482.24647 -15365474.91846  20897097.6094                   20897095.7234
 -12493735.89547  -9718796.05144  22752878.2114                   22752877.1174
 -14472715.76247 -11268915.37946  21612100.7664                   21612098.1484
 11  9 27  2 49  0.0000000  0  8G29G22G09G06G21G15G26G18
 -21045405.65648 -16383993.54346  21267031.1884                   21267030.2544
   2356724.65647   1847329.36744  23965668.4224                   23965665.7854
   4584804.12546   3584677.85943  24474422.9304                   24474423.4024
   6799431.65646   5310448.78143  24777672.7504                   24777673.0274
 -18530097.29748 -14429415.39546  21497860.1174                   21497857.1684
 -19723409.14148 -15352171.19946  20900346.6174                   20900344.2664
 -12419158.84447  -9660684.02344  22767070.0554                   22767067.8134
 -14515046.93748 -11301900.67246  21604045.4774                   21604042.8794
 11  9 27  2 49 30.0000000  0  8G29G22G09G06G21G15G26G18
 -20992636.93448 -16342875.08646  21277072.9384                   21277071.8794
   2275047.23047   1783684.75044  23950125.9224                   23950123.0904
   4479580.25446   3502685.34844  24454398.9384                   24454400.5084
   6698135.10946   5231516.52343  24758396.6024                   24758396.3754
 -18604730.76248 -14487571.32046  21483657.5704                   21483654.5434
 -19705788.63748 -15338440.93046  20903699.7974                   20903697.7304
 -12344159.87546  -9602243.24644  22781341.5234                   22781339.3594
 -14557183.97748 -11334734.70346  21596026.5474                   21596024.6414
 11  9 27  2 50  0.0000000  0  8G29G22G09G06G21G15G26G18
 -20939435.91448 -16301419.76646  21287196.6254                   21287195.9104
   2193531.01247   1720165.75044  23934613.7344                   23934610.6804
   4374352.43846   3420689.75043  24434374.4384                   24434375.7584
   6597123.25446   5152806.11343  24739174.8594                   24739174.8524
 -18679217.18748 -14545612.68046  21469483.0784                   21469480.1454
 -19687622.05148 -15324285.14546  20907156.6954                   20907154.4494
 -12268741.39846  -9543475.56244  22795692.7114                   22795691.4734
 -14599127.22748 -11367417.71946  21588045.0634                   21588042.6724
 11  9 27  2 50 30.0000000  0  8G29G22G09G06G21G15G26G18
 -20885803.89548 -16259628.59446  21297402.5394                   21297401.7934
   2112176.75447   1656772.93444  23919132.6024                   23919129.3054
   4269125.00046   3338694.45343  24414351.0864                   24414351.8834
   6496399.37945   5074320.14843  24720006.9694                   24720007.8594
 -18753553.70348 -14603537.22346  21455337.6334                   21455334.5124
 -19668909.89548 -15309704.24246  20910717.5084                   20910715.4654
 -12192905.78946  -9484382.88344  22810124.1174                   22810123.0164
 -14640876.44548 -11399949.55546  21580100.8754                   21580097.7894
 11  9 27  2 51  0.0000000  0  8G29G22G09G06G21G15G26G18
 -20831744.29748 -16217504.25446  21307689.9384                   21307688.7774
   2030983.44147   1593505.55544  23903680.7664                   23903679.1914
   4163900.48046   3256701.47343  24394326.9924                   24394328.2194
   6395965.18846   4996059.79743  24700894.9844                   24700895.7734
 -18827739.33648 -14661344.19546  21441220.8054                   21441217.6174
 -19649654.59448 -15294700.10246  20914381.8054                   20914379.9104
 -12116656.55146  -9424967.88344  22824634.5704                   22824632.4264
 -14682432.77747 -11432331.07446  21572192.6334                   21572190.0124
 11  9 27  2 51 30.0000000  0  8G29G22G09G06G21G15G26G18
 -20777258.36748 -16175047.71146  21318057.9384                   21318057.2734
   1949951.78147   1530364.13344  23888261.7194                   23888258.7384
   4058682.44946   3174713.47743  24374304.2424                   24374305.4184
   6295823.35546   4918027.32443  24681838.9454                   24681839.7274
 -18901771.48448 -14719031.57046  21427132.4534                   21427129.4494
 -19629856.97348 -15279273.37946  20918149.4384                   20918146.7114
 -12039996.86346  -9365233.02044  22839221.3914                   22839220.3284
 -14723796.81647 -11464562.77046  21564321.3524                   21564319.1804
 11  9 27  2 52  0.0000000  0  8G29G22G09G06G21G15G26G18
 -20722349.21548 -16132261.38346  21328506.5084                   21328505.9924
   1869080.90247   1467347.96544  23872872.4614                   23872868.9654
   3953473.65246   3092732.71543  24354284.4614                   24354285.0004
   6195975.77046   4840224.10243  24662838.8364                   24662839.0274
 -18975648.83248 -14776598.31646  21413074.2584                   21413071.2384
 -19609519.36748 -15263425.89546  20922019.3834                   20922017.0784
 -11962930.08646  -9305180.96944  22853886.7584                   22853885.5004
 -14764969.54348 -11496645.37946  21556486.4454                   21556483.6914
 11  9 27  2 52 30.0000000  0  8G29G22G09G06G21G15G26G18
 -20667018.82848 -16089146.81246  21339035.7114                   21339035.4694
   1788370.32047   1404456.72744  23857513.1484                   23857510.9144
   3848277.30546   3010761.66443  24334265.4534                   24334265.8134
   6096424.65646   4762651.89843  24643894.9694                   24643894.2854
 -19049369.42248 -14834042.92246  21399045.7814                   21399042.5004
 -19588643.48848 -15247158.97746  20925991.8674                   20925989.7854
 -11885459.52746  -9244814.26644  22868629.0394                   22868628.3164
 -14805951.84048 -11528579.60946  21548687.7424                   21548685.0164
 11  9 27  2 53  0.0000000  0  8G29G22G09G06G21G15G26G18
 -20611270.71948 -16045706.75446  21349644.5394                   21349643.4774
   1707818.93446   1341689.52744  23842183.8364                   23842181.6994
   3743095.39146   2928801.83243  24314249.5084                   24314250.2544
   5997171.22346   4685311.71143  24625007.8204                   24625006.3634
 -19122932.63748 -14891364.90646  21385047.0394                   21385044.0354
 -19567231.97348 -15230474.68046  20930066.1644                   20930064.0594
 -11807589.52746  -9184136.31644  22883446.9534                   22883446.2664
 -14846745.52048 -11560366.84846  21540925.1724                   21540922.3554
 11  9 27  2 53 30.0000000  0  8G29G22G09G06G21G15G26G18
 -20555106.30148 -16001942.29746  21360332.0474                   21360331.6724
   1627427.60547   1279047.04344  23826886.7114                   23826884.2304
   3637932.12146   2846856.53543  24294237.8284                   24294238.1214
   5898218.69946   4608205.89843  24606176.7894                   24606176.2854
 -19196335.28948 -14948561.76246  21371079.3834                   21371076.1374
 -19545285.92648 -15213373.85946  20934242.8134                   20934240.1954
 -11729322.53146  -9123149.01644  22898340.7664                   22898340.0824
 -14887350.49248 -11592007.06246  21533198.0634                   21533195.4884
 11  9 27  2 54  0.0000000  0  8G29G22G09G06G21G15G26G18
 -20498527.02748 -15957854.57046  21371098.9064                   21371097.9884
   1547197.20347   1216529.95344  23811619.6414                   23811616.3874
   3532792.06646   2764929.35943  24274230.4774                   24274231.2114
   5799570.51646   4531337.30143  24587404.8364                   24587404.7074
 -19269574.54748 -15005631.30546  21357141.7194                   21357138.7544
 -19522805.82848 -15195856.89146  20938520.1954                   20938518.3054
 -11650660.41846  -9061853.83244  22913309.7584                   22913308.6174
 -14927766.15648 -11623499.75046  21525507.2814                   21525504.0744
 11  9 27  2 54 30.0000000  0  8G29G22G09G06G21G15G26G18
 -20441536.56248 -15913446.44146  21381943.8984                   21381943.0474
   1467125.88347   1154136.80144  23796382.2734                   23796378.9494
   3427676.75846   2683021.44943  24254227.6174                   24254228.3164
   5701227.51646   4454706.47743  24568691.3444                   24568689.0784
 -19342649.90648 -15062573.12946  21343236.3204                   21343233.0864
 -19499794.90248 -15177926.30546  20942899.2034                   20942897.1294
 -11571608.16846  -9000254.62544  22928352.6024                   22928351.6644
 -14967994.67648 -11654846.62146  21517851.7034                   21517849.4264
 11  9 27  2 55  0.0000000  0  8G29G22G09G06G21G15G26G18
 -20384139.37948 -15868721.38746  21392866.2734                   21392865.5004
   1387211.37947   1091865.87144  23781175.7814                   23781171.6684
   3322587.37946   2601133.72744  24234230.0474                   24234230.6454
   5603189.64546   4378313.42643  24550034.6954                   24550032.8874
 -19415562.06248 -15119387.78146  21329361.4064                   21329358.4844
 -19476257.21948 -15159585.24646  20947378.2504                   20947376.3634
 -11492170.90646  -8938355.43044  22943469.1174                   22943468.4694
 -15008039.30948 -11686050.20346  21510231.7194                   21510228.7424
 11  9 27  2 55 30.0000000  0  8G29G22G09G06G21G15G26G18
 -20326334.27748 -15823678.48046  21403866.3364                   21403865.1914
   1307457.00447   1029719.71544  23765997.8364                   23765994.5274
   3217530.50046   2519271.32043  24214238.4454                   24214238.9304
   5505462.62946   4302162.60243  24531437.8754                   24531436.0554
 -19488305.45348 -15176070.92646  21315518.8054                   21315515.7774
 -19452190.89848 -15140832.27346  20951957.6884                   20951955.8794
 -11412348.47746  -8876156.11744  22958658.7344                   22958657.6564
 -15047897.24248 -11717108.31246  21502646.9534                   21502644.5314
 11  9 27  2 56  0.0000000  0  8G29G22G09G06G21G15G26G18
 -20268123.18748 -15778319.20746  21414943.4844                   21414942.5314
   1227863.10247    967698.59844  23750851.8914                   23750848.7504
   3112510.16446   2437437.40643  24194253.4144                   24194254.4844
   5408049.61346   4226256.41043  24512900.5474                   24512898.9804
 -19560877.25048 -15232620.35946  21301709.0634                   21301706.0744
 -19427596.84848 -15121668.08246  20956638.0704                   20956635.8094
 -11332143.49647  -8813658.70344  22973921.6024                   22973920.2424
 -15087568.74248 -11748021.12546  21495097.6884                   21495094.9024
 11  9 27  2 56 30.0000000  0  8G29G22G09G06G21G15G26G18
 -20209510.05548 -15732646.66446  21426097.3444                   21426095.9144
   1148427.71547    905800.98044  23735735.8594                   23735733.2854
   3007527.83246   2355633.08244  24174275.7194                   24174275.7424
   5310950.87146   4150595.11743  24494423.5164                   24494422.3874
 -19633277.17248 -15289035.86746  21287931.8204                   21287928.5204
 -19402478.90248 -15102095.64146  20961417.6644                   20961415.6844
 -11251561.16447  -8750867.24244  22989255.8754                   22989254.8594
 -15127056.12148 -11778790.48846  21487583.5474                   21487580.7544
 11  9 27  2 57  0.0000000  0  8G29G22G09G06G21G15G26G18
 -20150500.09048 -15686664.88346  21437326.2894                   21437325.1294
   1069147.89147    844024.56644  23720649.4534                   23720646.0944
   2902584.21546   2273858.94944  24154305.2344                   24154306.8444
   5214166.20746   4075178.56643  24476005.9064                   24476005.6094
 -19705505.87948 -15345317.94946  21274186.5164                   21274183.6604
 -19376841.63348 -15082118.55546  20966296.3364                   20966294.1954
 -11170607.09847  -8687786.12544  23004661.0394                   23004659.9734
 -15166362.66048 -11809418.93446  21480103.5944                   21480101.0904
 11  9 27  2 57 30.0000000  0  8G29G22G09G06G21G15G26G18
 -20091095.35548 -15640375.51646  21448630.8914                   21448630.0944
    990023.98847    782369.68844  23705592.7194                   23705588.9224
   2797682.57846   2192117.51644  24134342.8674                   24134344.0394
   5117698.03546   4000008.65643  24457648.6484                   24457648.0704
 -19777561.52048 -15401465.19146  21260475.1334                   21260472.3634
 -19350686.55948 -15061737.98046  20971273.6094                   20971271.3914
 -11089284.22347  -8624417.60944  23020136.2424                   23020134.8164
 -15205489.02348 -11839906.98446  21472657.9924                   21472655.3874
 11  9 27  2 58  0.0000000  0  8G29G22G09G06G21G15G26G18
 -20031295.73448 -15593778.41846  21460010.2424                   21460008.9574
    911057.65647    720837.56644  23690566.1024                   23690562.3324
   2692828.81647   2110413.39844  24114390.2344                   24114390.5124
   5021551.14546   3925089.08644  24439352.4224                   24439352.1724
 -19849439.39848 -15457473.90246  21246797.5004                   21246794.3524
 -19324012.95748 -15040953.34846  20976349.0944                   20976347.6254
 -11007593.55947  -8560762.49644  23035681.8594                   23035680.0234
 -15244433.09848 -11870252.98846  21465247.5634                   21465244.5744
 11  9 27  2 58 30.0000000  0  8G29G22G09G06G21G15G26G18
 -19971106.20348 -15546877.50846  21471463.9384                   21471462.5514
    832246.58647    659426.41044  23675568.1484                   23675565.2704
   2588023.82446   2028747.25443  24094446.2974                   24094446.2464
   4925725.29746   3850419.67244  24421117.0784                   24421117.5394
 -19921140.09848 -15513344.54746  21233153.0634                   21233149.9964
 -19296825.23848 -15019768.09846  20981522.8834                   20981520.8524
 -10925540.57047  -8496825.09444  23051295.6804                   23051294.5864
 -15283198.44148 -11900459.71146  21457870.2114                   21457868.0514
 11  9 27  2 59  0.0000000  0  8G29G22G09G06G21G15G26G18
 -19910526.16448 -15499672.28946  21482991.9304                   21482991.5004
    753593.63347    598138.47344  23660601.1724                   23660598.4264
   2483274.26646   1947124.29744  24074513.4454                   24074513.3594
   4830225.98046   3776004.71143  24402944.2034                   24402943.2894
 -19992658.21148 -15569072.92646  21219543.4844                   21219540.8444
 -19269122.03948 -14998181.18446  20986794.7814                   20986792.7814
 -10843125.35546  -8432605.41444  23066979.0004                   23066977.5474
 -15321782.27348 -11930525.02046  21450528.1414                   21450525.2894
 11  9 27  2 59 30.0000000  0  8G29G22G09G06G21G15G26G18
 -19849560.03548 -15452166.24646  21494593.6024                   21494592.4694
    675096.49247    536971.95744  23645663.4454                   23645660.8094
   2378580.93046   1865545.19544  24054591.2344                   24054590.8094
   4735053.10946   3701844.09843  24384833.5784                   24384833.0704
 -20063993.71148 -15624658.99646  21205968.8444                   21205965.8984
 -19240907.39548 -14976195.73446  20992163.4774                   20992162.1174
 -10760353.47746  -8368107.84444  23082729.4534                   23082728.1804
 -15360187.97748 -11960451.51646  21443220.1024                   21443217.1804
 11  9 27  3  0  0.0000000  0  8G29G22G09G06G21G15G26G18
 -19788209.03148 -15404360.29746  21506268.2974                   21506267.2344
    596755.72747    475927.29744  23630755.4694                   23630752.8324
   2273948.14547   1784013.25843  24034679.8204                   24034680.0514
   4640209.67646   3627940.20743  24366785.6884                   24366785.2504
 -20135144.18748 -15680100.90646  21192429.2584                   21192426.1094
 -19212182.40648 -14953812.61746  20997629.7894                   20997627.8594
 -10677227.30546  -8303334.18744  23098547.7344                   23098546.2854
 -15398415.05948 -11990238.82446  21435945.4844                   21435942.5904
 11  9 27  3  0 30.0000000  0  8G29G22G09G06G21G15G26G18
 -19726478.42248 -15356258.55146  21518015.1644                   21518013.9304
    518569.19547    415002.81344  23615877.3054                   23615873.6804
   2169377.27347   1702529.53544  24014780.5864                   24014780.4694
   4545696.03146   3554293.32843  24348800.0784                   24348798.5234
 -20206109.53548 -15735398.55146  21178925.2974                   21178922.2774
 -19182951.09448 -14931034.95346  21003192.4224                   21003190.6524
 -10593751.99646  -8238288.47743  23114432.1564                   23114431.3284
 -15436466.26248 -12019889.09046  21428704.6724                   21428701.9384
 11  9 27  3  1  0.0000000  0  8G29G22G09G06G21G15G26G18
 -19664368.80948 -15307861.47746  21529834.1644                   21529833.3134
    440538.12947    354199.44944  23601028.4064                   23601024.7704
   2064873.10946   1621097.79743  23994894.0864                   23994894.3594
   4451515.95746   3480906.35543  24330877.8444                   24330877.3984
 -20276886.07848 -15790549.07446  21165456.8284                   21165453.7194
 -19153213.91848 -14907863.11746  21008851.1414                   21008849.1644
 -10509929.24246  -8172972.02043  23130382.9384                   23130381.4884
 -15474340.78948 -12049401.68446  21421497.1094                   21421494.8204
 11  9 27  3  1 30.0000000  0  8G29G22G09G06G21G15G26G18
 -19601883.93448 -15259172.00446  21541724.4844                   21541723.9344
    362660.75847    293515.85944  23586208.5784                   23586204.3754
   1960437.75047   1539719.71943  23975020.0864                   23975020.5904
   4357670.43046   3407780.07843  24313019.1174                   24313019.5354
 -20347473.15648 -15845551.98046  21152024.0784                   21152021.4264
 -19122974.08648 -14884299.60546  21014605.6564                   21014603.2664
 -10425763.68046  -8107388.44143  23146399.4454                   23146398.2894
 -15512040.55148 -12078778.09446  21414323.1564                   21414320.4804
 11  9 27  3  2  0.0000000  0  8G29G22G09G06G21G15G26G18
 -19539024.32448 -15210190.51646  21553686.5784                   21553685.4574
    284939.05547    232953.57044  23571418.7894                   23571415.1334
   1856076.94947   1458399.69944  23955161.8054                   23955161.6884
   4264163.56646   3334917.68043  24295225.6254                   24295225.5634
 -20417866.85248 -15900404.17646  21138628.6954                   21138625.9884
 -19092231.58248 -14860344.39546  21020455.6094                   21020453.4064
 -10341256.47746  -8041538.66843  23162480.6804                   23162479.6954
 -15549564.50848 -12108017.52046  21407182.6024                   21407180.0164
 11  9 27  3  2 30.0000000  0  8G29G22G09G06G21G15G26G18
 -19475793.05148 -15160919.41446  21565719.3054                   21565717.9184
    207371.96547    172511.74244  23556658.5864                   23556654.4064
   1751793.03147   1377139.58244  23935316.5394                   23935317.2814
   4170996.99646   3262320.42643  24277496.2734                   24277496.2584
 -20488065.52348 -15955104.42246  21125270.3524                   21125267.8404
 -19060988.89548 -14835999.43746  21026400.8364                   21026398.9774
 -10256411.42247  -7975425.61743  23178625.9774                   23178624.8874
 -15586913.85948 -12137120.88346  21400075.3134                   21400072.4224
 11  9 27  3  3  0.0000000  0  8G29G22G09G06G21G15G26G18
 -19412192.14548 -15111360.29746  21577822.3674                   21577820.9264
    129959.95747    112190.78944  23541926.8284                   23541923.5124
   1647589.69147   1295942.25044  23915487.3594                   23915486.1604
   4078173.35946   3189990.39543  24259832.9304                   24259831.3134
 -20558066.75048 -16009650.80146  21111949.7274                   21111946.8284
 -19029247.61748 -14811265.95346  21032441.2344                   21032438.6844
 -10171231.34046  -7909051.48843  23194835.2814                   23194834.1804
 -15624088.85948 -12166088.40246  21393000.9304                   21392998.4574
 11  9 27  3  3 30.0000000  0  8G29G22G09G06G21G15G26G18
 -19348223.49648 -15061514.61346  21589995.1094                   21589993.8634
     52703.23447     51990.82444  23527225.3444                   23527221.8714
   1543471.43447   1214811.23844  23895674.3204                   23895674.2304
   3985695.49647   3117929.76643  24242235.5864                   24242233.2664
 -20627867.99648 -16064041.35946  21098667.0864                   21098663.9224
 -18997009.10248 -14786145.01646  21038576.0314                   21038573.8164
 -10085718.89847  -7842418.41444  23211107.5944                   23211106.4964
 -15661089.73048 -12194920.22346  21385959.9064                   21385957.2304
 11  9 27  3  4  0.0000000  0  8G29G22G09G06G21G15G26G18
 -19283891.02748 -15011385.45346  21602237.0004                   21602236.0514
    -24399.75047     -8089.34044  23512552.7664                   23512550.1414
   1439440.09047   1133747.95744  23875877.6884                   23875877.6644
   3893564.37147   3046139.33643  24224702.6024                   24224700.6374
 -20697468.01248 -16118275.10946  21085422.2424                   21085419.3674
 -18964276.64548 -14760639.19146  21044804.7344                   21044802.2704
  -9999878.46547  -7775529.77044  23227443.0944                   23227442.1294
 -15697918.11348 -12223617.64846  21378951.6884                   21378949.1684
 11  9 27  3  4 30.0000000  0  8G29G22G09G06G21G15G26G18
 -19219197.58648 -14960975.00046  21614547.9224                   21614546.9654
   -101349.50846    -68050.11344  23497909.5554                   23497906.6884
   1335498.71147   1052754.75044  23856098.0084                   23856097.8244
   3801781.74247   2974620.43443  24207236.6564                   24207235.0124
 -20766865.30948 -16172350.90246  21072216.8914                   21072213.7974
 -18931052.88748 -14734750.53946  21051127.1884                   21051125.0554
  -9913713.72747  -7708388.41844  23243839.8914                   23243838.2584
 -15734575.26248 -12252181.63746  21371976.4064                   21371973.5274
 11  9 27  3  5  0.0000000  0  8G29G22G09G06G21G15G26G18
 -19154144.79347 -14910284.54346  21626926.9614                   21626925.7814
   -178145.44547   -127891.02744  23483296.4844                   23483293.1094
   1231651.69547    971835.08244  23836336.6024                   23836336.7274
   3710350.64547   2903375.45343  24189837.7194                   24189837.1024
 -20836057.09448 -16226266.55946  21059050.1644                   21059046.8984
 -18897338.88347 -14708479.86746  21057542.3984                   21057540.4344
  -9827226.92246  -7640996.08243  23260297.0554                   23260296.3284
 -15771060.87148 -12280611.96546  21365033.2584                   21365030.4884
 11  9 27  3  5 30.0000000  0  8G29G22G09G06G21G15G26G18
 -19088737.14548 -14859317.58246  21639373.6414                   21639372.1954
   -254789.83247   -187613.85544  23468711.2894                   23468706.9384
   1127900.19547    890989.85544  23816593.1094                   23816592.5944
   3619271.29746   2832404.55944  24172506.3204                   24172506.0354
 -20905043.05948 -16280021.84046  21045922.6094                   21045919.4534
 -18863138.37948 -14681830.10246  21064050.4144                   21064048.2194
  -9740423.42246  -7573356.99643  23276815.8054                   23276814.6024
 -15807377.76648 -12308910.82046  21358122.1804                   21358119.5904
 11  9 27  3  6  0.0000000  0  8G29G22G09G06G21G15G26G18
 -19022976.33647 -14808075.41446  21651887.6024                   21651886.4734
   -331282.12547   -247218.18044  23454154.9844                   23454151.4734
   1024248.96947    810222.75444  23796868.8444                   23796868.6214
   3528546.68847   2761710.09843  24155242.6484                   24155241.5744
 -20973820.34048 -16333614.50046  21032834.5554                   21032831.5594
 -18828452.62547 -14654802.23446  21070650.8444                   21070649.1374
  -9653305.55947  -7505472.95344  23293393.9144                   23293392.4574
 -15843525.52348 -12337077.88746  21351243.5704                   21351240.8134
 11  9 27  3  6 30.0000000  0  8G29G22G09G06G21G15G26G18
 -18956865.44947 -14756560.46946  21664468.0314                   21664466.8524
   -407622.85247   -306704.41844  23439628.2424                   23439624.4804
    920700.84446    729535.97744  23777164.3984                   23777163.9344
   3438178.47746   2691293.37143  24138045.2664                   24138044.9734
 -21042387.31248 -16387043.28946  21019786.6804                   21019783.2814
 -18793284.47748 -14627398.47346  21077343.6254                   21077341.2774
  -9565876.96947  -7437346.77043  23310030.0394                   23310029.7624
 -15879505.68048 -12365114.34446  21344396.9384                   21344393.9804
 11  9 27  3  7  0.0000000  0  8G29G22G09G06G21G15G26G18
 -18890406.01247 -14704773.91846  21677115.0704                   21677113.1764
   -483811.45347   -366072.10944  23425129.7974                   23425126.2664
    817260.29747    648933.03144  23757480.3054                   23757479.6524
   3348170.00046   2621156.95343  24120916.7344                   24120916.0354
 -21110740.65248 -16440305.61346  21006779.3444                   21006775.9184
 -18757634.75848 -14599619.46146  21084127.1564                   21084124.9574
  -9478139.69947  -7368980.08644  23326726.2974                   23326725.9454
 -15915317.71548 -12393019.80946  21337582.2584                   21337579.0434
 11  9 27  3  7 30.0000000  0  8G29G22G09G06G21G15G26G18
 -18823599.93048 -14652717.26246  21689827.7814                   21689826.8094
   -559847.58647   -425321.00844  23410660.6724                   23410656.7304
    713930.97347    568416.75444  23737816.9534                   23737816.1764
   3258523.81346   2551302.88744  24103858.0004                   24103857.7774
 -21178877.75848 -16493399.44546  20993813.2194                   20993809.8874
 -18721504.92248 -14571466.32846  21091002.4614                   21091000.5864
  -9390096.41447  -7300374.89843  23343480.7584                   23343479.6844
 -15950961.41848 -12420794.09846  21330799.0704                   21330796.5944
 11  9 27  3  8  0.0000000  0  8G29G22G09G06G21G15G26G18
 -18756453.79348 -14600395.63346  21702605.3594                   21702603.9734
   -635735.50047   -484454.38344  23396219.7664                   23396215.7344
    610712.36747    487986.75044  23718175.2664                   23718175.4574
   3169238.18846   2481729.72343  24086867.1334                   24086867.7854
 -21246800.35248 -16546326.12546  20980887.8054                   20980884.5634
 -18684901.54348 -14542944.21146  21097967.6024                   21097965.8444
  -9301754.34447  -7231536.92644  23360291.9384                   23360290.5824
 -15986441.52048 -12448440.91046  21324047.4924                   21324044.7194
 11  9 27  3  8 30.0000000  0  8G29G22G09G06G21G15G26G18
 -18688967.72348 -14547809.11746  21715447.2814                   21715446.0944
   -711473.00047   -543470.55944  23381807.1564                   23381803.3594
    507610.75447    407647.88744  23698555.9064                   23698555.5824
   3080317.72346   2412441.09443  24069945.8284                   24069946.1484
 -21314504.11348 -16599082.28546  20968004.7194                   20968001.1804
 -18647823.69548 -14514052.37546  21105023.3984                   21105021.2774
  -9213114.31247  -7162466.73444  23377159.2974                   23377158.4654
 -16021756.37548 -12475958.96146  21317327.3134                   21317324.4144
 11  9 27  3  9  0.0000000  0  8G29G22G09G06G21G15G26G18
 -18621143.44547 -14494959.06246  21728354.1174                   21728352.7584
   -787059.15647   -602368.79744  23367423.5004                   23367419.8634
    404630.42246    327403.55543  23678958.7424                   23678958.2774
   2991765.46947   2343439.39844  24053096.2584                   24053095.7894
 -21381985.59448 -16651665.23846  20955163.1174                   20955159.8914
 -18610273.27348 -14484792.30546  21112169.1564                   21112167.0864
  -9124178.58247  -7093166.14543  23394082.6174                   23394082.2194
 -16056905.27748 -12503347.69146  21310638.6414                   21310635.7774
 11  9 27  3  9 30.0000000  0  8G29G22G09G06G21G15G26G18
 -18552985.33248 -14441848.85946  21741324.3054                   21741323.0124
   -862496.33247   -661150.97345  23353068.4144                   23353065.0084
    301772.80947    247254.84044  23659386.2034                   23659385.7074
   2903581.59446   2274724.75044  24036314.6334                   24036314.4454
 -21449244.83248 -16704075.02046  20942364.3524                   20942360.7974
 -18572253.69548 -14455166.65246  21119404.2114                   21119402.3054
  -9034952.07446  -7023638.97743  23411061.5084                   23411061.2894
 -16091891.40648 -12530609.59446  21303981.0554                   21303978.1294
 11  9 27  3 10  0.0000000  0  8G29G22G09G06G21G15G26G18
 -18484496.48448 -14388480.96546  21754357.2274                   21754355.9694
   -937784.99647   -719817.41845  23338741.1644                   23338737.9344
    199041.37546    167204.46544  23639836.8984                   23639836.4344
   2815768.08646   2206298.68044  24019604.9614                   24019603.9884
 -21516279.40648 -16756309.73446  20929607.6954                   20929604.6524
 -18533767.13348 -14425177.11746  21126727.6254                   21126725.5944
  -8945438.21146  -6953887.91443  23428095.6174                   23428095.2624
 -16126715.60548 -12557745.30146  21297353.9774                   21297351.3754
 11  9 27  3 10 30.0000000  0  8G29G22G09G06G21G15G26G18
 -18415677.24247 -14334855.59846  21767453.2344                   21767452.0084
  -1012923.91847   -778367.21944  23324442.6804                   23324439.4024
     96441.23447     87256.39843  23620312.2504                   23620312.0664
   2728328.79347   2138164.23044  24002965.5634                   24002964.8754
 -21583086.15248 -16808366.91446  20916894.9844                   20916891.7974
 -18494814.48048 -14394824.39546  21134140.1884                   21134138.2704
  -8855638.66046  -6883914.21943  23445184.0314                   23445183.1644
 -16161376.59848 -12584753.84446  21290758.1644                   21290755.3554
 11  9 27  3 11  0.0000000  0  8G29G22G09G06G21G15G26G18
 -18346531.16048 -14280975.57046  21780611.0784                   21780610.1024
  -1087914.01247   -836801.00044  23310172.8524                   23310169.4844
     -6024.96547      7412.69944  23600813.6724                   23600814.0474
   2641264.85247   2070322.20344  23986397.6174                   23986397.0664
 -21649663.39548 -16860245.27346  20904225.5164                   20904222.5434
 -18455398.61348 -14364110.75046  21141640.8204                   21141638.9414
  -8765557.01247  -6813720.73443  23462326.4844                   23462324.8914
 -16195875.44148 -12611636.04346  21284193.4534                   21284190.5904
 11  9 27  3 11 30.0000000  0  8G29G22G09G06G21G15G26G18
 -18277063.87547 -14226845.25446  21793830.0164                   21793829.3204
  -1162758.41847   -895121.26645  23295930.8364                   23295926.8364
   -108356.49247    -72326.04744  23581340.2974                   23581340.0124
   2554575.53147   2002772.08244  23969901.2894                   23969900.8324
 -21716011.68748 -16911945.23046  20891599.8984                   20891596.5984
 -18415524.51248 -14333040.00446  21149228.5314                   21149226.3984
  -8675199.74246  -6743312.46543  23479520.5394                   23479519.4804
 -16230216.14148 -12638395.00446  21277658.4694                   21277655.5824
 11  9 27  3 12  0.0000000  0  8G29G22G09G06G21G15G26G18
 -18207277.19547 -14172466.05946  21807110.3674                   21807109.6134
  -1237456.24647   -953327.34444  23281715.7424                   23281712.0434
   -210548.90247   -151956.43044  23561894.1334                   23561894.3324
   2468264.08646   1935516.44543  23953476.6414                   23953475.3364
 -21782127.84048 -16963464.30146  20879018.6484                   20879015.3244
 -18375193.64847 -14301613.36346  21156903.5474                   21156901.3954
  -8584568.69146  -6672690.85943  23496766.9924                   23496766.2774
 -16264397.78548 -12665030.05146  21271154.0164                   21271151.1484
 11  9 27  3 12 30.0000000  0  8G29G22G09G06G21G15G26G18
 -18137169.78547 -14117836.93746  21820451.3284                   21820450.2154
  -1312004.11747  -1011416.57844  23267529.5084                   23267525.7584
   -312594.92647   -231472.72344  23542474.9924                   23542474.4924
   2382336.16846   1868559.64543  23937124.9064                   23937122.8094
 -21848006.04348 -17014797.95746  20866482.3364                   20866478.6684
 -18334404.12548 -14269829.31646  21164665.3284                   21164663.3284
  -8493663.30946  -6601855.50043  23514065.5234                   23514064.6684
 -16298417.58248 -12691538.95746  21264680.2974                   21264677.2584
 11  9 27  3 13  0.0000000  0  8G29G22G09G06G21G15G26G18
 -18066742.96147 -14062958.91846  21833852.9304                   21833852.0824
  -1386401.04347  -1069388.16444  23253372.5084                   23253368.3984
   -414489.69147   -310871.17244  23523085.8284                   23523085.1484
   2296795.08647   1801904.28143  23920847.1174                   23920846.2544
 -21913642.89548 -17065943.52746  20853991.9614                   20853988.5314
 -18293157.07447 -14237688.75446  21172514.6094                   21172512.2664
  -8402485.74247  -6530808.04343  23531416.2344                   23531415.7034
 -16332275.25048 -12717921.53946  21258237.3524                   21258234.4574
 11  9 27  3 13 30.0000000  0  8G29G22G09G06G21G15G26G18
 -17996003.00047 -14007836.91046  21847314.1644                   21847313.5944
  -1460651.00847  -1127245.24644  23239243.2114                   23239239.2304
   -516233.15647   -390151.72344  23503724.2194                   23503723.9804
   2211639.37146   1735549.21143  23904642.3674                   23904641.9494
 -21979039.49248 -17116901.90246  20841547.1254                   20841543.8404
 -18251458.10548 -14205196.05946  21180449.5784                   21180447.1914
  -8311042.64147  -6459553.65643  23548817.5314                   23548816.1374
 -16365974.46948 -12744180.64846  21251824.3984                   21251821.5554
 11  9 27  3 14  0.0000000  0  8G29G22G09G06G21G15G26G18
 -17924954.14147 -13952474.18745  21860834.3444                   21860833.2504
  -1534755.74647  -1184989.14144  23225141.0234                   23225137.5984
   -617823.30147   -469312.80144  23484392.0164                   23484391.9224
   2126869.89547   1669495.12143  23888511.9304                   23888510.5274
 -22044195.44148 -17167672.76246  20829148.6334                   20829145.1334
 -18209311.12947 -14172354.25446  21188469.5474                   21188467.7344
  -8219338.27347  -6388095.69144  23566268.5164                   23566266.7974
 -16399517.27048 -12770317.87146  21245441.5784                   21245438.7384
 11  9 27  3 14 30.0000000  0  8G29G22G09G06G21G15G26G18
 -17853597.63347 -13896871.73045  21874413.1254                   21874412.5314
  -1608714.19947  -1242619.06245  23211067.5394                   23211063.7274
   -719255.55547   -548350.84844  23465090.7424                   23465090.4384
   2042489.40647   1603744.15643  23872454.5084                   23872452.5274
 -22109106.96948 -17218253.15646  20816796.4774                   20816793.2034
 -18166717.06647 -14139164.08646  21196575.3444                   21196573.5204
  -8127374.89847  -6316435.87943  23583768.4454                   23583767.0044
 -16432903.35548 -12796332.98846  21239088.3834                   21239085.7934
 11  9 27  3 15  0.0000000  0  9G29G22G09G06G21G14G15G26G18
 -17781937.91847 -13841033.02046  21888049.7344                   21888048.8094
  -1682528.55547  -1300136.65244  23197020.8834                   23197017.3284
   -820528.09847   -627264.44544  23445818.5004                   23445818.3284
   1958498.50446   1538296.74243  23856470.7344                   23856470.4414
 -22173773.75848 -17268642.85246  20804490.7584                   20804487.2384
   7692267.83216                  24484792.930
 -18123679.81247 -14105628.56246  21204764.7584                   21204762.4774
  -8035157.17246  -6244577.89143  23601316.8364                   23601315.8524
 -16466135.04348 -12822227.79746  21232764.4534                   21232761.4184
 11  9 27  3 15 30.0000000  0  9G29G22G09G06G21G14G15G26G18
 -17709984.66047 -13784965.57446  21901741.7814                   21901740.8634
  -1756205.83247  -1357547.49245  23183000.3204                   23182997.0784
   -921644.49647   -706056.38344  23426577.1254                   23426576.3954
   1874892.21546   1473149.03144  23840561.5164                   23840560.3954
 -22238200.82048 -17318845.74646  20792230.9774                   20792227.7424
   7567214.47346   5911189.23853  24460996.3364                   24460997.1294
 -18080208.76248 -14071755.02046  21213036.9924                   21213035.1684
  -7942695.36747  -6172529.71143  23618912.0634                   23618910.2464
 -16499220.02048 -12848008.27746  21226468.7114                   21226465.8204
 11  9 27  3 16  0.0000000  0  9G29G22G09G06G21G14G15G26G18
 -17637743.36347 -13728673.67245  21915488.7274                   21915487.9734
  -1829749.19947  -1414853.97345  23169005.8364                   23169002.6764
  -1022603.80147   -784725.89144  23407364.4774                   23407364.0634
   1791669.49247   1408300.24244  23824724.8524                   23824724.0634
 -22302388.52747 -17368862.12946  20780016.0554                   20780013.0434
   7442258.08246   5813820.81343  24437218.2974                   24437218.3324
 -18036308.74647 -14037547.22746  21221391.0784                   21221388.9224
  -7849995.41447  -6100295.92643  23636552.1724                   23636550.9534
 -16532161.24247 -12873676.74246  21220200.2584                   21220197.5704
 11  9 27  3 16 30.0000000  0  9G29G22G09G06G21G14G15G26G18
 -17565215.66847 -13672158.62946  21929290.3444                   21929289.8634
  -1903157.80147  -1472055.43445  23155036.7424                   23155033.4844
  -1123401.34047   -863269.36744  23388183.0394                   23388183.2704
   1708833.71146   1343752.91444  23808961.0314                   23808961.1954
 -22366333.55948 -17418689.40646  20767847.9844                   20767844.5824
   7317402.20346   5716530.69543  24413458.4454                   24413458.7274
 -17991981.22348 -14003006.30146  21229826.2344                   21229824.3714
  -7757059.31246  -6027878.16443  23654236.9144                   23654236.6054
 -16564958.35948 -12899232.91846  21213959.1414                   21213956.0784
 11  9 27  3 17  0.0000000  0  9G29G22G09G06G21G14G15G26G18
 -17492399.62947 -13615418.89846  21943146.9304                   21943146.7274
  -1976427.77047  -1529148.87145  23141094.0004                   23141090.7894
  -1224029.49647   -941680.81644  23369034.5004                   23369034.0864
   1626390.86346   1279511.77744  23793273.5164                   23793272.4454
 -22430029.41847 -17468322.52346  20755726.9534                   20755723.7624
   7192653.29746   5619323.90643  24389719.6094                   24389720.1484
 -17947223.99648 -13968130.55546  21238343.2274                   21238341.0394
  -7663885.84446  -5955275.44143  23671967.0554                   23671966.5554
 -16597607.94547 -12924674.14846  21207746.0164                   21207743.2074
 11  9 27  3 17 30.0000000  0  9G29G22G09G06G21G14G15G26G18
 -17419298.04747 -13558456.66446  21957057.6334                   21957057.3164
  -2049559.13347  -1586134.27745  23127177.6334                   23127173.8164
  -1324484.59047  -1019957.46944  23349918.7194                   23349918.1024
   1544343.19147   1215578.56344  23777660.6094                   23777659.5274
 -22493473.64848 -17517759.58646  20743653.8594                   20743650.4104
   7068013.91846   5522202.46943  24366000.8594                   24366001.2504
 -17902039.47348 -13932921.83646  21246941.6174                   21246939.7704
  -7570478.06646  -5882490.19543  23689741.6094                   23689741.8054
 -16630110.18748 -12950000.54746  21201561.2034                   21201558.1994
 11  9 27  3 18  0.0000000  0  9G29G22G09G06G21G14G15G26G18
 -17345911.73447 -13501272.55946  21971022.9774                   21971022.1454
  -2122550.65647  -1643010.71145  23113287.5394                   23113283.8634
  -1424761.18447  -1098095.01644  23330836.6484                   23330836.6294
   1462694.42246   1151956.20744  23762122.5634                   23762121.5744
 -22556662.16048 -17566997.37546  20731629.2584                   20731625.8984
   6943488.08646   5425169.54743  24342304.5314                   24342304.2154
 -17856428.13348 -13897380.53946  21255621.2664                   21255619.2384
  -7476837.22346  -5809523.26643  23707561.9384                   23707560.1724
 -16662463.87548 -12975211.20346  21195404.4694                   21195401.5594
 11  9 27  3 18 30.0000000  0  9G29G22G09G06G21G14G15G26G18
 -17272241.81247 -13443867.45345  21985041.9614                   21985041.1054
  -2195400.76647  -1699776.94545  23099424.3524                   23099421.1174
  -1524853.95747  -1176089.32844  23311789.2734                   23311788.3444
   1381448.31346   1088647.59044  23746662.2274                   23746661.0394
 -22619590.94947 -17616032.79346  20719654.3524                   20719650.8914
   6819080.14146   5328228.40643  24318631.6954                   24318631.0944
 -17810390.20748 -13861506.84046  21264381.9924                   21264379.9494
  -7382964.67246  -5736375.81643  23725424.7664                   23725423.6644
 -16694668.00047 -13000305.30146  21189276.2894                   21189273.6134
 11  9 27  3 19  0.0000000  0  9G29G22G09G06G21G14G15G26G18
 -17198290.61747 -13386243.18746  21999114.4454                   21999113.4224
  -2268109.59847  -1756433.09845  23085587.9694                   23085584.6644
  -1624758.95347  -1253937.30544  23292777.5784                   23292777.0904
   1300606.87546   1025654.30143  23731278.3364                   23731277.0004
 -22682258.14848 -17664864.36746  20707729.3674                   20707725.8794
   6694792.75445   5231381.24642  24294978.8284                   24294979.3714
 -17763928.01248 -13825302.53946  21273223.2274                   21273221.2704
  -7288863.34447  -5663050.09843  23743332.3984                   23743330.6914
 -16726723.01648 -13025283.21546  21183176.3984                   21183173.5124
 11  9 27  3 19 30.0000000  0  9G29G22G09G06G21G14G15G26G18
 -17124063.30548 -13328403.76246  22013239.1954                   22013238.7034
  -2340679.94147  -1812981.39845  23071779.0084                   23071775.0474
  -1724475.20347  -1331638.22344  23273802.7664                   23273802.2934
   1220169.62946    962975.98044  23715971.6414                   23715970.2664
 -22744663.73048 -17713492.07846  20695853.6254                   20695850.7624
   6570625.63745   5134627.93842  24271350.2424                   24271350.0634
 -17717046.15648 -13788771.23046  21282144.4614                   21282142.7304
  -7194538.88747  -5589550.49643  23761280.8914                   23761279.4884
 -16758631.75448 -13050147.14546  21177104.2894                   21177101.2464
 11  9 27  3 20  0.0000000  0  9G29G22G09G06G21G14G15G26G18
 -17049561.18747 -13270350.20745  22027416.4614                   22027415.8714
  -2413110.50047  -1869420.78945  23057995.4224                   23057991.3594
  -1823997.55947  -1409188.04344  23254863.7664                   23254863.4534
   1140140.16846    900615.41444  23700742.3984                   23700741.3164
 -22806803.70748 -17761912.82846  20684029.2504                   20684025.9224
   6446583.01245   5037971.49642  24247745.4534                   24247745.7074
 -17669745.79748 -13751913.82846  21291145.6334                   21291144.0314
  -7099992.85946  -5515878.23843  23779272.1254                   23779271.5634
 -16790393.33648 -13074896.42246  21171060.0634                   21171057.3164
 11  9 27  3 20 30.0000000  0  9G29G22G09G06G21G14G15G26G18
 -16974785.46947 -13212083.44945  22041645.9774                   22041645.5004
  -2485400.03547  -1925750.21145  23044238.8524                   23044235.6484
  -1923321.26647  -1486583.06644  23235963.1174                   23235962.7424
   1060521.73847    838575.10544  23685591.1724                   23685591.1954
 -22868674.55948 -17810123.87546  20672255.5784                   20672252.0634
   6322667.87546   4941414.41042  24224165.8364                   24224164.9304
 -17622027.71148 -13714730.90246  21300226.0394                   21300223.4344
  -7005226.53546  -5442034.30943  23797305.7034                   23797304.7194
 -16822006.61348 -13099530.12546  21165044.3594                   21165041.2074
 11  9 27  3 21  0.0000000  0  9G29G22G09G06G21G14G15G26G18
 -16899738.42247 -13153605.27745  22055926.9534                   22055926.3674
  -2557548.53147  -1981969.75045  23030509.5634                   23030506.5044
  -2022442.21547  -1563820.12144  23217101.0474                   23217100.4844
    981316.39846    776856.70744  23670519.0554                   23670518.5904
 -22930273.72348 -17858123.21946  20660533.3914                   20660530.1454
   6198883.69546   4844959.32042  24200610.3364                   24200609.0904
 -17573893.61348 -13677223.82046  21309385.7034                   21309383.6644
  -6910242.92246  -5368021.10243  23815380.7504                   23815379.7234
 -16853471.75848 -13124048.41046  21159056.4224                   21159053.7274
